<?xml version="1.0" encoding="UTF-8" standalone="no" ?>
<gpx xmlns="http://www.topografix.com/GPX/1/1" xmlns:xsi="http://www.w3.org/2001/XMLSchema-instance" xsi:schemaLocation="http://www.topografix.com/GPX/1/1 http://www.topografix.com/GPX/1/1/gpx.xsd" version="1.1" creator="VisuGPX - https://www.visugpx.com">
  <metadata>
    <name>Pont de l\'Arn - Le Vintrou (mont de mole)</name>
    <desc><![CDATA[Départ Merican.
Le 10 mars 2013]]></desc>
  </metadata>
  <trk>
    <name><![CDATA[Pont de l\'Arn - Le Vintrou (mont de mole)_1]]></name>
    <trkseg>
      <trkpt lat="43.52639" lon="2.43141">
        <ele>527.249877</ele>
        <time>2013-03-10T08:02:43Z</time>
      </trkpt>
      <trkpt lat="43.52639" lon="2.43142">
        <ele>527.212402</ele>
        <time>2013-03-10T08:02:44Z</time>
      </trkpt>
      <trkpt lat="43.52633" lon="2.43163">
        <ele>526.1</ele>
        <time>2013-03-10T08:03:01Z</time>
      </trkpt>
      <trkpt lat="43.52629" lon="2.43174">
        <ele>526.1</ele>
        <time>2013-03-10T08:03:09Z</time>
      </trkpt>
      <trkpt lat="43.52626" lon="2.43185">
        <ele>526</ele>
        <time>2013-03-10T08:03:18Z</time>
      </trkpt>
      <trkpt lat="43.52622" lon="2.43196">
        <ele>525.8</ele>
        <time>2013-03-10T08:03:38Z</time>
      </trkpt>
      <trkpt lat="43.52618" lon="2.43206">
        <ele>525.4</ele>
        <time>2013-03-10T08:03:59Z</time>
      </trkpt>
      <trkpt lat="43.52618" lon="2.43207">
        <ele>525.4</ele>
        <time>2013-03-10T08:04:00Z</time>
      </trkpt>
      <trkpt lat="43.52632" lon="2.4322">
        <ele>524.7</ele>
        <time>2013-03-10T08:04:40Z</time>
      </trkpt>
      <trkpt lat="43.52641" lon="2.43223">
        <ele>524.6</ele>
        <time>2013-03-10T08:04:49Z</time>
      </trkpt>
      <trkpt lat="43.52648" lon="2.4323">
        <ele>524.6</ele>
        <time>2013-03-10T08:05:00Z</time>
      </trkpt>
      <trkpt lat="43.52649" lon="2.4323">
        <ele>524.6</ele>
        <time>2013-03-10T08:05:01Z</time>
      </trkpt>
      <trkpt lat="43.52663" lon="2.43238">
        <ele>524.6</ele>
        <time>2013-03-10T08:05:15Z</time>
      </trkpt>
      <trkpt lat="43.5267" lon="2.43244">
        <ele>524.6</ele>
        <time>2013-03-10T08:05:23Z</time>
      </trkpt>
      <trkpt lat="43.52677" lon="2.4325">
        <ele>524.6</ele>
        <time>2013-03-10T08:05:35Z</time>
      </trkpt>
      <trkpt lat="43.52685" lon="2.43252">
        <ele>524.6</ele>
        <time>2013-03-10T08:05:43Z</time>
      </trkpt>
      <trkpt lat="43.52694" lon="2.43255">
        <ele>524.5</ele>
        <time>2013-03-10T08:05:50Z</time>
      </trkpt>
      <trkpt lat="43.52702" lon="2.43257">
        <ele>524.5</ele>
        <time>2013-03-10T08:05:56Z</time>
      </trkpt>
      <trkpt lat="43.5271" lon="2.43259">
        <ele>524.7</ele>
        <time>2013-03-10T08:06:03Z</time>
      </trkpt>
      <trkpt lat="43.52712" lon="2.43259">
        <ele>524.7</ele>
        <time>2013-03-10T08:06:04Z</time>
      </trkpt>
      <trkpt lat="43.52727" lon="2.4326">
        <ele>525.5</ele>
        <time>2013-03-10T08:06:18Z</time>
      </trkpt>
      <trkpt lat="43.52736" lon="2.43259">
        <ele>526.1</ele>
        <time>2013-03-10T08:06:28Z</time>
      </trkpt>
      <trkpt lat="43.52745" lon="2.4326">
        <ele>526.8</ele>
        <time>2013-03-10T08:06:37Z</time>
      </trkpt>
      <trkpt lat="43.52753" lon="2.43261">
        <ele>527.6</ele>
        <time>2013-03-10T08:06:47Z</time>
      </trkpt>
      <trkpt lat="43.52762" lon="2.43262">
        <ele>528.3</ele>
        <time>2013-03-10T08:06:55Z</time>
      </trkpt>
      <trkpt lat="43.5277" lon="2.43262">
        <ele>528.9</ele>
        <time>2013-03-10T08:07:02Z</time>
      </trkpt>
      <trkpt lat="43.52778" lon="2.43264">
        <ele>529.5</ele>
        <time>2013-03-10T08:07:10Z</time>
      </trkpt>
      <trkpt lat="43.5278" lon="2.43264">
        <ele>529.6</ele>
        <time>2013-03-10T08:07:11Z</time>
      </trkpt>
      <trkpt lat="43.52795" lon="2.43267">
        <ele>530.6</ele>
        <time>2013-03-10T08:07:25Z</time>
      </trkpt>
      <trkpt lat="43.52803" lon="2.43267">
        <ele>531.1</ele>
        <time>2013-03-10T08:07:32Z</time>
      </trkpt>
      <trkpt lat="43.52811" lon="2.43268">
        <ele>531.5</ele>
        <time>2013-03-10T08:07:39Z</time>
      </trkpt>
      <trkpt lat="43.5282" lon="2.43269">
        <ele>531.8</ele>
        <time>2013-03-10T08:07:46Z</time>
      </trkpt>
      <trkpt lat="43.52828" lon="2.43269">
        <ele>532.1</ele>
        <time>2013-03-10T08:07:53Z</time>
      </trkpt>
      <trkpt lat="43.52836" lon="2.43269">
        <ele>532.4</ele>
        <time>2013-03-10T08:08:00Z</time>
      </trkpt>
      <trkpt lat="43.52845" lon="2.4327">
        <ele>532.7</ele>
        <time>2013-03-10T08:08:07Z</time>
      </trkpt>
      <trkpt lat="43.52852" lon="2.43272">
        <ele>533.1</ele>
        <time>2013-03-10T08:08:14Z</time>
      </trkpt>
      <trkpt lat="43.52854" lon="2.43272">
        <ele>533.2</ele>
        <time>2013-03-10T08:08:15Z</time>
      </trkpt>
      <trkpt lat="43.52868" lon="2.43275">
        <ele>534.3</ele>
        <time>2013-03-10T08:08:26Z</time>
      </trkpt>
      <trkpt lat="43.52876" lon="2.43273">
        <ele>535.1</ele>
        <time>2013-03-10T08:08:33Z</time>
      </trkpt>
      <trkpt lat="43.52884" lon="2.43272">
        <ele>536</ele>
        <time>2013-03-10T08:08:41Z</time>
      </trkpt>
      <trkpt lat="43.52892" lon="2.43269">
        <ele>536.8</ele>
        <time>2013-03-10T08:08:49Z</time>
      </trkpt>
      <trkpt lat="43.52901" lon="2.43267">
        <ele>537.5</ele>
        <time>2013-03-10T08:08:59Z</time>
      </trkpt>
      <trkpt lat="43.5291" lon="2.43265">
        <ele>537.8</ele>
        <time>2013-03-10T08:09:07Z</time>
      </trkpt>
      <trkpt lat="43.52918" lon="2.43262">
        <ele>538.3</ele>
        <time>2013-03-10T08:09:16Z</time>
      </trkpt>
      <trkpt lat="43.52919" lon="2.43262">
        <ele>538.4</ele>
        <time>2013-03-10T08:09:17Z</time>
      </trkpt>
      <trkpt lat="43.52932" lon="2.43249">
        <ele>540.5</ele>
        <time>2013-03-10T08:09:35Z</time>
      </trkpt>
      <trkpt lat="43.52939" lon="2.43244">
        <ele>541.6</ele>
        <time>2013-03-10T08:09:43Z</time>
      </trkpt>
      <trkpt lat="43.52946" lon="2.43238">
        <ele>542.4</ele>
        <time>2013-03-10T08:09:50Z</time>
      </trkpt>
      <trkpt lat="43.52953" lon="2.43232">
        <ele>543.2</ele>
        <time>2013-03-10T08:09:56Z</time>
      </trkpt>
      <trkpt lat="43.52958" lon="2.43224">
        <ele>543.8</ele>
        <time>2013-03-10T08:10:02Z</time>
      </trkpt>
      <trkpt lat="43.52964" lon="2.43216">
        <ele>544.2</ele>
        <time>2013-03-10T08:10:09Z</time>
      </trkpt>
      <trkpt lat="43.5297" lon="2.43208">
        <ele>544.5</ele>
        <time>2013-03-10T08:10:17Z</time>
      </trkpt>
      <trkpt lat="43.52971" lon="2.43207">
        <ele>544.5</ele>
        <time>2013-03-10T08:10:18Z</time>
      </trkpt>
      <trkpt lat="43.52983" lon="2.43192">
        <ele>544.9</ele>
        <time>2013-03-10T08:10:31Z</time>
      </trkpt>
      <trkpt lat="43.52989" lon="2.43185">
        <ele>544.5</ele>
        <time>2013-03-10T08:10:37Z</time>
      </trkpt>
      <trkpt lat="43.52997" lon="2.4318">
        <ele>543.5</ele>
        <time>2013-03-10T08:10:43Z</time>
      </trkpt>
      <trkpt lat="43.53004" lon="2.43175">
        <ele>543.3</ele>
        <time>2013-03-10T08:10:49Z</time>
      </trkpt>
      <trkpt lat="43.53011" lon="2.43168">
        <ele>543.5</ele>
        <time>2013-03-10T08:10:55Z</time>
      </trkpt>
      <trkpt lat="43.53017" lon="2.43161">
        <ele>543.6</ele>
        <time>2013-03-10T08:11:01Z</time>
      </trkpt>
      <trkpt lat="43.53023" lon="2.43154">
        <ele>543.6</ele>
        <time>2013-03-10T08:11:07Z</time>
      </trkpt>
      <trkpt lat="43.53029" lon="2.43147">
        <ele>544.1</ele>
        <time>2013-03-10T08:11:14Z</time>
      </trkpt>
      <trkpt lat="43.53036" lon="2.43139">
        <ele>544.6</ele>
        <time>2013-03-10T08:11:22Z</time>
      </trkpt>
      <trkpt lat="43.53036" lon="2.43138">
        <ele>544.5</ele>
        <time>2013-03-10T08:11:23Z</time>
      </trkpt>
      <trkpt lat="43.53049" lon="2.43126">
        <ele>544.5</ele>
        <time>2013-03-10T08:11:36Z</time>
      </trkpt>
      <trkpt lat="43.53057" lon="2.4312">
        <ele>544.6</ele>
        <time>2013-03-10T08:11:44Z</time>
      </trkpt>
      <trkpt lat="43.53065" lon="2.43114">
        <ele>546.2</ele>
        <time>2013-03-10T08:11:51Z</time>
      </trkpt>
      <trkpt lat="43.53073" lon="2.43109">
        <ele>547.4</ele>
        <time>2013-03-10T08:11:58Z</time>
      </trkpt>
      <trkpt lat="43.5308" lon="2.43104">
        <ele>547.4</ele>
        <time>2013-03-10T08:12:05Z</time>
      </trkpt>
      <trkpt lat="43.53087" lon="2.43098">
        <ele>547.5</ele>
        <time>2013-03-10T08:12:12Z</time>
      </trkpt>
      <trkpt lat="43.53094" lon="2.43093">
        <ele>547.2</ele>
        <time>2013-03-10T08:12:18Z</time>
      </trkpt>
      <trkpt lat="43.53102" lon="2.43087">
        <ele>547.6</ele>
        <time>2013-03-10T08:12:24Z</time>
      </trkpt>
      <trkpt lat="43.53103" lon="2.43086">
        <ele>547.7</ele>
        <time>2013-03-10T08:12:25Z</time>
      </trkpt>
      <trkpt lat="43.53117" lon="2.43078">
        <ele>549</ele>
        <time>2013-03-10T08:12:36Z</time>
      </trkpt>
      <trkpt lat="43.53125" lon="2.43072">
        <ele>548.5</ele>
        <time>2013-03-10T08:12:43Z</time>
      </trkpt>
      <trkpt lat="43.53132" lon="2.43067">
        <ele>548.3</ele>
        <time>2013-03-10T08:12:50Z</time>
      </trkpt>
      <trkpt lat="43.5314" lon="2.43062">
        <ele>548.6</ele>
        <time>2013-03-10T08:12:57Z</time>
      </trkpt>
      <trkpt lat="43.53147" lon="2.43057">
        <ele>548.6</ele>
        <time>2013-03-10T08:13:04Z</time>
      </trkpt>
      <trkpt lat="43.53155" lon="2.43053">
        <ele>547.9</ele>
        <time>2013-03-10T08:13:10Z</time>
      </trkpt>
      <trkpt lat="43.53163" lon="2.43049">
        <ele>548.2</ele>
        <time>2013-03-10T08:13:17Z</time>
      </trkpt>
      <trkpt lat="43.5317" lon="2.43044">
        <ele>549.5</ele>
        <time>2013-03-10T08:13:24Z</time>
      </trkpt>
      <trkpt lat="43.53178" lon="2.4304">
        <ele>548.6</ele>
        <time>2013-03-10T08:13:32Z</time>
      </trkpt>
      <trkpt lat="43.53179" lon="2.4304">
        <ele>548.6</ele>
        <time>2013-03-10T08:13:33Z</time>
      </trkpt>
      <trkpt lat="43.53194" lon="2.43031">
        <ele>548.5</ele>
        <time>2013-03-10T08:13:46Z</time>
      </trkpt>
      <trkpt lat="43.53201" lon="2.43025">
        <ele>549.3</ele>
        <time>2013-03-10T08:13:53Z</time>
      </trkpt>
      <trkpt lat="43.53208" lon="2.4302">
        <ele>549.9</ele>
        <time>2013-03-10T08:13:59Z</time>
      </trkpt>
      <trkpt lat="43.53216" lon="2.43015">
        <ele>550.1</ele>
        <time>2013-03-10T08:14:06Z</time>
      </trkpt>
      <trkpt lat="43.53224" lon="2.4301">
        <ele>549.5</ele>
        <time>2013-03-10T08:14:14Z</time>
      </trkpt>
      <trkpt lat="43.53232" lon="2.43005">
        <ele>549.8</ele>
        <time>2013-03-10T08:14:21Z</time>
      </trkpt>
      <trkpt lat="43.5324" lon="2.43">
        <ele>549.9</ele>
        <time>2013-03-10T08:14:28Z</time>
      </trkpt>
      <trkpt lat="43.53247" lon="2.42994">
        <ele>549.9</ele>
        <time>2013-03-10T08:14:35Z</time>
      </trkpt>
      <trkpt lat="43.53248" lon="2.42994">
        <ele>549.8</ele>
        <time>2013-03-10T08:14:36Z</time>
      </trkpt>
      <trkpt lat="43.53261" lon="2.42985">
        <ele>550.7</ele>
        <time>2013-03-10T08:14:49Z</time>
      </trkpt>
      <trkpt lat="43.53269" lon="2.4298">
        <ele>550.7</ele>
        <time>2013-03-10T08:14:57Z</time>
      </trkpt>
      <trkpt lat="43.53276" lon="2.42975">
        <ele>550.7</ele>
        <time>2013-03-10T08:15:04Z</time>
      </trkpt>
      <trkpt lat="43.53284" lon="2.42969">
        <ele>550.9</ele>
        <time>2013-03-10T08:15:12Z</time>
      </trkpt>
      <trkpt lat="43.53293" lon="2.42968">
        <ele>552.1</ele>
        <time>2013-03-10T08:15:24Z</time>
      </trkpt>
      <trkpt lat="43.53301" lon="2.4297">
        <ele>551.7</ele>
        <time>2013-03-10T08:15:33Z</time>
      </trkpt>
      <trkpt lat="43.53308" lon="2.42975">
        <ele>551.7</ele>
        <time>2013-03-10T08:15:41Z</time>
      </trkpt>
      <trkpt lat="43.53309" lon="2.42976">
        <ele>551.8</ele>
        <time>2013-03-10T08:15:42Z</time>
      </trkpt>
      <trkpt lat="43.53324" lon="2.42983">
        <ele>550</ele>
        <time>2013-03-10T08:15:58Z</time>
      </trkpt>
      <trkpt lat="43.53332" lon="2.42986">
        <ele>549.8</ele>
        <time>2013-03-10T08:16:06Z</time>
      </trkpt>
      <trkpt lat="43.5334" lon="2.4299">
        <ele>550</ele>
        <time>2013-03-10T08:16:14Z</time>
      </trkpt>
      <trkpt lat="43.53348" lon="2.42994">
        <ele>548.8</ele>
        <time>2013-03-10T08:16:23Z</time>
      </trkpt>
      <trkpt lat="43.53356" lon="2.42999">
        <ele>548.3</ele>
        <time>2013-03-10T08:16:31Z</time>
      </trkpt>
      <trkpt lat="43.53364" lon="2.43002">
        <ele>547.8</ele>
        <time>2013-03-10T08:16:38Z</time>
      </trkpt>
      <trkpt lat="43.53372" lon="2.43005">
        <ele>547.5</ele>
        <time>2013-03-10T08:16:45Z</time>
      </trkpt>
      <trkpt lat="43.53373" lon="2.43006">
        <ele>547.6</ele>
        <time>2013-03-10T08:16:46Z</time>
      </trkpt>
      <trkpt lat="43.53387" lon="2.43012">
        <ele>547.2</ele>
        <time>2013-03-10T08:16:58Z</time>
      </trkpt>
      <trkpt lat="43.53395" lon="2.43015">
        <ele>546.5</ele>
        <time>2013-03-10T08:17:04Z</time>
      </trkpt>
      <trkpt lat="43.53403" lon="2.43018">
        <ele>545.7</ele>
        <time>2013-03-10T08:17:11Z</time>
      </trkpt>
      <trkpt lat="43.53412" lon="2.43023">
        <ele>544.5</ele>
        <time>2013-03-10T08:17:18Z</time>
      </trkpt>
      <trkpt lat="43.53419" lon="2.43028">
        <ele>545.5</ele>
        <time>2013-03-10T08:17:24Z</time>
      </trkpt>
      <trkpt lat="43.53426" lon="2.43034">
        <ele>544.9</ele>
        <time>2013-03-10T08:17:31Z</time>
      </trkpt>
      <trkpt lat="43.53433" lon="2.43041">
        <ele>544.9</ele>
        <time>2013-03-10T08:17:38Z</time>
      </trkpt>
      <trkpt lat="43.53439" lon="2.43049">
        <ele>544.5</ele>
        <time>2013-03-10T08:17:45Z</time>
      </trkpt>
      <trkpt lat="43.53445" lon="2.43057">
        <ele>545.4</ele>
        <time>2013-03-10T08:17:52Z</time>
      </trkpt>
      <trkpt lat="43.53446" lon="2.43059">
        <ele>545.5</ele>
        <time>2013-03-10T08:17:53Z</time>
      </trkpt>
      <trkpt lat="43.53458" lon="2.43072">
        <ele>546.6</ele>
        <time>2013-03-10T08:18:06Z</time>
      </trkpt>
      <trkpt lat="43.53465" lon="2.43079">
        <ele>547.1</ele>
        <time>2013-03-10T08:18:14Z</time>
      </trkpt>
      <trkpt lat="43.53471" lon="2.43086">
        <ele>547.7</ele>
        <time>2013-03-10T08:18:21Z</time>
      </trkpt>
      <trkpt lat="43.53479" lon="2.43093">
        <ele>550</ele>
        <time>2013-03-10T08:18:29Z</time>
      </trkpt>
      <trkpt lat="43.53486" lon="2.43098">
        <ele>549.7</ele>
        <time>2013-03-10T08:18:36Z</time>
      </trkpt>
      <trkpt lat="43.53493" lon="2.43103">
        <ele>550.9</ele>
        <time>2013-03-10T08:18:43Z</time>
      </trkpt>
      <trkpt lat="43.53501" lon="2.43107">
        <ele>551</ele>
        <time>2013-03-10T08:18:51Z</time>
      </trkpt>
      <trkpt lat="43.5351" lon="2.43109">
        <ele>552.1</ele>
        <time>2013-03-10T08:18:59Z</time>
      </trkpt>
      <trkpt lat="43.53511" lon="2.43109">
        <ele>552.1</ele>
        <time>2013-03-10T08:19:00Z</time>
      </trkpt>
      <trkpt lat="43.53526" lon="2.43108">
        <ele>554.3</ele>
        <time>2013-03-10T08:19:15Z</time>
      </trkpt>
      <trkpt lat="43.53535" lon="2.43107">
        <ele>553.9</ele>
        <time>2013-03-10T08:19:24Z</time>
      </trkpt>
      <trkpt lat="43.53543" lon="2.43104">
        <ele>555.8</ele>
        <time>2013-03-10T08:19:32Z</time>
      </trkpt>
      <trkpt lat="43.53552" lon="2.43103">
        <ele>556.6</ele>
        <time>2013-03-10T08:19:40Z</time>
      </trkpt>
      <trkpt lat="43.5356" lon="2.43104">
        <ele>556.6</ele>
        <time>2013-03-10T08:19:47Z</time>
      </trkpt>
      <trkpt lat="43.53569" lon="2.43104">
        <ele>556.9</ele>
        <time>2013-03-10T08:19:55Z</time>
      </trkpt>
      <trkpt lat="43.53577" lon="2.43106">
        <ele>557.1</ele>
        <time>2013-03-10T08:20:02Z</time>
      </trkpt>
      <trkpt lat="43.53578" lon="2.43106">
        <ele>557.2</ele>
        <time>2013-03-10T08:20:03Z</time>
      </trkpt>
      <trkpt lat="43.53593" lon="2.43109">
        <ele>557.8</ele>
        <time>2013-03-10T08:20:15Z</time>
      </trkpt>
      <trkpt lat="43.53601" lon="2.43111">
        <ele>558.9</ele>
        <time>2013-03-10T08:20:22Z</time>
      </trkpt>
      <trkpt lat="43.53609" lon="2.43111">
        <ele>559.3</ele>
        <time>2013-03-10T08:20:30Z</time>
      </trkpt>
      <trkpt lat="43.53618" lon="2.43111">
        <ele>559.6</ele>
        <time>2013-03-10T08:20:39Z</time>
      </trkpt>
      <trkpt lat="43.53626" lon="2.43113">
        <ele>560.1</ele>
        <time>2013-03-10T08:20:48Z</time>
      </trkpt>
      <trkpt lat="43.53634" lon="2.43114">
        <ele>560.4</ele>
        <time>2013-03-10T08:20:56Z</time>
      </trkpt>
      <trkpt lat="43.53626" lon="2.43112">
        <ele>560</ele>
        <time>2013-03-10T08:21:51Z</time>
      </trkpt>
      <trkpt lat="43.53626" lon="2.43112">
        <ele>560.3</ele>
        <time>2013-03-10T08:21:52Z</time>
      </trkpt>
      <trkpt lat="43.53627" lon="2.43134">
        <ele>560</ele>
        <time>2013-03-10T08:22:09Z</time>
      </trkpt>
      <trkpt lat="43.53628" lon="2.43147">
        <ele>559.8</ele>
        <time>2013-03-10T08:22:18Z</time>
      </trkpt>
      <trkpt lat="43.53632" lon="2.43137">
        <ele>559.4</ele>
        <time>2013-03-10T08:22:34Z</time>
      </trkpt>
      <trkpt lat="43.53628" lon="2.43127">
        <ele>559.3</ele>
        <time>2013-03-10T08:22:41Z</time>
      </trkpt>
      <trkpt lat="43.53624" lon="2.43117">
        <ele>559.9</ele>
        <time>2013-03-10T08:22:47Z</time>
      </trkpt>
      <trkpt lat="43.5362" lon="2.43106">
        <ele>559.9</ele>
        <time>2013-03-10T08:22:53Z</time>
      </trkpt>
      <trkpt lat="43.53619" lon="2.43105">
        <ele>559.9</ele>
        <time>2013-03-10T08:22:54Z</time>
      </trkpt>
      <trkpt lat="43.53616" lon="2.43085">
        <ele>558</ele>
        <time>2013-03-10T08:23:03Z</time>
      </trkpt>
      <trkpt lat="43.53616" lon="2.43073">
        <ele>557.4</ele>
        <time>2013-03-10T08:23:08Z</time>
      </trkpt>
      <trkpt lat="43.53616" lon="2.43062">
        <ele>556.9</ele>
        <time>2013-03-10T08:23:17Z</time>
      </trkpt>
      <trkpt lat="43.53618" lon="2.43051">
        <ele>558.3</ele>
        <time>2013-03-10T08:23:30Z</time>
      </trkpt>
      <trkpt lat="43.53623" lon="2.43041">
        <ele>557</ele>
        <time>2013-03-10T08:23:37Z</time>
      </trkpt>
      <trkpt lat="43.53628" lon="2.43031">
        <ele>556.7</ele>
        <time>2013-03-10T08:23:46Z</time>
      </trkpt>
      <trkpt lat="43.53634" lon="2.43022">
        <ele>556.8</ele>
        <time>2013-03-10T08:23:54Z</time>
      </trkpt>
      <trkpt lat="43.53634" lon="2.43021">
        <ele>556.7</ele>
        <time>2013-03-10T08:23:55Z</time>
      </trkpt>
      <trkpt lat="43.53642" lon="2.43002">
        <ele>557</ele>
        <time>2013-03-10T08:24:08Z</time>
      </trkpt>
      <trkpt lat="43.53646" lon="2.42991">
        <ele>556.8</ele>
        <time>2013-03-10T08:24:14Z</time>
      </trkpt>
      <trkpt lat="43.5365" lon="2.4298">
        <ele>556.9</ele>
        <time>2013-03-10T08:24:20Z</time>
      </trkpt>
      <trkpt lat="43.53652" lon="2.42968">
        <ele>556.3</ele>
        <time>2013-03-10T08:24:26Z</time>
      </trkpt>
      <trkpt lat="43.53656" lon="2.42959">
        <ele>556.1</ele>
        <time>2013-03-10T08:24:32Z</time>
      </trkpt>
      <trkpt lat="43.53661" lon="2.4295">
        <ele>555.9</ele>
        <time>2013-03-10T08:24:40Z</time>
      </trkpt>
      <trkpt lat="43.53665" lon="2.4294">
        <ele>555.8</ele>
        <time>2013-03-10T08:24:47Z</time>
      </trkpt>
      <trkpt lat="43.53668" lon="2.4293">
        <ele>555.4</ele>
        <time>2013-03-10T08:24:54Z</time>
      </trkpt>
      <trkpt lat="43.53672" lon="2.42919">
        <ele>556.1</ele>
        <time>2013-03-10T08:25:02Z</time>
      </trkpt>
      <trkpt lat="43.53672" lon="2.42918">
        <ele>556</ele>
        <time>2013-03-10T08:25:03Z</time>
      </trkpt>
      <trkpt lat="43.53679" lon="2.429">
        <ele>556.5</ele>
        <time>2013-03-10T08:25:19Z</time>
      </trkpt>
      <trkpt lat="43.53683" lon="2.42889">
        <ele>556.3</ele>
        <time>2013-03-10T08:25:26Z</time>
      </trkpt>
      <trkpt lat="43.53688" lon="2.42879">
        <ele>556.2</ele>
        <time>2013-03-10T08:25:34Z</time>
      </trkpt>
      <trkpt lat="43.53692" lon="2.4287">
        <ele>555.4</ele>
        <time>2013-03-10T08:25:40Z</time>
      </trkpt>
      <trkpt lat="43.53696" lon="2.42859">
        <ele>554.9</ele>
        <time>2013-03-10T08:25:46Z</time>
      </trkpt>
      <trkpt lat="43.53699" lon="2.42849">
        <ele>554.7</ele>
        <time>2013-03-10T08:25:51Z</time>
      </trkpt>
      <trkpt lat="43.53703" lon="2.42839">
        <ele>555.3</ele>
        <time>2013-03-10T08:25:57Z</time>
      </trkpt>
      <trkpt lat="43.53707" lon="2.4283">
        <ele>554.3</ele>
        <time>2013-03-10T08:26:06Z</time>
      </trkpt>
      <trkpt lat="43.53708" lon="2.42828">
        <ele>554.2</ele>
        <time>2013-03-10T08:26:07Z</time>
      </trkpt>
      <trkpt lat="43.53716" lon="2.4281">
        <ele>553.5</ele>
        <time>2013-03-10T08:26:21Z</time>
      </trkpt>
      <trkpt lat="43.5372" lon="2.42801">
        <ele>552.9</ele>
        <time>2013-03-10T08:26:27Z</time>
      </trkpt>
      <trkpt lat="43.53723" lon="2.42791">
        <ele>552.3</ele>
        <time>2013-03-10T08:26:33Z</time>
      </trkpt>
      <trkpt lat="43.53727" lon="2.42781">
        <ele>551.5</ele>
        <time>2013-03-10T08:26:39Z</time>
      </trkpt>
      <trkpt lat="43.53731" lon="2.42772">
        <ele>551.8</ele>
        <time>2013-03-10T08:26:45Z</time>
      </trkpt>
      <trkpt lat="43.53735" lon="2.42762">
        <ele>551.3</ele>
        <time>2013-03-10T08:26:52Z</time>
      </trkpt>
      <trkpt lat="43.53739" lon="2.42751">
        <ele>550.4</ele>
        <time>2013-03-10T08:27:00Z</time>
      </trkpt>
      <trkpt lat="43.53742" lon="2.4274">
        <ele>548.9</ele>
        <time>2013-03-10T08:27:08Z</time>
      </trkpt>
      <trkpt lat="43.53743" lon="2.42739">
        <ele>548.9</ele>
        <time>2013-03-10T08:27:09Z</time>
      </trkpt>
      <trkpt lat="43.5375" lon="2.4272">
        <ele>548.1</ele>
        <time>2013-03-10T08:27:24Z</time>
      </trkpt>
      <trkpt lat="43.53756" lon="2.42712">
        <ele>547</ele>
        <time>2013-03-10T08:27:31Z</time>
      </trkpt>
      <trkpt lat="43.53762" lon="2.42703">
        <ele>545.5</ele>
        <time>2013-03-10T08:27:38Z</time>
      </trkpt>
      <trkpt lat="43.53768" lon="2.42696">
        <ele>546.1</ele>
        <time>2013-03-10T08:27:44Z</time>
      </trkpt>
      <trkpt lat="43.53775" lon="2.42688">
        <ele>544.5</ele>
        <time>2013-03-10T08:27:51Z</time>
      </trkpt>
      <trkpt lat="43.53781" lon="2.42681">
        <ele>544.8</ele>
        <time>2013-03-10T08:27:57Z</time>
      </trkpt>
      <trkpt lat="43.53787" lon="2.42673">
        <ele>544.5</ele>
        <time>2013-03-10T08:28:03Z</time>
      </trkpt>
      <trkpt lat="43.53793" lon="2.42667">
        <ele>543.5</ele>
        <time>2013-03-10T08:28:08Z</time>
      </trkpt>
      <trkpt lat="43.538" lon="2.42661">
        <ele>542.9</ele>
        <time>2013-03-10T08:28:13Z</time>
      </trkpt>
      <trkpt lat="43.53802" lon="2.4266">
        <ele>543</ele>
        <time>2013-03-10T08:28:14Z</time>
      </trkpt>
      <trkpt lat="43.53815" lon="2.4265">
        <ele>541.1</ele>
        <time>2013-03-10T08:28:23Z</time>
      </trkpt>
      <trkpt lat="43.53822" lon="2.42643">
        <ele>540</ele>
        <time>2013-03-10T08:28:28Z</time>
      </trkpt>
      <trkpt lat="43.53829" lon="2.42638">
        <ele>539.7</ele>
        <time>2013-03-10T08:28:32Z</time>
      </trkpt>
      <trkpt lat="43.53833" lon="2.42631">
        <ele>540</ele>
        <time>2013-03-10T08:28:35Z</time>
      </trkpt>
      <trkpt lat="43.53837" lon="2.42621">
        <ele>539.2</ele>
        <time>2013-03-10T08:28:41Z</time>
      </trkpt>
      <trkpt lat="43.53841" lon="2.42611">
        <ele>539.1</ele>
        <time>2013-03-10T08:28:48Z</time>
      </trkpt>
      <trkpt lat="43.53845" lon="2.42601">
        <ele>539.5</ele>
        <time>2013-03-10T08:28:55Z</time>
      </trkpt>
      <trkpt lat="43.53849" lon="2.42591">
        <ele>539.2</ele>
        <time>2013-03-10T08:29:03Z</time>
      </trkpt>
      <trkpt lat="43.53856" lon="2.42584">
        <ele>539.5</ele>
        <time>2013-03-10T08:29:10Z</time>
      </trkpt>
      <trkpt lat="43.53864" lon="2.4258">
        <ele>540.4</ele>
        <time>2013-03-10T08:29:17Z</time>
      </trkpt>
      <trkpt lat="43.53865" lon="2.42579">
        <ele>540.2</ele>
        <time>2013-03-10T08:29:18Z</time>
      </trkpt>
      <trkpt lat="43.5388" lon="2.42572">
        <ele>542</ele>
        <time>2013-03-10T08:29:31Z</time>
      </trkpt>
      <trkpt lat="43.53887" lon="2.42566">
        <ele>542.7</ele>
        <time>2013-03-10T08:29:38Z</time>
      </trkpt>
      <trkpt lat="43.53892" lon="2.42556">
        <ele>542.2</ele>
        <time>2013-03-10T08:29:45Z</time>
      </trkpt>
      <trkpt lat="43.53892" lon="2.42544">
        <ele>542.6</ele>
        <time>2013-03-10T08:29:52Z</time>
      </trkpt>
      <trkpt lat="43.53888" lon="2.42535">
        <ele>543.1</ele>
        <time>2013-03-10T08:29:59Z</time>
      </trkpt>
      <trkpt lat="43.53881" lon="2.42529">
        <ele>543.1</ele>
        <time>2013-03-10T08:30:07Z</time>
      </trkpt>
      <trkpt lat="43.53872" lon="2.4253">
        <ele>544.4</ele>
        <time>2013-03-10T08:30:16Z</time>
      </trkpt>
      <trkpt lat="43.53863" lon="2.42533">
        <ele>544.7</ele>
        <time>2013-03-10T08:30:24Z</time>
      </trkpt>
      <trkpt lat="43.53862" lon="2.42533">
        <ele>545</ele>
        <time>2013-03-10T08:30:25Z</time>
      </trkpt>
      <trkpt lat="43.53846" lon="2.42534">
        <ele>546</ele>
        <time>2013-03-10T08:30:39Z</time>
      </trkpt>
      <trkpt lat="43.5384" lon="2.42527">
        <ele>547</ele>
        <time>2013-03-10T08:30:46Z</time>
      </trkpt>
      <trkpt lat="43.53839" lon="2.42515">
        <ele>547.6</ele>
        <time>2013-03-10T08:30:53Z</time>
      </trkpt>
      <trkpt lat="43.53842" lon="2.42504">
        <ele>548.2</ele>
        <time>2013-03-10T08:31:00Z</time>
      </trkpt>
      <trkpt lat="43.53847" lon="2.42495">
        <ele>549.2</ele>
        <time>2013-03-10T08:31:07Z</time>
      </trkpt>
      <trkpt lat="43.5385" lon="2.42485">
        <ele>550</ele>
        <time>2013-03-10T08:31:14Z</time>
      </trkpt>
      <trkpt lat="43.53854" lon="2.42475">
        <ele>550.8</ele>
        <time>2013-03-10T08:31:22Z</time>
      </trkpt>
      <trkpt lat="43.53856" lon="2.42463">
        <ele>551.3</ele>
        <time>2013-03-10T08:31:30Z</time>
      </trkpt>
      <trkpt lat="43.53857" lon="2.42462">
        <ele>551.5</ele>
        <time>2013-03-10T08:31:31Z</time>
      </trkpt>
      <trkpt lat="43.53858" lon="2.4244">
        <ele>552.2</ele>
        <time>2013-03-10T08:31:45Z</time>
      </trkpt>
      <trkpt lat="43.53859" lon="2.42429">
        <ele>553</ele>
        <time>2013-03-10T08:31:53Z</time>
      </trkpt>
      <trkpt lat="43.53857" lon="2.42417">
        <ele>553.1</ele>
        <time>2013-03-10T08:32:01Z</time>
      </trkpt>
      <trkpt lat="43.53857" lon="2.42405">
        <ele>553.1</ele>
        <time>2013-03-10T08:32:10Z</time>
      </trkpt>
      <trkpt lat="43.5386" lon="2.42394">
        <ele>552.9</ele>
        <time>2013-03-10T08:32:18Z</time>
      </trkpt>
      <trkpt lat="43.53864" lon="2.42383">
        <ele>552.9</ele>
        <time>2013-03-10T08:32:26Z</time>
      </trkpt>
      <trkpt lat="43.53864" lon="2.42371">
        <ele>552.2</ele>
        <time>2013-03-10T08:32:36Z</time>
      </trkpt>
      <trkpt lat="43.53863" lon="2.42369">
        <ele>552.7</ele>
        <time>2013-03-10T08:32:37Z</time>
      </trkpt>
      <trkpt lat="43.53852" lon="2.42353">
        <ele>553.5</ele>
        <time>2013-03-10T08:32:52Z</time>
      </trkpt>
      <trkpt lat="43.53848" lon="2.42342">
        <ele>553.3</ele>
        <time>2013-03-10T08:33:00Z</time>
      </trkpt>
      <trkpt lat="43.53847" lon="2.42332">
        <ele>552.6</ele>
        <time>2013-03-10T08:33:06Z</time>
      </trkpt>
      <trkpt lat="43.53846" lon="2.4232">
        <ele>552.4</ele>
        <time>2013-03-10T08:33:13Z</time>
      </trkpt>
      <trkpt lat="43.53844" lon="2.42309">
        <ele>553.3</ele>
        <time>2013-03-10T08:33:20Z</time>
      </trkpt>
      <trkpt lat="43.53842" lon="2.42298">
        <ele>553.1</ele>
        <time>2013-03-10T08:33:27Z</time>
      </trkpt>
      <trkpt lat="43.5384" lon="2.42287">
        <ele>552.3</ele>
        <time>2013-03-10T08:33:34Z</time>
      </trkpt>
      <trkpt lat="43.53837" lon="2.42276">
        <ele>552.7</ele>
        <time>2013-03-10T08:33:42Z</time>
      </trkpt>
      <trkpt lat="43.53836" lon="2.42274">
        <ele>552.6</ele>
        <time>2013-03-10T08:33:43Z</time>
      </trkpt>
      <trkpt lat="43.53834" lon="2.42253">
        <ele>552.2</ele>
        <time>2013-03-10T08:33:56Z</time>
      </trkpt>
      <trkpt lat="43.53832" lon="2.42241">
        <ele>552.1</ele>
        <time>2013-03-10T08:34:05Z</time>
      </trkpt>
      <trkpt lat="43.53831" lon="2.42229">
        <ele>551.7</ele>
        <time>2013-03-10T08:34:14Z</time>
      </trkpt>
      <trkpt lat="43.5383" lon="2.42217">
        <ele>551.3</ele>
        <time>2013-03-10T08:34:20Z</time>
      </trkpt>
      <trkpt lat="43.5383" lon="2.42205">
        <ele>552</ele>
        <time>2013-03-10T08:34:27Z</time>
      </trkpt>
      <trkpt lat="43.53829" lon="2.42193">
        <ele>551.4</ele>
        <time>2013-03-10T08:36:38Z</time>
      </trkpt>
      <trkpt lat="43.53829" lon="2.42193">
        <ele>551.4</ele>
        <time>2013-03-10T08:36:39Z</time>
      </trkpt>
      <trkpt lat="43.53816" lon="2.42179">
        <ele>551.1</ele>
        <time>2013-03-10T08:37:42Z</time>
      </trkpt>
      <trkpt lat="43.53815" lon="2.42177">
        <ele>550.9</ele>
        <time>2013-03-10T08:37:43Z</time>
      </trkpt>
      <trkpt lat="43.53812" lon="2.42156">
        <ele>549.9</ele>
        <time>2013-03-10T08:37:58Z</time>
      </trkpt>
      <trkpt lat="43.53809" lon="2.42145">
        <ele>549.8</ele>
        <time>2013-03-10T08:38:06Z</time>
      </trkpt>
      <trkpt lat="43.53807" lon="2.42134">
        <ele>549.6</ele>
        <time>2013-03-10T08:38:14Z</time>
      </trkpt>
      <trkpt lat="43.53805" lon="2.42123">
        <ele>549.2</ele>
        <time>2013-03-10T08:38:22Z</time>
      </trkpt>
      <trkpt lat="43.53803" lon="2.42112">
        <ele>549.2</ele>
        <time>2013-03-10T08:38:30Z</time>
      </trkpt>
      <trkpt lat="43.53801" lon="2.42101">
        <ele>548.7</ele>
        <time>2013-03-10T08:38:37Z</time>
      </trkpt>
      <trkpt lat="43.53801" lon="2.4209">
        <ele>549</ele>
        <time>2013-03-10T08:38:44Z</time>
      </trkpt>
      <trkpt lat="43.53801" lon="2.42089">
        <ele>548.9</ele>
        <time>2013-03-10T08:38:45Z</time>
      </trkpt>
      <trkpt lat="43.53793" lon="2.42069">
        <ele>548.2</ele>
        <time>2013-03-10T08:39:01Z</time>
      </trkpt>
      <trkpt lat="43.53789" lon="2.42058">
        <ele>548.4</ele>
        <time>2013-03-10T08:39:10Z</time>
      </trkpt>
      <trkpt lat="43.53785" lon="2.42048">
        <ele>549.1</ele>
        <time>2013-03-10T08:39:16Z</time>
      </trkpt>
      <trkpt lat="43.53782" lon="2.42037">
        <ele>548.4</ele>
        <time>2013-03-10T08:39:23Z</time>
      </trkpt>
      <trkpt lat="43.53778" lon="2.42026">
        <ele>547.7</ele>
        <time>2013-03-10T08:39:30Z</time>
      </trkpt>
      <trkpt lat="43.53775" lon="2.42016">
        <ele>547.9</ele>
        <time>2013-03-10T08:39:37Z</time>
      </trkpt>
      <trkpt lat="43.53771" lon="2.42005">
        <ele>547.5</ele>
        <time>2013-03-10T08:39:44Z</time>
      </trkpt>
      <trkpt lat="43.53768" lon="2.41994">
        <ele>547.5</ele>
        <time>2013-03-10T08:39:51Z</time>
      </trkpt>
      <trkpt lat="43.53767" lon="2.41993">
        <ele>547.1</ele>
        <time>2013-03-10T08:39:52Z</time>
      </trkpt>
      <trkpt lat="43.53761" lon="2.41972">
        <ele>547.3</ele>
        <time>2013-03-10T08:40:05Z</time>
      </trkpt>
      <trkpt lat="43.53757" lon="2.41962">
        <ele>547.2</ele>
        <time>2013-03-10T08:40:12Z</time>
      </trkpt>
      <trkpt lat="43.53754" lon="2.41951">
        <ele>546.5</ele>
        <time>2013-03-10T08:40:19Z</time>
      </trkpt>
      <trkpt lat="43.5375" lon="2.4194">
        <ele>547.2</ele>
        <time>2013-03-10T08:40:26Z</time>
      </trkpt>
      <trkpt lat="43.53747" lon="2.41929">
        <ele>546.2</ele>
        <time>2013-03-10T08:40:33Z</time>
      </trkpt>
      <trkpt lat="43.53743" lon="2.41918">
        <ele>545.8</ele>
        <time>2013-03-10T08:40:40Z</time>
      </trkpt>
      <trkpt lat="43.5374" lon="2.41908">
        <ele>545.7</ele>
        <time>2013-03-10T08:40:47Z</time>
      </trkpt>
      <trkpt lat="43.53738" lon="2.41897">
        <ele>545.9</ele>
        <time>2013-03-10T08:40:54Z</time>
      </trkpt>
      <trkpt lat="43.53738" lon="2.41896">
        <ele>545.9</ele>
        <time>2013-03-10T08:40:55Z</time>
      </trkpt>
      <trkpt lat="43.53733" lon="2.41874">
        <ele>545.9</ele>
        <time>2013-03-10T08:41:10Z</time>
      </trkpt>
      <trkpt lat="43.53732" lon="2.41863">
        <ele>545.6</ele>
        <time>2013-03-10T08:41:17Z</time>
      </trkpt>
      <trkpt lat="43.53729" lon="2.41852">
        <ele>544.5</ele>
        <time>2013-03-10T08:41:25Z</time>
      </trkpt>
      <trkpt lat="43.53727" lon="2.4184">
        <ele>543.6</ele>
        <time>2013-03-10T08:41:37Z</time>
      </trkpt>
      <trkpt lat="43.53724" lon="2.41829">
        <ele>544.1</ele>
        <time>2013-03-10T08:41:45Z</time>
      </trkpt>
      <trkpt lat="43.5372" lon="2.41819">
        <ele>543.4</ele>
        <time>2013-03-10T08:41:53Z</time>
      </trkpt>
      <trkpt lat="43.53719" lon="2.41807">
        <ele>542.8</ele>
        <time>2013-03-10T08:42:00Z</time>
      </trkpt>
      <trkpt lat="43.53718" lon="2.41806">
        <ele>542.5</ele>
        <time>2013-03-10T08:42:01Z</time>
      </trkpt>
      <trkpt lat="43.53711" lon="2.41787">
        <ele>540</ele>
        <time>2013-03-10T08:42:13Z</time>
      </trkpt>
      <trkpt lat="43.53707" lon="2.41778">
        <ele>539.2</ele>
        <time>2013-03-10T08:42:20Z</time>
      </trkpt>
      <trkpt lat="43.53702" lon="2.41768">
        <ele>538.9</ele>
        <time>2013-03-10T08:42:28Z</time>
      </trkpt>
      <trkpt lat="43.53698" lon="2.41759">
        <ele>537.5</ele>
        <time>2013-03-10T08:42:35Z</time>
      </trkpt>
      <trkpt lat="43.53693" lon="2.41749">
        <ele>537.4</ele>
        <time>2013-03-10T08:42:42Z</time>
      </trkpt>
      <trkpt lat="43.5369" lon="2.4174">
        <ele>536.6</ele>
        <time>2013-03-10T08:42:48Z</time>
      </trkpt>
      <trkpt lat="43.53685" lon="2.4173">
        <ele>536.5</ele>
        <time>2013-03-10T08:42:54Z</time>
      </trkpt>
      <trkpt lat="43.53681" lon="2.41719">
        <ele>536.2</ele>
        <time>2013-03-10T08:43:00Z</time>
      </trkpt>
      <trkpt lat="43.53678" lon="2.41708">
        <ele>535</ele>
        <time>2013-03-10T08:43:06Z</time>
      </trkpt>
      <trkpt lat="43.53678" lon="2.41707">
        <ele>535.3</ele>
        <time>2013-03-10T08:43:07Z</time>
      </trkpt>
      <trkpt lat="43.53671" lon="2.41688">
        <ele>535.6</ele>
        <time>2013-03-10T08:43:20Z</time>
      </trkpt>
      <trkpt lat="43.53667" lon="2.41678">
        <ele>535.3</ele>
        <time>2013-03-10T08:43:27Z</time>
      </trkpt>
      <trkpt lat="43.53662" lon="2.41668">
        <ele>534.2</ele>
        <time>2013-03-10T08:43:34Z</time>
      </trkpt>
      <trkpt lat="43.53658" lon="2.41658">
        <ele>534</ele>
        <time>2013-03-10T08:43:41Z</time>
      </trkpt>
      <trkpt lat="43.53654" lon="2.41648">
        <ele>533.9</ele>
        <time>2013-03-10T08:43:47Z</time>
      </trkpt>
      <trkpt lat="43.5365" lon="2.41637">
        <ele>533.6</ele>
        <time>2013-03-10T08:43:54Z</time>
      </trkpt>
      <trkpt lat="43.53646" lon="2.41627">
        <ele>532.3</ele>
        <time>2013-03-10T08:44:00Z</time>
      </trkpt>
      <trkpt lat="43.53643" lon="2.41617">
        <ele>532.8</ele>
        <time>2013-03-10T08:44:06Z</time>
      </trkpt>
      <trkpt lat="43.53639" lon="2.41607">
        <ele>532.2</ele>
        <time>2013-03-10T08:44:12Z</time>
      </trkpt>
      <trkpt lat="43.53638" lon="2.41606">
        <ele>532.3</ele>
        <time>2013-03-10T08:44:13Z</time>
      </trkpt>
      <trkpt lat="43.53631" lon="2.41587">
        <ele>531.2</ele>
        <time>2013-03-10T08:44:26Z</time>
      </trkpt>
      <trkpt lat="43.53627" lon="2.41577">
        <ele>530.4</ele>
        <time>2013-03-10T08:44:33Z</time>
      </trkpt>
      <trkpt lat="43.53622" lon="2.41569">
        <ele>530.3</ele>
        <time>2013-03-10T08:44:39Z</time>
      </trkpt>
      <trkpt lat="43.53616" lon="2.4156">
        <ele>530.8</ele>
        <time>2013-03-10T08:44:46Z</time>
      </trkpt>
      <trkpt lat="43.5361" lon="2.41551">
        <ele>529.9</ele>
        <time>2013-03-10T08:44:53Z</time>
      </trkpt>
      <trkpt lat="43.53603" lon="2.41543">
        <ele>528.4</ele>
        <time>2013-03-10T08:45:01Z</time>
      </trkpt>
      <trkpt lat="43.53596" lon="2.41536">
        <ele>529</ele>
        <time>2013-03-10T08:45:09Z</time>
      </trkpt>
      <trkpt lat="43.5359" lon="2.41529">
        <ele>528.4</ele>
        <time>2013-03-10T08:45:14Z</time>
      </trkpt>
      <trkpt lat="43.53589" lon="2.41528">
        <ele>528.3</ele>
        <time>2013-03-10T08:45:15Z</time>
      </trkpt>
      <trkpt lat="43.53578" lon="2.41514">
        <ele>528.1</ele>
        <time>2013-03-10T08:45:25Z</time>
      </trkpt>
      <trkpt lat="43.53572" lon="2.41506">
        <ele>527</ele>
        <time>2013-03-10T08:45:31Z</time>
      </trkpt>
      <trkpt lat="43.53565" lon="2.41499">
        <ele>526.1</ele>
        <time>2013-03-10T08:45:38Z</time>
      </trkpt>
      <trkpt lat="43.53558" lon="2.41493">
        <ele>524.8</ele>
        <time>2013-03-10T08:45:47Z</time>
      </trkpt>
      <trkpt lat="43.53551" lon="2.41486">
        <ele>524.6</ele>
        <time>2013-03-10T08:45:55Z</time>
      </trkpt>
      <trkpt lat="43.53544" lon="2.41479">
        <ele>522.8</ele>
        <time>2013-03-10T08:46:03Z</time>
      </trkpt>
      <trkpt lat="43.53538" lon="2.41475">
        <ele>522.6</ele>
        <time>2013-03-10T08:46:09Z</time>
      </trkpt>
      <trkpt lat="43.5353" lon="2.41469">
        <ele>522.1</ele>
        <time>2013-03-10T08:46:16Z</time>
      </trkpt>
      <trkpt lat="43.53529" lon="2.41469">
        <ele>522.1</ele>
        <time>2013-03-10T08:46:17Z</time>
      </trkpt>
      <trkpt lat="43.53517" lon="2.41456">
        <ele>521.2</ele>
        <time>2013-03-10T08:46:30Z</time>
      </trkpt>
      <trkpt lat="43.5351" lon="2.41448">
        <ele>520.4</ele>
        <time>2013-03-10T08:46:37Z</time>
      </trkpt>
      <trkpt lat="43.53503" lon="2.41441">
        <ele>520</ele>
        <time>2013-03-10T08:46:44Z</time>
      </trkpt>
      <trkpt lat="43.53497" lon="2.41434">
        <ele>519.6</ele>
        <time>2013-03-10T08:46:51Z</time>
      </trkpt>
      <trkpt lat="43.5349" lon="2.41427">
        <ele>519.6</ele>
        <time>2013-03-10T08:46:58Z</time>
      </trkpt>
      <trkpt lat="43.53484" lon="2.41421">
        <ele>518.4</ele>
        <time>2013-03-10T08:47:05Z</time>
      </trkpt>
      <trkpt lat="43.53476" lon="2.41417">
        <ele>517.7</ele>
        <time>2013-03-10T08:47:13Z</time>
      </trkpt>
      <trkpt lat="43.53468" lon="2.41411">
        <ele>516.3</ele>
        <time>2013-03-10T08:47:21Z</time>
      </trkpt>
      <trkpt lat="43.53467" lon="2.41411">
        <ele>515.9</ele>
        <time>2013-03-10T08:47:22Z</time>
      </trkpt>
      <trkpt lat="43.53452" lon="2.41401">
        <ele>513.9</ele>
        <time>2013-03-10T08:47:35Z</time>
      </trkpt>
      <trkpt lat="43.53446" lon="2.41395">
        <ele>513.3</ele>
        <time>2013-03-10T08:47:42Z</time>
      </trkpt>
      <trkpt lat="43.53444" lon="2.41384">
        <ele>514.1</ele>
        <time>2013-03-10T08:47:49Z</time>
      </trkpt>
      <trkpt lat="43.53441" lon="2.41374">
        <ele>513.7</ele>
        <time>2013-03-10T08:47:56Z</time>
      </trkpt>
      <trkpt lat="43.53433" lon="2.41369">
        <ele>513</ele>
        <time>2013-03-10T08:48:03Z</time>
      </trkpt>
      <trkpt lat="43.53425" lon="2.41365">
        <ele>512.3</ele>
        <time>2013-03-10T08:48:10Z</time>
      </trkpt>
      <trkpt lat="43.53418" lon="2.41361">
        <ele>511.5</ele>
        <time>2013-03-10T08:48:17Z</time>
      </trkpt>
      <trkpt lat="43.53411" lon="2.41356">
        <ele>510.9</ele>
        <time>2013-03-10T08:48:24Z</time>
      </trkpt>
      <trkpt lat="43.5341" lon="2.41355">
        <ele>510.8</ele>
        <time>2013-03-10T08:48:25Z</time>
      </trkpt>
      <trkpt lat="43.53395" lon="2.41355">
        <ele>508.7</ele>
        <time>2013-03-10T08:49:12Z</time>
      </trkpt>
      <trkpt lat="43.53403" lon="2.41352">
        <ele>508.4</ele>
        <time>2013-03-10T08:49:51Z</time>
      </trkpt>
      <trkpt lat="43.53403" lon="2.41352">
        <ele>508.5</ele>
        <time>2013-03-10T08:49:52Z</time>
      </trkpt>
      <trkpt lat="43.53394" lon="2.41353">
        <ele>508.5</ele>
        <time>2013-03-10T08:52:13Z</time>
      </trkpt>
      <trkpt lat="43.53379" lon="2.41345">
        <ele>507.3</ele>
        <time>2013-03-10T08:52:27Z</time>
      </trkpt>
      <trkpt lat="43.53371" lon="2.41341">
        <ele>506.1</ele>
        <time>2013-03-10T08:52:35Z</time>
      </trkpt>
      <trkpt lat="43.53363" lon="2.41336">
        <ele>505.2</ele>
        <time>2013-03-10T08:52:43Z</time>
      </trkpt>
      <trkpt lat="43.53355" lon="2.41331">
        <ele>504.6</ele>
        <time>2013-03-10T08:52:51Z</time>
      </trkpt>
      <trkpt lat="43.53347" lon="2.41328">
        <ele>503.6</ele>
        <time>2013-03-10T08:52:59Z</time>
      </trkpt>
      <trkpt lat="43.53339" lon="2.41325">
        <ele>502.9</ele>
        <time>2013-03-10T08:53:06Z</time>
      </trkpt>
      <trkpt lat="43.53331" lon="2.4132">
        <ele>502.6</ele>
        <time>2013-03-10T08:53:13Z</time>
      </trkpt>
      <trkpt lat="43.5333" lon="2.41319">
        <ele>502.8</ele>
        <time>2013-03-10T08:53:14Z</time>
      </trkpt>
      <trkpt lat="43.53318" lon="2.41309">
        <ele>502.2</ele>
        <time>2013-03-10T08:53:25Z</time>
      </trkpt>
      <trkpt lat="43.53311" lon="2.41302">
        <ele>502.3</ele>
        <time>2013-03-10T08:53:33Z</time>
      </trkpt>
      <trkpt lat="43.53304" lon="2.41295">
        <ele>501.5</ele>
        <time>2013-03-10T08:53:40Z</time>
      </trkpt>
      <trkpt lat="43.53297" lon="2.41288">
        <ele>501.3</ele>
        <time>2013-03-10T08:53:46Z</time>
      </trkpt>
      <trkpt lat="43.5329" lon="2.41284">
        <ele>500.6</ele>
        <time>2013-03-10T08:53:52Z</time>
      </trkpt>
      <trkpt lat="43.53281" lon="2.41285">
        <ele>500.7</ele>
        <time>2013-03-10T08:54:00Z</time>
      </trkpt>
      <trkpt lat="43.53273" lon="2.41286">
        <ele>500.6</ele>
        <time>2013-03-10T08:54:07Z</time>
      </trkpt>
      <trkpt lat="43.53265" lon="2.41284">
        <ele>499</ele>
        <time>2013-03-10T08:54:14Z</time>
      </trkpt>
      <trkpt lat="43.53264" lon="2.41283">
        <ele>498.8</ele>
        <time>2013-03-10T08:54:15Z</time>
      </trkpt>
      <trkpt lat="43.53249" lon="2.41277">
        <ele>498.7</ele>
        <time>2013-03-10T08:54:28Z</time>
      </trkpt>
      <trkpt lat="43.53241" lon="2.41272">
        <ele>498</ele>
        <time>2013-03-10T08:54:35Z</time>
      </trkpt>
      <trkpt lat="43.53234" lon="2.41266">
        <ele>496.3</ele>
        <time>2013-03-10T08:54:41Z</time>
      </trkpt>
      <trkpt lat="43.53226" lon="2.41261">
        <ele>495.8</ele>
        <time>2013-03-10T08:54:48Z</time>
      </trkpt>
      <trkpt lat="43.53218" lon="2.41256">
        <ele>494.7</ele>
        <time>2013-03-10T08:54:55Z</time>
      </trkpt>
      <trkpt lat="43.53211" lon="2.41249">
        <ele>494.3</ele>
        <time>2013-03-10T08:55:04Z</time>
      </trkpt>
      <trkpt lat="43.53203" lon="2.41243">
        <ele>492.7</ele>
        <time>2013-03-10T08:55:14Z</time>
      </trkpt>
      <trkpt lat="43.53198" lon="2.41234">
        <ele>492.4</ele>
        <time>2013-03-10T08:55:21Z</time>
      </trkpt>
      <trkpt lat="43.53197" lon="2.41232">
        <ele>492.5</ele>
        <time>2013-03-10T08:55:22Z</time>
      </trkpt>
      <trkpt lat="43.53194" lon="2.41212">
        <ele>491.1</ele>
        <time>2013-03-10T08:55:36Z</time>
      </trkpt>
      <trkpt lat="43.53197" lon="2.41201">
        <ele>491</ele>
        <time>2013-03-10T08:55:42Z</time>
      </trkpt>
      <trkpt lat="43.53202" lon="2.41191">
        <ele>490.3</ele>
        <time>2013-03-10T08:55:49Z</time>
      </trkpt>
      <trkpt lat="43.53207" lon="2.41183">
        <ele>490.5</ele>
        <time>2013-03-10T08:55:55Z</time>
      </trkpt>
      <trkpt lat="43.53212" lon="2.41174">
        <ele>490.2</ele>
        <time>2013-03-10T08:56:02Z</time>
      </trkpt>
      <trkpt lat="43.53218" lon="2.41166">
        <ele>489.6</ele>
        <time>2013-03-10T08:56:08Z</time>
      </trkpt>
      <trkpt lat="43.53223" lon="2.41158">
        <ele>490</ele>
        <time>2013-03-10T08:56:14Z</time>
      </trkpt>
      <trkpt lat="43.53229" lon="2.4115">
        <ele>490.1</ele>
        <time>2013-03-10T08:56:20Z</time>
      </trkpt>
      <trkpt lat="43.53235" lon="2.41142">
        <ele>490.6</ele>
        <time>2013-03-10T08:56:27Z</time>
      </trkpt>
      <trkpt lat="43.53236" lon="2.41141">
        <ele>490.3</ele>
        <time>2013-03-10T08:56:28Z</time>
      </trkpt>
      <trkpt lat="43.53246" lon="2.41125">
        <ele>488.8</ele>
        <time>2013-03-10T08:56:41Z</time>
      </trkpt>
      <trkpt lat="43.53252" lon="2.41116">
        <ele>488.9</ele>
        <time>2013-03-10T08:56:48Z</time>
      </trkpt>
      <trkpt lat="43.53259" lon="2.41108">
        <ele>487.8</ele>
        <time>2013-03-10T08:56:55Z</time>
      </trkpt>
      <trkpt lat="43.53265" lon="2.41099">
        <ele>485.9</ele>
        <time>2013-03-10T08:57:11Z</time>
      </trkpt>
      <trkpt lat="43.53272" lon="2.41092">
        <ele>486</ele>
        <time>2013-03-10T08:57:18Z</time>
      </trkpt>
      <trkpt lat="43.53279" lon="2.41086">
        <ele>486.2</ele>
        <time>2013-03-10T08:57:25Z</time>
      </trkpt>
      <trkpt lat="43.53285" lon="2.41077">
        <ele>486.3</ele>
        <time>2013-03-10T08:57:34Z</time>
      </trkpt>
      <trkpt lat="43.53286" lon="2.41076">
        <ele>486.6</ele>
        <time>2013-03-10T08:57:35Z</time>
      </trkpt>
      <trkpt lat="43.53297" lon="2.41061">
        <ele>486.2</ele>
        <time>2013-03-10T08:57:50Z</time>
      </trkpt>
      <trkpt lat="43.53303" lon="2.41053">
        <ele>486</ele>
        <time>2013-03-10T08:57:57Z</time>
      </trkpt>
      <trkpt lat="43.53307" lon="2.41044">
        <ele>486.3</ele>
        <time>2013-03-10T08:58:03Z</time>
      </trkpt>
      <trkpt lat="43.53311" lon="2.41033">
        <ele>485.8</ele>
        <time>2013-03-10T08:58:11Z</time>
      </trkpt>
      <trkpt lat="43.53313" lon="2.41022">
        <ele>485</ele>
        <time>2013-03-10T08:58:18Z</time>
      </trkpt>
      <trkpt lat="43.53312" lon="2.41011">
        <ele>486</ele>
        <time>2013-03-10T08:58:26Z</time>
      </trkpt>
      <trkpt lat="43.53311" lon="2.41">
        <ele>485</ele>
        <time>2013-03-10T08:58:33Z</time>
      </trkpt>
      <trkpt lat="43.53311" lon="2.40988">
        <ele>484.4</ele>
        <time>2013-03-10T08:58:40Z</time>
      </trkpt>
      <trkpt lat="43.53311" lon="2.40987">
        <ele>484.1</ele>
        <time>2013-03-10T08:58:41Z</time>
      </trkpt>
      <trkpt lat="43.53306" lon="2.40965">
        <ele>483.3</ele>
        <time>2013-03-10T08:58:56Z</time>
      </trkpt>
      <trkpt lat="43.53305" lon="2.40954">
        <ele>481.7</ele>
        <time>2013-03-10T08:59:04Z</time>
      </trkpt>
      <trkpt lat="43.53305" lon="2.40943">
        <ele>480.3</ele>
        <time>2013-03-10T08:59:10Z</time>
      </trkpt>
      <trkpt lat="43.53302" lon="2.40932">
        <ele>479.3</ele>
        <time>2013-03-10T08:59:17Z</time>
      </trkpt>
      <trkpt lat="43.53299" lon="2.4092">
        <ele>477.6</ele>
        <time>2013-03-10T08:59:26Z</time>
      </trkpt>
      <trkpt lat="43.53298" lon="2.40909">
        <ele>476.5</ele>
        <time>2013-03-10T08:59:33Z</time>
      </trkpt>
      <trkpt lat="43.53297" lon="2.40898">
        <ele>476.2</ele>
        <time>2013-03-10T08:59:40Z</time>
      </trkpt>
      <trkpt lat="43.53298" lon="2.40886">
        <ele>475.2</ele>
        <time>2013-03-10T08:59:48Z</time>
      </trkpt>
      <trkpt lat="43.53298" lon="2.40885">
        <ele>475</ele>
        <time>2013-03-10T08:59:49Z</time>
      </trkpt>
      <trkpt lat="43.53307" lon="2.40868">
        <ele>475.1</ele>
        <time>2013-03-10T09:00:00Z</time>
      </trkpt>
      <trkpt lat="43.53311" lon="2.40858">
        <ele>475.8</ele>
        <time>2013-03-10T09:00:08Z</time>
      </trkpt>
      <trkpt lat="43.53312" lon="2.40846">
        <ele>476.8</ele>
        <time>2013-03-10T09:00:17Z</time>
      </trkpt>
      <trkpt lat="43.53312" lon="2.40834">
        <ele>477.9</ele>
        <time>2013-03-10T09:00:26Z</time>
      </trkpt>
      <trkpt lat="43.53311" lon="2.40822">
        <ele>478.9</ele>
        <time>2013-03-10T09:00:36Z</time>
      </trkpt>
      <trkpt lat="43.53315" lon="2.40813">
        <ele>478.2</ele>
        <time>2013-03-10T09:01:55Z</time>
      </trkpt>
      <trkpt lat="43.53316" lon="2.40811">
        <ele>478.1</ele>
        <time>2013-03-10T09:01:56Z</time>
      </trkpt>
      <trkpt lat="43.53322" lon="2.40792">
        <ele>479.1</ele>
        <time>2013-03-10T09:02:07Z</time>
      </trkpt>
      <trkpt lat="43.53325" lon="2.4078">
        <ele>479.5</ele>
        <time>2013-03-10T09:02:14Z</time>
      </trkpt>
      <trkpt lat="43.53328" lon="2.4077">
        <ele>480.3</ele>
        <time>2013-03-10T09:02:21Z</time>
      </trkpt>
      <trkpt lat="43.53327" lon="2.40758">
        <ele>480.8</ele>
        <time>2013-03-10T09:03:03Z</time>
      </trkpt>
      <trkpt lat="43.53327" lon="2.40757">
        <ele>481</ele>
        <time>2013-03-10T09:03:04Z</time>
      </trkpt>
      <trkpt lat="43.53333" lon="2.40736">
        <ele>481</ele>
        <time>2013-03-10T09:03:18Z</time>
      </trkpt>
      <trkpt lat="43.53336" lon="2.40725">
        <ele>481.6</ele>
        <time>2013-03-10T09:03:24Z</time>
      </trkpt>
      <trkpt lat="43.53339" lon="2.40715">
        <ele>481.1</ele>
        <time>2013-03-10T09:03:30Z</time>
      </trkpt>
      <trkpt lat="43.53343" lon="2.40703">
        <ele>481.1</ele>
        <time>2013-03-10T09:03:36Z</time>
      </trkpt>
      <trkpt lat="43.53347" lon="2.40693">
        <ele>481.8</ele>
        <time>2013-03-10T09:03:42Z</time>
      </trkpt>
      <trkpt lat="43.5335" lon="2.40682">
        <ele>481.4</ele>
        <time>2013-03-10T09:03:48Z</time>
      </trkpt>
      <trkpt lat="43.53354" lon="2.40672">
        <ele>480.9</ele>
        <time>2013-03-10T09:03:55Z</time>
      </trkpt>
      <trkpt lat="43.53357" lon="2.40661">
        <ele>481.5</ele>
        <time>2013-03-10T09:04:02Z</time>
      </trkpt>
      <trkpt lat="43.5336" lon="2.40651">
        <ele>481.8</ele>
        <time>2013-03-10T09:04:09Z</time>
      </trkpt>
      <trkpt lat="43.53361" lon="2.40649">
        <ele>481.7</ele>
        <time>2013-03-10T09:04:10Z</time>
      </trkpt>
      <trkpt lat="43.53367" lon="2.40631">
        <ele>480.9</ele>
        <time>2013-03-10T09:04:23Z</time>
      </trkpt>
      <trkpt lat="43.5337" lon="2.4062">
        <ele>480.7</ele>
        <time>2013-03-10T09:04:30Z</time>
      </trkpt>
      <trkpt lat="43.53374" lon="2.40609">
        <ele>481</ele>
        <time>2013-03-10T09:04:38Z</time>
      </trkpt>
      <trkpt lat="43.53377" lon="2.40599">
        <ele>481.3</ele>
        <time>2013-03-10T09:04:46Z</time>
      </trkpt>
      <trkpt lat="43.5338" lon="2.40589">
        <ele>480.3</ele>
        <time>2013-03-10T09:04:54Z</time>
      </trkpt>
      <trkpt lat="43.53384" lon="2.40579">
        <ele>481.2</ele>
        <time>2013-03-10T09:05:01Z</time>
      </trkpt>
      <trkpt lat="43.53387" lon="2.40569">
        <ele>480.7</ele>
        <time>2013-03-10T09:05:08Z</time>
      </trkpt>
      <trkpt lat="43.5339" lon="2.40558">
        <ele>481.2</ele>
        <time>2013-03-10T09:05:15Z</time>
      </trkpt>
      <trkpt lat="43.5339" lon="2.40556">
        <ele>481</ele>
        <time>2013-03-10T09:05:16Z</time>
      </trkpt>
      <trkpt lat="43.53393" lon="2.40537">
        <ele>480.8</ele>
        <time>2013-03-10T09:05:29Z</time>
      </trkpt>
      <trkpt lat="43.53394" lon="2.40524">
        <ele>480.7</ele>
        <time>2013-03-10T09:05:37Z</time>
      </trkpt>
      <trkpt lat="43.53394" lon="2.40513">
        <ele>480.8</ele>
        <time>2013-03-10T09:05:44Z</time>
      </trkpt>
      <trkpt lat="43.53395" lon="2.40502">
        <ele>480.3</ele>
        <time>2013-03-10T09:05:51Z</time>
      </trkpt>
      <trkpt lat="43.53395" lon="2.4049">
        <ele>480</ele>
        <time>2013-03-10T09:05:58Z</time>
      </trkpt>
      <trkpt lat="43.53395" lon="2.40478">
        <ele>480.8</ele>
        <time>2013-03-10T09:06:06Z</time>
      </trkpt>
      <trkpt lat="43.53395" lon="2.40467">
        <ele>479.7</ele>
        <time>2013-03-10T09:06:13Z</time>
      </trkpt>
      <trkpt lat="43.53396" lon="2.40456">
        <ele>479.9</ele>
        <time>2013-03-10T09:06:20Z</time>
      </trkpt>
      <trkpt lat="43.53396" lon="2.40454">
        <ele>480.1</ele>
        <time>2013-03-10T09:06:21Z</time>
      </trkpt>
      <trkpt lat="43.534" lon="2.40434">
        <ele>479.2</ele>
        <time>2013-03-10T09:06:34Z</time>
      </trkpt>
      <trkpt lat="43.53402" lon="2.40422">
        <ele>479.1</ele>
        <time>2013-03-10T09:06:41Z</time>
      </trkpt>
      <trkpt lat="43.53404" lon="2.4041">
        <ele>479.4</ele>
        <time>2013-03-10T09:06:48Z</time>
      </trkpt>
      <trkpt lat="43.53407" lon="2.40399">
        <ele>477.8</ele>
        <time>2013-03-10T09:06:56Z</time>
      </trkpt>
      <trkpt lat="43.53415" lon="2.40394">
        <ele>477.1</ele>
        <time>2013-03-10T09:07:04Z</time>
      </trkpt>
      <trkpt lat="43.53424" lon="2.40397">
        <ele>477.4</ele>
        <time>2013-03-10T09:07:12Z</time>
      </trkpt>
      <trkpt lat="43.53432" lon="2.40401">
        <ele>477.9</ele>
        <time>2013-03-10T09:07:20Z</time>
      </trkpt>
      <trkpt lat="43.53438" lon="2.40409">
        <ele>478.1</ele>
        <time>2013-03-10T09:07:56Z</time>
      </trkpt>
      <trkpt lat="43.53439" lon="2.4041">
        <ele>478.5</ele>
        <time>2013-03-10T09:07:57Z</time>
      </trkpt>
      <trkpt lat="43.53447" lon="2.40428">
        <ele>478.1</ele>
        <time>2013-03-10T09:08:10Z</time>
      </trkpt>
      <trkpt lat="43.53452" lon="2.40437">
        <ele>478.5</ele>
        <time>2013-03-10T09:08:17Z</time>
      </trkpt>
      <trkpt lat="43.53456" lon="2.40447">
        <ele>479.3</ele>
        <time>2013-03-10T09:08:24Z</time>
      </trkpt>
      <trkpt lat="43.5346" lon="2.40458">
        <ele>479</ele>
        <time>2013-03-10T09:08:32Z</time>
      </trkpt>
      <trkpt lat="43.53465" lon="2.40467">
        <ele>479.1</ele>
        <time>2013-03-10T09:08:38Z</time>
      </trkpt>
      <trkpt lat="43.53468" lon="2.40476">
        <ele>478.8</ele>
        <time>2013-03-10T09:08:44Z</time>
      </trkpt>
      <trkpt lat="43.53473" lon="2.40486">
        <ele>478.9</ele>
        <time>2013-03-10T09:08:49Z</time>
      </trkpt>
      <trkpt lat="43.53477" lon="2.40495">
        <ele>479.2</ele>
        <time>2013-03-10T09:08:55Z</time>
      </trkpt>
      <trkpt lat="43.53481" lon="2.40505">
        <ele>479.1</ele>
        <time>2013-03-10T09:09:02Z</time>
      </trkpt>
      <trkpt lat="43.53482" lon="2.40507">
        <ele>479.2</ele>
        <time>2013-03-10T09:09:03Z</time>
      </trkpt>
      <trkpt lat="43.53488" lon="2.40527">
        <ele>480.2</ele>
        <time>2013-03-10T09:09:16Z</time>
      </trkpt>
      <trkpt lat="43.53493" lon="2.40537">
        <ele>480</ele>
        <time>2013-03-10T09:09:22Z</time>
      </trkpt>
      <trkpt lat="43.53498" lon="2.40544">
        <ele>480.3</ele>
        <time>2013-03-10T09:09:26Z</time>
      </trkpt>
      <trkpt lat="43.53505" lon="2.40552">
        <ele>480.4</ele>
        <time>2013-03-10T09:09:31Z</time>
      </trkpt>
      <trkpt lat="43.53511" lon="2.40559">
        <ele>480.8</ele>
        <time>2013-03-10T09:09:37Z</time>
      </trkpt>
      <trkpt lat="43.53516" lon="2.40567">
        <ele>480.5</ele>
        <time>2013-03-10T09:09:44Z</time>
      </trkpt>
      <trkpt lat="43.53522" lon="2.40576">
        <ele>479.9</ele>
        <time>2013-03-10T09:09:51Z</time>
      </trkpt>
      <trkpt lat="43.53527" lon="2.40584">
        <ele>480.2</ele>
        <time>2013-03-10T09:09:59Z</time>
      </trkpt>
      <trkpt lat="43.53531" lon="2.40594">
        <ele>480.6</ele>
        <time>2013-03-10T09:10:07Z</time>
      </trkpt>
      <trkpt lat="43.53532" lon="2.40595">
        <ele>480.8</ele>
        <time>2013-03-10T09:10:08Z</time>
      </trkpt>
      <trkpt lat="43.5354" lon="2.40613">
        <ele>481.7</ele>
        <time>2013-03-10T09:10:22Z</time>
      </trkpt>
      <trkpt lat="43.53544" lon="2.40624">
        <ele>481.6</ele>
        <time>2013-03-10T09:10:29Z</time>
      </trkpt>
      <trkpt lat="43.53548" lon="2.40634">
        <ele>481.5</ele>
        <time>2013-03-10T09:10:40Z</time>
      </trkpt>
      <trkpt lat="43.53552" lon="2.40645">
        <ele>482.3</ele>
        <time>2013-03-10T09:10:48Z</time>
      </trkpt>
      <trkpt lat="43.53555" lon="2.40656">
        <ele>482.1</ele>
        <time>2013-03-10T09:10:56Z</time>
      </trkpt>
      <trkpt lat="43.53558" lon="2.40667">
        <ele>481.8</ele>
        <time>2013-03-10T09:11:04Z</time>
      </trkpt>
      <trkpt lat="43.53562" lon="2.40676">
        <ele>482.8</ele>
        <time>2013-03-10T09:11:11Z</time>
      </trkpt>
      <trkpt lat="43.53563" lon="2.40678">
        <ele>482.9</ele>
        <time>2013-03-10T09:11:12Z</time>
      </trkpt>
      <trkpt lat="43.53574" lon="2.40693">
        <ele>483</ele>
        <time>2013-03-10T09:11:24Z</time>
      </trkpt>
      <trkpt lat="43.53582" lon="2.40698">
        <ele>482.8</ele>
        <time>2013-03-10T09:11:33Z</time>
      </trkpt>
      <trkpt lat="43.53589" lon="2.40692">
        <ele>483.6</ele>
        <time>2013-03-10T09:11:42Z</time>
      </trkpt>
      <trkpt lat="43.53596" lon="2.40684">
        <ele>483.5</ele>
        <time>2013-03-10T09:11:53Z</time>
      </trkpt>
      <trkpt lat="43.53604" lon="2.40682">
        <ele>483.1</ele>
        <time>2013-03-10T09:13:27Z</time>
      </trkpt>
      <trkpt lat="43.53605" lon="2.40682">
        <ele>482.7</ele>
        <time>2013-03-10T09:13:28Z</time>
      </trkpt>
      <trkpt lat="43.53613" lon="2.40662">
        <ele>482.3</ele>
        <time>2013-03-10T09:13:55Z</time>
      </trkpt>
      <trkpt lat="43.53619" lon="2.40654">
        <ele>481.4</ele>
        <time>2013-03-10T09:14:02Z</time>
      </trkpt>
      <trkpt lat="43.53627" lon="2.4065">
        <ele>482.4</ele>
        <time>2013-03-10T09:14:08Z</time>
      </trkpt>
      <trkpt lat="43.53635" lon="2.40652">
        <ele>481.9</ele>
        <time>2013-03-10T09:14:14Z</time>
      </trkpt>
      <trkpt lat="43.53643" lon="2.40654">
        <ele>481.8</ele>
        <time>2013-03-10T09:14:20Z</time>
      </trkpt>
      <trkpt lat="43.53652" lon="2.40655">
        <ele>482.1</ele>
        <time>2013-03-10T09:14:27Z</time>
      </trkpt>
      <trkpt lat="43.5366" lon="2.40652">
        <ele>482</ele>
        <time>2013-03-10T09:14:35Z</time>
      </trkpt>
      <trkpt lat="43.53661" lon="2.40651">
        <ele>482.1</ele>
        <time>2013-03-10T09:14:36Z</time>
      </trkpt>
      <trkpt lat="43.53676" lon="2.40644">
        <ele>483.7</ele>
        <time>2013-03-10T09:14:56Z</time>
      </trkpt>
      <trkpt lat="43.53684" lon="2.4064">
        <ele>485.3</ele>
        <time>2013-03-10T09:15:02Z</time>
      </trkpt>
      <trkpt lat="43.53692" lon="2.40635">
        <ele>485.2</ele>
        <time>2013-03-10T09:15:07Z</time>
      </trkpt>
      <trkpt lat="43.537" lon="2.4063">
        <ele>486.1</ele>
        <time>2013-03-10T09:15:12Z</time>
      </trkpt>
      <trkpt lat="43.53706" lon="2.40626">
        <ele>486.6</ele>
        <time>2013-03-10T09:15:17Z</time>
      </trkpt>
      <trkpt lat="43.53714" lon="2.40622">
        <ele>487.1</ele>
        <time>2013-03-10T09:15:22Z</time>
      </trkpt>
      <trkpt lat="43.53721" lon="2.40619">
        <ele>486.7</ele>
        <time>2013-03-10T09:15:27Z</time>
      </trkpt>
      <trkpt lat="43.5373" lon="2.40616">
        <ele>487.3</ele>
        <time>2013-03-10T09:15:33Z</time>
      </trkpt>
      <trkpt lat="43.53738" lon="2.40613">
        <ele>488.7</ele>
        <time>2013-03-10T09:15:39Z</time>
      </trkpt>
      <trkpt lat="43.5374" lon="2.40612">
        <ele>488.6</ele>
        <time>2013-03-10T09:15:40Z</time>
      </trkpt>
      <trkpt lat="43.53754" lon="2.40607">
        <ele>489.2</ele>
        <time>2013-03-10T09:15:50Z</time>
      </trkpt>
      <trkpt lat="43.53762" lon="2.40603">
        <ele>489.3</ele>
        <time>2013-03-10T09:15:56Z</time>
      </trkpt>
      <trkpt lat="43.53771" lon="2.406">
        <ele>489.1</ele>
        <time>2013-03-10T09:16:03Z</time>
      </trkpt>
      <trkpt lat="43.53779" lon="2.40597">
        <ele>489.8</ele>
        <time>2013-03-10T09:16:10Z</time>
      </trkpt>
      <trkpt lat="43.53787" lon="2.40594">
        <ele>489.3</ele>
        <time>2013-03-10T09:16:16Z</time>
      </trkpt>
      <trkpt lat="43.53796" lon="2.40593">
        <ele>489.3</ele>
        <time>2013-03-10T09:16:22Z</time>
      </trkpt>
      <trkpt lat="43.53804" lon="2.40593">
        <ele>488.9</ele>
        <time>2013-03-10T09:16:28Z</time>
      </trkpt>
      <trkpt lat="43.53811" lon="2.40591">
        <ele>489.1</ele>
        <time>2013-03-10T09:16:32Z</time>
      </trkpt>
      <trkpt lat="43.53819" lon="2.40588">
        <ele>488.2</ele>
        <time>2013-03-10T09:16:36Z</time>
      </trkpt>
      <trkpt lat="43.53827" lon="2.40586">
        <ele>486.7</ele>
        <time>2013-03-10T09:16:40Z</time>
      </trkpt>
      <trkpt lat="43.53829" lon="2.40586">
        <ele>486.7</ele>
        <time>2013-03-10T09:16:41Z</time>
      </trkpt>
      <trkpt lat="43.53844" lon="2.40585">
        <ele>487.1</ele>
        <time>2013-03-10T09:16:50Z</time>
      </trkpt>
      <trkpt lat="43.53853" lon="2.40585">
        <ele>486.7</ele>
        <time>2013-03-10T09:16:57Z</time>
      </trkpt>
      <trkpt lat="43.53861" lon="2.40585">
        <ele>487</ele>
        <time>2013-03-10T09:17:04Z</time>
      </trkpt>
      <trkpt lat="43.5387" lon="2.40584">
        <ele>486.9</ele>
        <time>2013-03-10T09:17:11Z</time>
      </trkpt>
      <trkpt lat="43.53878" lon="2.40582">
        <ele>488.1</ele>
        <time>2013-03-10T09:17:17Z</time>
      </trkpt>
      <trkpt lat="43.53885" lon="2.4058">
        <ele>488.6</ele>
        <time>2013-03-10T09:17:22Z</time>
      </trkpt>
      <trkpt lat="43.53894" lon="2.40578">
        <ele>489.5</ele>
        <time>2013-03-10T09:17:29Z</time>
      </trkpt>
      <trkpt lat="43.53902" lon="2.40573">
        <ele>489.8</ele>
        <time>2013-03-10T09:17:36Z</time>
      </trkpt>
      <trkpt lat="43.53909" lon="2.40568">
        <ele>489.3</ele>
        <time>2013-03-10T09:17:42Z</time>
      </trkpt>
      <trkpt lat="43.5391" lon="2.40567">
        <ele>489.5</ele>
        <time>2013-03-10T09:17:43Z</time>
      </trkpt>
      <trkpt lat="43.53924" lon="2.40557">
        <ele>491.7</ele>
        <time>2013-03-10T09:17:58Z</time>
      </trkpt>
      <trkpt lat="43.53932" lon="2.40554">
        <ele>491.2</ele>
        <time>2013-03-10T09:18:05Z</time>
      </trkpt>
      <trkpt lat="43.5394" lon="2.40552">
        <ele>492.2</ele>
        <time>2013-03-10T09:18:11Z</time>
      </trkpt>
      <trkpt lat="43.53949" lon="2.4055">
        <ele>493.1</ele>
        <time>2013-03-10T09:18:17Z</time>
      </trkpt>
      <trkpt lat="43.53956" lon="2.4055">
        <ele>493.7</ele>
        <time>2013-03-10T09:18:23Z</time>
      </trkpt>
      <trkpt lat="43.53965" lon="2.4055">
        <ele>494.4</ele>
        <time>2013-03-10T09:18:30Z</time>
      </trkpt>
      <trkpt lat="43.53973" lon="2.4055">
        <ele>494.2</ele>
        <time>2013-03-10T09:18:37Z</time>
      </trkpt>
      <trkpt lat="43.53982" lon="2.4055">
        <ele>494.4</ele>
        <time>2013-03-10T09:18:44Z</time>
      </trkpt>
      <trkpt lat="43.53983" lon="2.4055">
        <ele>494.4</ele>
        <time>2013-03-10T09:18:45Z</time>
      </trkpt>
      <trkpt lat="43.53998" lon="2.40557">
        <ele>494.5</ele>
        <time>2013-03-10T09:18:59Z</time>
      </trkpt>
      <trkpt lat="43.54006" lon="2.40562">
        <ele>493.8</ele>
        <time>2013-03-10T09:19:06Z</time>
      </trkpt>
      <trkpt lat="43.54013" lon="2.40568">
        <ele>492.9</ele>
        <time>2013-03-10T09:19:13Z</time>
      </trkpt>
      <trkpt lat="43.5402" lon="2.40575">
        <ele>492.8</ele>
        <time>2013-03-10T09:19:21Z</time>
      </trkpt>
      <trkpt lat="43.54028" lon="2.4058">
        <ele>491.3</ele>
        <time>2013-03-10T09:19:31Z</time>
      </trkpt>
      <trkpt lat="43.54036" lon="2.4058">
        <ele>491.6</ele>
        <time>2013-03-10T09:19:40Z</time>
      </trkpt>
      <trkpt lat="43.54045" lon="2.40575">
        <ele>490.8</ele>
        <time>2013-03-10T09:19:51Z</time>
      </trkpt>
      <trkpt lat="43.54045" lon="2.40575">
        <ele>490.6</ele>
        <time>2013-03-10T09:19:52Z</time>
      </trkpt>
      <trkpt lat="43.54061" lon="2.40567">
        <ele>490.8</ele>
        <time>2013-03-10T09:20:08Z</time>
      </trkpt>
      <trkpt lat="43.54069" lon="2.40563">
        <ele>489</ele>
        <time>2013-03-10T09:20:16Z</time>
      </trkpt>
      <trkpt lat="43.54077" lon="2.40559">
        <ele>489</ele>
        <time>2013-03-10T09:20:25Z</time>
      </trkpt>
      <trkpt lat="43.54084" lon="2.40553">
        <ele>487.6</ele>
        <time>2013-03-10T09:20:35Z</time>
      </trkpt>
      <trkpt lat="43.54091" lon="2.40547">
        <ele>486</ele>
        <time>2013-03-10T09:20:44Z</time>
      </trkpt>
      <trkpt lat="43.54099" lon="2.40542">
        <ele>484.9</ele>
        <time>2013-03-10T09:20:54Z</time>
      </trkpt>
      <trkpt lat="43.541" lon="2.40542">
        <ele>485.1</ele>
        <time>2013-03-10T09:20:55Z</time>
      </trkpt>
      <trkpt lat="43.54116" lon="2.40537">
        <ele>484.1</ele>
        <time>2013-03-10T09:21:08Z</time>
      </trkpt>
      <trkpt lat="43.54124" lon="2.40537">
        <ele>482.4</ele>
        <time>2013-03-10T09:21:15Z</time>
      </trkpt>
      <trkpt lat="43.54132" lon="2.40539">
        <ele>482.6</ele>
        <time>2013-03-10T09:21:24Z</time>
      </trkpt>
      <trkpt lat="43.54141" lon="2.40538">
        <ele>481.7</ele>
        <time>2013-03-10T09:21:32Z</time>
      </trkpt>
      <trkpt lat="43.5415" lon="2.40537">
        <ele>482</ele>
        <time>2013-03-10T09:21:40Z</time>
      </trkpt>
      <trkpt lat="43.54157" lon="2.40531">
        <ele>481.4</ele>
        <time>2013-03-10T09:21:48Z</time>
      </trkpt>
      <trkpt lat="43.54162" lon="2.40521">
        <ele>480.7</ele>
        <time>2013-03-10T09:21:56Z</time>
      </trkpt>
      <trkpt lat="43.54162" lon="2.4052">
        <ele>480.9</ele>
        <time>2013-03-10T09:21:57Z</time>
      </trkpt>
      <trkpt lat="43.54176" lon="2.40513">
        <ele>483.3</ele>
        <time>2013-03-10T09:22:20Z</time>
      </trkpt>
      <trkpt lat="43.54184" lon="2.40513">
        <ele>485.8</ele>
        <time>2013-03-10T09:22:29Z</time>
      </trkpt>
      <trkpt lat="43.54192" lon="2.40517">
        <ele>486.7</ele>
        <time>2013-03-10T09:22:39Z</time>
      </trkpt>
      <trkpt lat="43.54197" lon="2.40527">
        <ele>488.2</ele>
        <time>2013-03-10T09:22:51Z</time>
      </trkpt>
      <trkpt lat="43.54204" lon="2.40535">
        <ele>489.8</ele>
        <time>2013-03-10T09:23:03Z</time>
      </trkpt>
      <trkpt lat="43.54205" lon="2.40535">
        <ele>489.9</ele>
        <time>2013-03-10T09:23:04Z</time>
      </trkpt>
      <trkpt lat="43.54203" lon="2.40514">
        <ele>492.5</ele>
        <time>2013-03-10T09:23:23Z</time>
      </trkpt>
      <trkpt lat="43.542" lon="2.40503">
        <ele>492.9</ele>
        <time>2013-03-10T09:23:31Z</time>
      </trkpt>
      <trkpt lat="43.54195" lon="2.40493">
        <ele>493.8</ele>
        <time>2013-03-10T09:23:40Z</time>
      </trkpt>
      <trkpt lat="43.54192" lon="2.40483">
        <ele>494.5</ele>
        <time>2013-03-10T09:23:47Z</time>
      </trkpt>
      <trkpt lat="43.54188" lon="2.40474">
        <ele>494.5</ele>
        <time>2013-03-10T09:23:53Z</time>
      </trkpt>
      <trkpt lat="43.54183" lon="2.40465">
        <ele>494.2</ele>
        <time>2013-03-10T09:23:59Z</time>
      </trkpt>
      <trkpt lat="43.5418" lon="2.40455">
        <ele>494.4</ele>
        <time>2013-03-10T09:24:05Z</time>
      </trkpt>
      <trkpt lat="43.54179" lon="2.40453">
        <ele>494.5</ele>
        <time>2013-03-10T09:24:06Z</time>
      </trkpt>
      <trkpt lat="43.54171" lon="2.40436">
        <ele>496.1</ele>
        <time>2013-03-10T09:24:18Z</time>
      </trkpt>
      <trkpt lat="43.54168" lon="2.40426">
        <ele>496.7</ele>
        <time>2013-03-10T09:24:25Z</time>
      </trkpt>
      <trkpt lat="43.54163" lon="2.40417">
        <ele>496.9</ele>
        <time>2013-03-10T09:24:33Z</time>
      </trkpt>
      <trkpt lat="43.5416" lon="2.40406">
        <ele>497.1</ele>
        <time>2013-03-10T09:24:42Z</time>
      </trkpt>
      <trkpt lat="43.54158" lon="2.40395">
        <ele>497.3</ele>
        <time>2013-03-10T09:24:50Z</time>
      </trkpt>
      <trkpt lat="43.54156" lon="2.40383">
        <ele>497.6</ele>
        <time>2013-03-10T09:24:58Z</time>
      </trkpt>
      <trkpt lat="43.54153" lon="2.40372">
        <ele>497.5</ele>
        <time>2013-03-10T09:25:06Z</time>
      </trkpt>
      <trkpt lat="43.54153" lon="2.4037">
        <ele>497.6</ele>
        <time>2013-03-10T09:25:07Z</time>
      </trkpt>
      <trkpt lat="43.54149" lon="2.4035">
        <ele>496.8</ele>
        <time>2013-03-10T09:25:31Z</time>
      </trkpt>
      <trkpt lat="43.54146" lon="2.40338">
        <ele>496.4</ele>
        <time>2013-03-10T09:25:39Z</time>
      </trkpt>
      <trkpt lat="43.54144" lon="2.40328">
        <ele>495.1</ele>
        <time>2013-03-10T09:25:45Z</time>
      </trkpt>
      <trkpt lat="43.54141" lon="2.40317">
        <ele>496.4</ele>
        <time>2013-03-10T09:25:51Z</time>
      </trkpt>
      <trkpt lat="43.54139" lon="2.40306">
        <ele>495.4</ele>
        <time>2013-03-10T09:25:57Z</time>
      </trkpt>
      <trkpt lat="43.54137" lon="2.40295">
        <ele>495.4</ele>
        <time>2013-03-10T09:26:03Z</time>
      </trkpt>
      <trkpt lat="43.54134" lon="2.40285">
        <ele>495.8</ele>
        <time>2013-03-10T09:26:10Z</time>
      </trkpt>
      <trkpt lat="43.54133" lon="2.40284">
        <ele>495.5</ele>
        <time>2013-03-10T09:26:11Z</time>
      </trkpt>
      <trkpt lat="43.54129" lon="2.40263">
        <ele>493.8</ele>
        <time>2013-03-10T09:26:23Z</time>
      </trkpt>
      <trkpt lat="43.54126" lon="2.40252">
        <ele>494.1</ele>
        <time>2013-03-10T09:26:29Z</time>
      </trkpt>
      <trkpt lat="43.54123" lon="2.40241">
        <ele>494.3</ele>
        <time>2013-03-10T09:26:36Z</time>
      </trkpt>
      <trkpt lat="43.5412" lon="2.4023">
        <ele>493.9</ele>
        <time>2013-03-10T09:26:43Z</time>
      </trkpt>
      <trkpt lat="43.54117" lon="2.40218">
        <ele>493.9</ele>
        <time>2013-03-10T09:26:50Z</time>
      </trkpt>
      <trkpt lat="43.54115" lon="2.40207">
        <ele>493.3</ele>
        <time>2013-03-10T09:26:57Z</time>
      </trkpt>
      <trkpt lat="43.54112" lon="2.40195">
        <ele>492.5</ele>
        <time>2013-03-10T09:27:04Z</time>
      </trkpt>
      <trkpt lat="43.5411" lon="2.40184">
        <ele>492.7</ele>
        <time>2013-03-10T09:27:11Z</time>
      </trkpt>
      <trkpt lat="43.5411" lon="2.40183">
        <ele>492.3</ele>
        <time>2013-03-10T09:27:12Z</time>
      </trkpt>
      <trkpt lat="43.54116" lon="2.40172">
        <ele>492.5</ele>
        <time>2013-03-10T09:27:28Z</time>
      </trkpt>
      <trkpt lat="43.54124" lon="2.40179">
        <ele>492.1</ele>
        <time>2013-03-10T09:27:36Z</time>
      </trkpt>
      <trkpt lat="43.54131" lon="2.40185">
        <ele>493.2</ele>
        <time>2013-03-10T09:27:44Z</time>
      </trkpt>
      <trkpt lat="43.54138" lon="2.40191">
        <ele>492.9</ele>
        <time>2013-03-10T09:27:52Z</time>
      </trkpt>
      <trkpt lat="43.54145" lon="2.40197">
        <ele>493.6</ele>
        <time>2013-03-10T09:28:00Z</time>
      </trkpt>
      <trkpt lat="43.54152" lon="2.40203">
        <ele>493.7</ele>
        <time>2013-03-10T09:28:07Z</time>
      </trkpt>
      <trkpt lat="43.54159" lon="2.4021">
        <ele>494.4</ele>
        <time>2013-03-10T09:28:15Z</time>
      </trkpt>
      <trkpt lat="43.5416" lon="2.4021">
        <ele>494.2</ele>
        <time>2013-03-10T09:28:16Z</time>
      </trkpt>
      <trkpt lat="43.54174" lon="2.40221">
        <ele>496.7</ele>
        <time>2013-03-10T09:28:34Z</time>
      </trkpt>
      <trkpt lat="43.54182" lon="2.40227">
        <ele>496.9</ele>
        <time>2013-03-10T09:28:43Z</time>
      </trkpt>
      <trkpt lat="43.54189" lon="2.40232">
        <ele>497.7</ele>
        <time>2013-03-10T09:28:52Z</time>
      </trkpt>
      <trkpt lat="43.54197" lon="2.40237">
        <ele>497.1</ele>
        <time>2013-03-10T09:29:36Z</time>
      </trkpt>
      <trkpt lat="43.54198" lon="2.40238">
        <ele>496.9</ele>
        <time>2013-03-10T09:29:37Z</time>
      </trkpt>
      <trkpt lat="43.54211" lon="2.40249">
        <ele>498.7</ele>
        <time>2013-03-10T09:29:50Z</time>
      </trkpt>
      <trkpt lat="43.54219" lon="2.40254">
        <ele>500.1</ele>
        <time>2013-03-10T09:29:57Z</time>
      </trkpt>
      <trkpt lat="43.54226" lon="2.40259">
        <ele>500.4</ele>
        <time>2013-03-10T09:30:04Z</time>
      </trkpt>
      <trkpt lat="43.54232" lon="2.40265">
        <ele>500.6</ele>
        <time>2013-03-10T09:30:11Z</time>
      </trkpt>
      <trkpt lat="43.54239" lon="2.40272">
        <ele>501.4</ele>
        <time>2013-03-10T09:30:18Z</time>
      </trkpt>
      <trkpt lat="43.54246" lon="2.40278">
        <ele>501.9</ele>
        <time>2013-03-10T09:30:25Z</time>
      </trkpt>
      <trkpt lat="43.54253" lon="2.40284">
        <ele>502.5</ele>
        <time>2013-03-10T09:30:32Z</time>
      </trkpt>
      <trkpt lat="43.5426" lon="2.40291">
        <ele>502.9</ele>
        <time>2013-03-10T09:30:39Z</time>
      </trkpt>
      <trkpt lat="43.54261" lon="2.40292">
        <ele>502.8</ele>
        <time>2013-03-10T09:30:40Z</time>
      </trkpt>
      <trkpt lat="43.54274" lon="2.40303">
        <ele>504.1</ele>
        <time>2013-03-10T09:30:53Z</time>
      </trkpt>
      <trkpt lat="43.54282" lon="2.40307">
        <ele>504.7</ele>
        <time>2013-03-10T09:31:00Z</time>
      </trkpt>
      <trkpt lat="43.54289" lon="2.40312">
        <ele>505.1</ele>
        <time>2013-03-10T09:31:07Z</time>
      </trkpt>
      <trkpt lat="43.54296" lon="2.40318">
        <ele>505.9</ele>
        <time>2013-03-10T09:31:14Z</time>
      </trkpt>
      <trkpt lat="43.54304" lon="2.40323">
        <ele>506.4</ele>
        <time>2013-03-10T09:31:21Z</time>
      </trkpt>
      <trkpt lat="43.54312" lon="2.40328">
        <ele>507.1</ele>
        <time>2013-03-10T09:31:29Z</time>
      </trkpt>
      <trkpt lat="43.54319" lon="2.40332">
        <ele>507.9</ele>
        <time>2013-03-10T09:31:38Z</time>
      </trkpt>
      <trkpt lat="43.54327" lon="2.40338">
        <ele>508.4</ele>
        <time>2013-03-10T09:31:47Z</time>
      </trkpt>
      <trkpt lat="43.54328" lon="2.40338">
        <ele>508.3</ele>
        <time>2013-03-10T09:31:48Z</time>
      </trkpt>
      <trkpt lat="43.54342" lon="2.40349">
        <ele>509.4</ele>
        <time>2013-03-10T09:32:03Z</time>
      </trkpt>
      <trkpt lat="43.5435" lon="2.40355">
        <ele>510.5</ele>
        <time>2013-03-10T09:32:12Z</time>
      </trkpt>
      <trkpt lat="43.54357" lon="2.40361">
        <ele>511.2</ele>
        <time>2013-03-10T09:32:21Z</time>
      </trkpt>
      <trkpt lat="43.54365" lon="2.40365">
        <ele>512.1</ele>
        <time>2013-03-10T09:32:29Z</time>
      </trkpt>
      <trkpt lat="43.54372" lon="2.4037">
        <ele>513</ele>
        <time>2013-03-10T09:32:37Z</time>
      </trkpt>
      <trkpt lat="43.54379" lon="2.40378">
        <ele>513.9</ele>
        <time>2013-03-10T09:32:45Z</time>
      </trkpt>
      <trkpt lat="43.54386" lon="2.40383">
        <ele>513.6</ele>
        <time>2013-03-10T09:32:51Z</time>
      </trkpt>
      <trkpt lat="43.54387" lon="2.40384">
        <ele>513.5</ele>
        <time>2013-03-10T09:32:52Z</time>
      </trkpt>
      <trkpt lat="43.54401" lon="2.40393">
        <ele>514</ele>
        <time>2013-03-10T09:33:05Z</time>
      </trkpt>
      <trkpt lat="43.54409" lon="2.40399">
        <ele>514</ele>
        <time>2013-03-10T09:33:12Z</time>
      </trkpt>
      <trkpt lat="43.54416" lon="2.40403">
        <ele>514.4</ele>
        <time>2013-03-10T09:33:18Z</time>
      </trkpt>
      <trkpt lat="43.54424" lon="2.40407">
        <ele>514.8</ele>
        <time>2013-03-10T09:33:24Z</time>
      </trkpt>
      <trkpt lat="43.54431" lon="2.40412">
        <ele>515.9</ele>
        <time>2013-03-10T09:33:30Z</time>
      </trkpt>
      <trkpt lat="43.54439" lon="2.40416">
        <ele>515.8</ele>
        <time>2013-03-10T09:33:36Z</time>
      </trkpt>
      <trkpt lat="43.54446" lon="2.40421">
        <ele>516.5</ele>
        <time>2013-03-10T09:33:42Z</time>
      </trkpt>
      <trkpt lat="43.54454" lon="2.40425">
        <ele>516.4</ele>
        <time>2013-03-10T09:33:48Z</time>
      </trkpt>
      <trkpt lat="43.54462" lon="2.4043">
        <ele>516.4</ele>
        <time>2013-03-10T09:33:55Z</time>
      </trkpt>
      <trkpt lat="43.54463" lon="2.40431">
        <ele>516.3</ele>
        <time>2013-03-10T09:33:56Z</time>
      </trkpt>
      <trkpt lat="43.54478" lon="2.40439">
        <ele>516.4</ele>
        <time>2013-03-10T09:34:08Z</time>
      </trkpt>
      <trkpt lat="43.54486" lon="2.40443">
        <ele>516.9</ele>
        <time>2013-03-10T09:34:15Z</time>
      </trkpt>
      <trkpt lat="43.54493" lon="2.40446">
        <ele>517.5</ele>
        <time>2013-03-10T09:34:21Z</time>
      </trkpt>
      <trkpt lat="43.54502" lon="2.40449">
        <ele>517.5</ele>
        <time>2013-03-10T09:34:27Z</time>
      </trkpt>
      <trkpt lat="43.5451" lon="2.40446">
        <ele>518.2</ele>
        <time>2013-03-10T09:34:34Z</time>
      </trkpt>
      <trkpt lat="43.54519" lon="2.40445">
        <ele>518.4</ele>
        <time>2013-03-10T09:34:40Z</time>
      </trkpt>
      <trkpt lat="43.54527" lon="2.40446">
        <ele>517.9</ele>
        <time>2013-03-10T09:34:46Z</time>
      </trkpt>
      <trkpt lat="43.54535" lon="2.40448">
        <ele>518.6</ele>
        <time>2013-03-10T09:34:52Z</time>
      </trkpt>
      <trkpt lat="43.54543" lon="2.4045">
        <ele>519.4</ele>
        <time>2013-03-10T09:34:58Z</time>
      </trkpt>
      <trkpt lat="43.54544" lon="2.40451">
        <ele>519.8</ele>
        <time>2013-03-10T09:34:59Z</time>
      </trkpt>
      <trkpt lat="43.54558" lon="2.40456">
        <ele>519.7</ele>
        <time>2013-03-10T09:35:10Z</time>
      </trkpt>
      <trkpt lat="43.54566" lon="2.40458">
        <ele>520.6</ele>
        <time>2013-03-10T09:35:16Z</time>
      </trkpt>
      <trkpt lat="43.54574" lon="2.4046">
        <ele>521</ele>
        <time>2013-03-10T09:35:22Z</time>
      </trkpt>
      <trkpt lat="43.54581" lon="2.40464">
        <ele>521.1</ele>
        <time>2013-03-10T09:35:28Z</time>
      </trkpt>
      <trkpt lat="43.54589" lon="2.40468">
        <ele>521.6</ele>
        <time>2013-03-10T09:35:34Z</time>
      </trkpt>
      <trkpt lat="43.54597" lon="2.4047">
        <ele>522.4</ele>
        <time>2013-03-10T09:35:40Z</time>
      </trkpt>
      <trkpt lat="43.54605" lon="2.40472">
        <ele>522.8</ele>
        <time>2013-03-10T09:35:46Z</time>
      </trkpt>
      <trkpt lat="43.54613" lon="2.40474">
        <ele>522.4</ele>
        <time>2013-03-10T09:35:52Z</time>
      </trkpt>
      <trkpt lat="43.54622" lon="2.40477">
        <ele>523.1</ele>
        <time>2013-03-10T09:35:59Z</time>
      </trkpt>
      <trkpt lat="43.54623" lon="2.40477">
        <ele>523.5</ele>
        <time>2013-03-10T09:36:00Z</time>
      </trkpt>
      <trkpt lat="43.54639" lon="2.40482">
        <ele>523.3</ele>
        <time>2013-03-10T09:36:12Z</time>
      </trkpt>
      <trkpt lat="43.54646" lon="2.40485">
        <ele>525</ele>
        <time>2013-03-10T09:36:18Z</time>
      </trkpt>
      <trkpt lat="43.54655" lon="2.40489">
        <ele>524.5</ele>
        <time>2013-03-10T09:36:25Z</time>
      </trkpt>
      <trkpt lat="43.54663" lon="2.40491">
        <ele>524.6</ele>
        <time>2013-03-10T09:36:31Z</time>
      </trkpt>
      <trkpt lat="43.54671" lon="2.40493">
        <ele>524.6</ele>
        <time>2013-03-10T09:36:36Z</time>
      </trkpt>
      <trkpt lat="43.5468" lon="2.40495">
        <ele>524.9</ele>
        <time>2013-03-10T09:36:42Z</time>
      </trkpt>
      <trkpt lat="43.54688" lon="2.40495">
        <ele>525.8</ele>
        <time>2013-03-10T09:36:48Z</time>
      </trkpt>
      <trkpt lat="43.54696" lon="2.40495">
        <ele>525.6</ele>
        <time>2013-03-10T09:36:54Z</time>
      </trkpt>
      <trkpt lat="43.54704" lon="2.40495">
        <ele>526</ele>
        <time>2013-03-10T09:37:00Z</time>
      </trkpt>
      <trkpt lat="43.54706" lon="2.40496">
        <ele>526.1</ele>
        <time>2013-03-10T09:37:01Z</time>
      </trkpt>
      <trkpt lat="43.54721" lon="2.40496">
        <ele>526.7</ele>
        <time>2013-03-10T09:37:13Z</time>
      </trkpt>
      <trkpt lat="43.5473" lon="2.40496">
        <ele>528.5</ele>
        <time>2013-03-10T09:37:27Z</time>
      </trkpt>
      <trkpt lat="43.54739" lon="2.40496">
        <ele>529.5</ele>
        <time>2013-03-10T09:37:34Z</time>
      </trkpt>
      <trkpt lat="43.54747" lon="2.40496">
        <ele>529.5</ele>
        <time>2013-03-10T09:37:40Z</time>
      </trkpt>
      <trkpt lat="43.54755" lon="2.40496">
        <ele>529.7</ele>
        <time>2013-03-10T09:37:46Z</time>
      </trkpt>
      <trkpt lat="43.54763" lon="2.40496">
        <ele>529.4</ele>
        <time>2013-03-10T09:37:52Z</time>
      </trkpt>
      <trkpt lat="43.54771" lon="2.40495">
        <ele>530.4</ele>
        <time>2013-03-10T09:37:58Z</time>
      </trkpt>
      <trkpt lat="43.54779" lon="2.40497">
        <ele>530</ele>
        <time>2013-03-10T09:38:05Z</time>
      </trkpt>
      <trkpt lat="43.5478" lon="2.40498">
        <ele>530</ele>
        <time>2013-03-10T09:38:06Z</time>
      </trkpt>
      <trkpt lat="43.54792" lon="2.40514">
        <ele>530.1</ele>
        <time>2013-03-10T09:38:19Z</time>
      </trkpt>
      <trkpt lat="43.54798" lon="2.40522">
        <ele>532.1</ele>
        <time>2013-03-10T09:38:26Z</time>
      </trkpt>
      <trkpt lat="43.54804" lon="2.4053">
        <ele>531.4</ele>
        <time>2013-03-10T09:38:32Z</time>
      </trkpt>
      <trkpt lat="43.5481" lon="2.40538">
        <ele>531.8</ele>
        <time>2013-03-10T09:38:38Z</time>
      </trkpt>
      <trkpt lat="43.54815" lon="2.40546">
        <ele>532.4</ele>
        <time>2013-03-10T09:38:44Z</time>
      </trkpt>
      <trkpt lat="43.54821" lon="2.40554">
        <ele>532.2</ele>
        <time>2013-03-10T09:38:50Z</time>
      </trkpt>
      <trkpt lat="43.54827" lon="2.40561">
        <ele>532.8</ele>
        <time>2013-03-10T09:38:56Z</time>
      </trkpt>
      <trkpt lat="43.54834" lon="2.40569">
        <ele>533</ele>
        <time>2013-03-10T09:39:03Z</time>
      </trkpt>
      <trkpt lat="43.5484" lon="2.40576">
        <ele>533.2</ele>
        <time>2013-03-10T09:39:10Z</time>
      </trkpt>
      <trkpt lat="43.54841" lon="2.40578">
        <ele>533.5</ele>
        <time>2013-03-10T09:39:11Z</time>
      </trkpt>
      <trkpt lat="43.54853" lon="2.40593">
        <ele>534</ele>
        <time>2013-03-10T09:39:24Z</time>
      </trkpt>
      <trkpt lat="43.54859" lon="2.40602">
        <ele>535.5</ele>
        <time>2013-03-10T09:39:32Z</time>
      </trkpt>
      <trkpt lat="43.54865" lon="2.4061">
        <ele>536.6</ele>
        <time>2013-03-10T09:39:40Z</time>
      </trkpt>
      <trkpt lat="43.54872" lon="2.40619">
        <ele>537.3</ele>
        <time>2013-03-10T09:39:49Z</time>
      </trkpt>
      <trkpt lat="43.54878" lon="2.40626">
        <ele>536.8</ele>
        <time>2013-03-10T09:40:28Z</time>
      </trkpt>
      <trkpt lat="43.54879" lon="2.40626">
        <ele>536.9</ele>
        <time>2013-03-10T09:40:29Z</time>
      </trkpt>
      <trkpt lat="43.5487" lon="2.4063">
        <ele>536.6</ele>
        <time>2013-03-10T09:45:01Z</time>
      </trkpt>
      <trkpt lat="43.54879" lon="2.40631">
        <ele>538.9</ele>
        <time>2013-03-10T09:46:06Z</time>
      </trkpt>
      <trkpt lat="43.54893" lon="2.40643">
        <ele>540.3</ele>
        <time>2013-03-10T09:46:24Z</time>
      </trkpt>
      <trkpt lat="43.549" lon="2.4065">
        <ele>540.6</ele>
        <time>2013-03-10T09:46:33Z</time>
      </trkpt>
      <trkpt lat="43.54905" lon="2.40659">
        <ele>541.6</ele>
        <time>2013-03-10T09:46:41Z</time>
      </trkpt>
      <trkpt lat="43.54911" lon="2.40666">
        <ele>541.5</ele>
        <time>2013-03-10T09:46:49Z</time>
      </trkpt>
      <trkpt lat="43.54918" lon="2.40671">
        <ele>542.1</ele>
        <time>2013-03-10T09:46:56Z</time>
      </trkpt>
      <trkpt lat="43.54927" lon="2.40674">
        <ele>542.9</ele>
        <time>2013-03-10T09:47:04Z</time>
      </trkpt>
      <trkpt lat="43.54935" lon="2.40674">
        <ele>543.6</ele>
        <time>2013-03-10T09:47:12Z</time>
      </trkpt>
      <trkpt lat="43.54936" lon="2.40674">
        <ele>543.8</ele>
        <time>2013-03-10T09:47:13Z</time>
      </trkpt>
      <trkpt lat="43.54953" lon="2.40676">
        <ele>545.1</ele>
        <time>2013-03-10T09:47:27Z</time>
      </trkpt>
      <trkpt lat="43.54961" lon="2.40678">
        <ele>545.1</ele>
        <time>2013-03-10T09:47:34Z</time>
      </trkpt>
      <trkpt lat="43.54968" lon="2.40679">
        <ele>544.9</ele>
        <time>2013-03-10T09:47:40Z</time>
      </trkpt>
      <trkpt lat="43.54977" lon="2.40681">
        <ele>545.7</ele>
        <time>2013-03-10T09:47:47Z</time>
      </trkpt>
      <trkpt lat="43.54985" lon="2.40685">
        <ele>545.6</ele>
        <time>2013-03-10T09:47:54Z</time>
      </trkpt>
      <trkpt lat="43.54992" lon="2.40689">
        <ele>546.2</ele>
        <time>2013-03-10T09:48:00Z</time>
      </trkpt>
      <trkpt lat="43.54999" lon="2.40693">
        <ele>546.7</ele>
        <time>2013-03-10T09:48:06Z</time>
      </trkpt>
      <trkpt lat="43.55006" lon="2.40697">
        <ele>547.1</ele>
        <time>2013-03-10T09:48:12Z</time>
      </trkpt>
      <trkpt lat="43.55014" lon="2.40702">
        <ele>546.4</ele>
        <time>2013-03-10T09:48:19Z</time>
      </trkpt>
      <trkpt lat="43.55015" lon="2.40703">
        <ele>546.7</ele>
        <time>2013-03-10T09:48:20Z</time>
      </trkpt>
      <trkpt lat="43.5503" lon="2.40712">
        <ele>547.7</ele>
        <time>2013-03-10T09:48:33Z</time>
      </trkpt>
      <trkpt lat="43.55038" lon="2.40717">
        <ele>548.3</ele>
        <time>2013-03-10T09:48:41Z</time>
      </trkpt>
      <trkpt lat="43.55045" lon="2.40722">
        <ele>549</ele>
        <time>2013-03-10T09:48:49Z</time>
      </trkpt>
      <trkpt lat="43.55053" lon="2.40729">
        <ele>549.8</ele>
        <time>2013-03-10T09:48:57Z</time>
      </trkpt>
      <trkpt lat="43.5506" lon="2.40734">
        <ele>550.3</ele>
        <time>2013-03-10T09:49:04Z</time>
      </trkpt>
      <trkpt lat="43.55068" lon="2.40737">
        <ele>551.7</ele>
        <time>2013-03-10T09:49:12Z</time>
      </trkpt>
      <trkpt lat="43.55076" lon="2.40741">
        <ele>552.4</ele>
        <time>2013-03-10T09:49:20Z</time>
      </trkpt>
      <trkpt lat="43.55077" lon="2.40741">
        <ele>552.5</ele>
        <time>2013-03-10T09:49:21Z</time>
      </trkpt>
      <trkpt lat="43.55091" lon="2.40748">
        <ele>553.5</ele>
        <time>2013-03-10T09:49:36Z</time>
      </trkpt>
      <trkpt lat="43.551" lon="2.40749">
        <ele>554.1</ele>
        <time>2013-03-10T09:49:44Z</time>
      </trkpt>
      <trkpt lat="43.55108" lon="2.4075">
        <ele>554.8</ele>
        <time>2013-03-10T09:49:51Z</time>
      </trkpt>
      <trkpt lat="43.55117" lon="2.40753">
        <ele>555.3</ele>
        <time>2013-03-10T09:49:59Z</time>
      </trkpt>
      <trkpt lat="43.55125" lon="2.40755">
        <ele>555.8</ele>
        <time>2013-03-10T09:50:05Z</time>
      </trkpt>
      <trkpt lat="43.55133" lon="2.40758">
        <ele>555.4</ele>
        <time>2013-03-10T09:50:11Z</time>
      </trkpt>
      <trkpt lat="43.55141" lon="2.40761">
        <ele>556</ele>
        <time>2013-03-10T09:50:18Z</time>
      </trkpt>
      <trkpt lat="43.55149" lon="2.40765">
        <ele>555.8</ele>
        <time>2013-03-10T09:50:25Z</time>
      </trkpt>
      <trkpt lat="43.55151" lon="2.40765">
        <ele>556</ele>
        <time>2013-03-10T09:50:26Z</time>
      </trkpt>
      <trkpt lat="43.55166" lon="2.40769">
        <ele>556</ele>
        <time>2013-03-10T09:50:38Z</time>
      </trkpt>
      <trkpt lat="43.55174" lon="2.4077">
        <ele>556.5</ele>
        <time>2013-03-10T09:50:46Z</time>
      </trkpt>
      <trkpt lat="43.55183" lon="2.40771">
        <ele>557</ele>
        <time>2013-03-10T09:50:56Z</time>
      </trkpt>
      <trkpt lat="43.55191" lon="2.40771">
        <ele>557.8</ele>
        <time>2013-03-10T09:51:06Z</time>
      </trkpt>
      <trkpt lat="43.552" lon="2.40771">
        <ele>558.1</ele>
        <time>2013-03-10T09:51:16Z</time>
      </trkpt>
      <trkpt lat="43.55208" lon="2.40775">
        <ele>559.2</ele>
        <time>2013-03-10T09:51:25Z</time>
      </trkpt>
      <trkpt lat="43.55216" lon="2.40775">
        <ele>560</ele>
        <time>2013-03-10T09:51:33Z</time>
      </trkpt>
      <trkpt lat="43.55217" lon="2.40776">
        <ele>560</ele>
        <time>2013-03-10T09:51:34Z</time>
      </trkpt>
      <trkpt lat="43.55232" lon="2.40779">
        <ele>560.6</ele>
        <time>2013-03-10T09:51:46Z</time>
      </trkpt>
      <trkpt lat="43.5524" lon="2.40781">
        <ele>561.6</ele>
        <time>2013-03-10T09:51:53Z</time>
      </trkpt>
      <trkpt lat="43.55249" lon="2.40782">
        <ele>562.7</ele>
        <time>2013-03-10T09:52:01Z</time>
      </trkpt>
      <trkpt lat="43.55257" lon="2.40784">
        <ele>564.3</ele>
        <time>2013-03-10T09:52:11Z</time>
      </trkpt>
      <trkpt lat="43.55266" lon="2.40784">
        <ele>564.1</ele>
        <time>2013-03-10T09:52:17Z</time>
      </trkpt>
      <trkpt lat="43.55274" lon="2.40786">
        <ele>565.1</ele>
        <time>2013-03-10T09:52:23Z</time>
      </trkpt>
      <trkpt lat="43.55282" lon="2.40787">
        <ele>566.2</ele>
        <time>2013-03-10T09:52:33Z</time>
      </trkpt>
      <trkpt lat="43.5529" lon="2.40787">
        <ele>565.7</ele>
        <time>2013-03-10T09:52:42Z</time>
      </trkpt>
      <trkpt lat="43.55292" lon="2.40787">
        <ele>565.9</ele>
        <time>2013-03-10T09:52:43Z</time>
      </trkpt>
      <trkpt lat="43.55308" lon="2.40785">
        <ele>568.4</ele>
        <time>2013-03-10T09:52:57Z</time>
      </trkpt>
      <trkpt lat="43.55316" lon="2.40785">
        <ele>567.9</ele>
        <time>2013-03-10T09:53:05Z</time>
      </trkpt>
      <trkpt lat="43.55325" lon="2.40785">
        <ele>568</ele>
        <time>2013-03-10T09:53:13Z</time>
      </trkpt>
      <trkpt lat="43.55333" lon="2.40785">
        <ele>568.2</ele>
        <time>2013-03-10T09:53:21Z</time>
      </trkpt>
      <trkpt lat="43.55342" lon="2.40786">
        <ele>567.7</ele>
        <time>2013-03-10T09:53:29Z</time>
      </trkpt>
      <trkpt lat="43.5535" lon="2.4079">
        <ele>568.1</ele>
        <time>2013-03-10T09:53:36Z</time>
      </trkpt>
      <trkpt lat="43.55359" lon="2.40792">
        <ele>567.4</ele>
        <time>2013-03-10T09:53:43Z</time>
      </trkpt>
      <trkpt lat="43.5536" lon="2.40793">
        <ele>567.4</ele>
        <time>2013-03-10T09:53:44Z</time>
      </trkpt>
      <trkpt lat="43.55375" lon="2.40797">
        <ele>565.7</ele>
        <time>2013-03-10T09:53:58Z</time>
      </trkpt>
      <trkpt lat="43.55384" lon="2.40798">
        <ele>563.9</ele>
        <time>2013-03-10T09:54:08Z</time>
      </trkpt>
      <trkpt lat="43.55392" lon="2.40801">
        <ele>563.5</ele>
        <time>2013-03-10T09:54:17Z</time>
      </trkpt>
      <trkpt lat="43.55398" lon="2.40809">
        <ele>563.1</ele>
        <time>2013-03-10T09:54:53Z</time>
      </trkpt>
      <trkpt lat="43.55399" lon="2.40809">
        <ele>563</ele>
        <time>2013-03-10T09:54:54Z</time>
      </trkpt>
      <trkpt lat="43.55413" lon="2.40821">
        <ele>562.7</ele>
        <time>2013-03-10T09:55:41Z</time>
      </trkpt>
      <trkpt lat="43.55421" lon="2.4082">
        <ele>561.7</ele>
        <time>2013-03-10T09:55:48Z</time>
      </trkpt>
      <trkpt lat="43.5543" lon="2.4082">
        <ele>562.7</ele>
        <time>2013-03-10T09:55:56Z</time>
      </trkpt>
      <trkpt lat="43.55431" lon="2.40821">
        <ele>562.5</ele>
        <time>2013-03-10T09:55:57Z</time>
      </trkpt>
      <trkpt lat="43.55444" lon="2.40831">
        <ele>561.9</ele>
        <time>2013-03-10T09:56:11Z</time>
      </trkpt>
      <trkpt lat="43.55453" lon="2.40833">
        <ele>561.4</ele>
        <time>2013-03-10T09:56:18Z</time>
      </trkpt>
      <trkpt lat="43.55461" lon="2.40834">
        <ele>561.2</ele>
        <time>2013-03-10T09:56:26Z</time>
      </trkpt>
      <trkpt lat="43.55469" lon="2.40838">
        <ele>561.1</ele>
        <time>2013-03-10T09:56:35Z</time>
      </trkpt>
      <trkpt lat="43.55477" lon="2.40838">
        <ele>561.2</ele>
        <time>2013-03-10T09:56:43Z</time>
      </trkpt>
      <trkpt lat="43.55485" lon="2.40844">
        <ele>561.8</ele>
        <time>2013-03-10T09:56:54Z</time>
      </trkpt>
      <trkpt lat="43.55485" lon="2.40856">
        <ele>562.4</ele>
        <time>2013-03-10T09:57:20Z</time>
      </trkpt>
      <trkpt lat="43.55485" lon="2.40856">
        <ele>562.1</ele>
        <time>2013-03-10T09:57:21Z</time>
      </trkpt>
      <trkpt lat="43.55481" lon="2.40879">
        <ele>560.7</ele>
        <time>2013-03-10T09:57:40Z</time>
      </trkpt>
      <trkpt lat="43.5548" lon="2.4089">
        <ele>560.5</ele>
        <time>2013-03-10T09:57:48Z</time>
      </trkpt>
      <trkpt lat="43.55479" lon="2.40901">
        <ele>559.5</ele>
        <time>2013-03-10T09:57:55Z</time>
      </trkpt>
      <trkpt lat="43.55478" lon="2.40912">
        <ele>559.3</ele>
        <time>2013-03-10T09:58:01Z</time>
      </trkpt>
      <trkpt lat="43.55477" lon="2.40922">
        <ele>558.5</ele>
        <time>2013-03-10T09:58:06Z</time>
      </trkpt>
      <trkpt lat="43.55476" lon="2.40933">
        <ele>558.3</ele>
        <time>2013-03-10T09:58:11Z</time>
      </trkpt>
      <trkpt lat="43.55474" lon="2.40944">
        <ele>557.7</ele>
        <time>2013-03-10T09:58:18Z</time>
      </trkpt>
      <trkpt lat="43.5547" lon="2.40953">
        <ele>557.7</ele>
        <time>2013-03-10T09:58:25Z</time>
      </trkpt>
      <trkpt lat="43.55469" lon="2.40955">
        <ele>557.7</ele>
        <time>2013-03-10T09:58:26Z</time>
      </trkpt>
      <trkpt lat="43.55463" lon="2.40973">
        <ele>556.1</ele>
        <time>2013-03-10T09:58:38Z</time>
      </trkpt>
      <trkpt lat="43.55463" lon="2.40984">
        <ele>556.3</ele>
        <time>2013-03-10T09:58:45Z</time>
      </trkpt>
      <trkpt lat="43.55461" lon="2.40994">
        <ele>555.9</ele>
        <time>2013-03-10T09:58:50Z</time>
      </trkpt>
      <trkpt lat="43.55459" lon="2.41006">
        <ele>554.7</ele>
        <time>2013-03-10T09:58:56Z</time>
      </trkpt>
      <trkpt lat="43.55459" lon="2.41018">
        <ele>555</ele>
        <time>2013-03-10T09:59:03Z</time>
      </trkpt>
      <trkpt lat="43.55458" lon="2.41029">
        <ele>554.1</ele>
        <time>2013-03-10T09:59:09Z</time>
      </trkpt>
      <trkpt lat="43.55456" lon="2.41041">
        <ele>555.1</ele>
        <time>2013-03-10T09:59:17Z</time>
      </trkpt>
      <trkpt lat="43.55454" lon="2.41052">
        <ele>554.7</ele>
        <time>2013-03-10T09:59:24Z</time>
      </trkpt>
      <trkpt lat="43.55454" lon="2.41064">
        <ele>554.2</ele>
        <time>2013-03-10T09:59:41Z</time>
      </trkpt>
      <trkpt lat="43.55454" lon="2.41065">
        <ele>553.7</ele>
        <time>2013-03-10T09:59:42Z</time>
      </trkpt>
      <trkpt lat="43.5545" lon="2.41087">
        <ele>554.6</ele>
        <time>2013-03-10T09:59:57Z</time>
      </trkpt>
      <trkpt lat="43.55448" lon="2.41097">
        <ele>554</ele>
        <time>2013-03-10T10:00:03Z</time>
      </trkpt>
      <trkpt lat="43.55445" lon="2.41108">
        <ele>554.5</ele>
        <time>2013-03-10T10:00:09Z</time>
      </trkpt>
      <trkpt lat="43.55441" lon="2.41119">
        <ele>554.1</ele>
        <time>2013-03-10T10:00:16Z</time>
      </trkpt>
      <trkpt lat="43.55438" lon="2.4113">
        <ele>554.7</ele>
        <time>2013-03-10T10:00:23Z</time>
      </trkpt>
      <trkpt lat="43.55436" lon="2.41141">
        <ele>555.6</ele>
        <time>2013-03-10T10:00:30Z</time>
      </trkpt>
      <trkpt lat="43.55432" lon="2.41152">
        <ele>556.3</ele>
        <time>2013-03-10T10:00:36Z</time>
      </trkpt>
      <trkpt lat="43.55433" lon="2.41164">
        <ele>556</ele>
        <time>2013-03-10T10:00:45Z</time>
      </trkpt>
      <trkpt lat="43.55433" lon="2.41165">
        <ele>555.9</ele>
        <time>2013-03-10T10:00:46Z</time>
      </trkpt>
      <trkpt lat="43.55435" lon="2.41187">
        <ele>556.7</ele>
        <time>2013-03-10T10:01:05Z</time>
      </trkpt>
      <trkpt lat="43.55433" lon="2.41198">
        <ele>557.3</ele>
        <time>2013-03-10T10:01:13Z</time>
      </trkpt>
      <trkpt lat="43.5543" lon="2.4121">
        <ele>557.6</ele>
        <time>2013-03-10T10:01:22Z</time>
      </trkpt>
      <trkpt lat="43.55429" lon="2.41221">
        <ele>557.3</ele>
        <time>2013-03-10T10:01:29Z</time>
      </trkpt>
      <trkpt lat="43.5543" lon="2.41232">
        <ele>556.5</ele>
        <time>2013-03-10T10:01:35Z</time>
      </trkpt>
      <trkpt lat="43.55431" lon="2.41243">
        <ele>557.1</ele>
        <time>2013-03-10T10:01:41Z</time>
      </trkpt>
      <trkpt lat="43.55434" lon="2.41255">
        <ele>557.4</ele>
        <time>2013-03-10T10:01:49Z</time>
      </trkpt>
      <trkpt lat="43.55434" lon="2.41256">
        <ele>557.4</ele>
        <time>2013-03-10T10:01:50Z</time>
      </trkpt>
      <trkpt lat="43.55442" lon="2.41272">
        <ele>556.9</ele>
        <time>2013-03-10T10:02:02Z</time>
      </trkpt>
      <trkpt lat="43.5544" lon="2.41287">
        <ele>557</ele>
        <time>2013-03-10T10:02:03Z</time>
      </trkpt>
      <trkpt lat="43.55448" lon="2.41291">
        <ele>557.2</ele>
        <time>2013-03-10T10:02:10Z</time>
      </trkpt>
      <trkpt lat="43.55455" lon="2.41297">
        <ele>557.4</ele>
        <time>2013-03-10T10:02:19Z</time>
      </trkpt>
      <trkpt lat="43.55462" lon="2.41303">
        <ele>557.9</ele>
        <time>2013-03-10T10:02:27Z</time>
      </trkpt>
      <trkpt lat="43.55469" lon="2.4131">
        <ele>558.6</ele>
        <time>2013-03-10T10:02:35Z</time>
      </trkpt>
      <trkpt lat="43.55477" lon="2.41317">
        <ele>559.4</ele>
        <time>2013-03-10T10:02:43Z</time>
      </trkpt>
      <trkpt lat="43.55484" lon="2.41322">
        <ele>560</ele>
        <time>2013-03-10T10:02:50Z</time>
      </trkpt>
      <trkpt lat="43.55485" lon="2.41323">
        <ele>560</ele>
        <time>2013-03-10T10:02:51Z</time>
      </trkpt>
      <trkpt lat="43.55498" lon="2.41336">
        <ele>560.1</ele>
        <time>2013-03-10T10:03:06Z</time>
      </trkpt>
      <trkpt lat="43.55504" lon="2.41343">
        <ele>560</ele>
        <time>2013-03-10T10:03:13Z</time>
      </trkpt>
      <trkpt lat="43.55511" lon="2.41351">
        <ele>560.8</ele>
        <time>2013-03-10T10:03:20Z</time>
      </trkpt>
      <trkpt lat="43.55517" lon="2.41358">
        <ele>561.7</ele>
        <time>2013-03-10T10:03:26Z</time>
      </trkpt>
      <trkpt lat="43.55523" lon="2.41365">
        <ele>561.6</ele>
        <time>2013-03-10T10:03:32Z</time>
      </trkpt>
      <trkpt lat="43.5553" lon="2.41371">
        <ele>561.7</ele>
        <time>2013-03-10T10:03:39Z</time>
      </trkpt>
      <trkpt lat="43.55537" lon="2.41378">
        <ele>561.7</ele>
        <time>2013-03-10T10:03:46Z</time>
      </trkpt>
      <trkpt lat="43.55544" lon="2.41384">
        <ele>561.4</ele>
        <time>2013-03-10T10:03:53Z</time>
      </trkpt>
      <trkpt lat="43.55546" lon="2.41386">
        <ele>561.1</ele>
        <time>2013-03-10T10:03:54Z</time>
      </trkpt>
      <trkpt lat="43.55558" lon="2.41399">
        <ele>561.9</ele>
        <time>2013-03-10T10:04:06Z</time>
      </trkpt>
      <trkpt lat="43.55564" lon="2.41406">
        <ele>561.2</ele>
        <time>2013-03-10T10:04:13Z</time>
      </trkpt>
      <trkpt lat="43.55571" lon="2.41413">
        <ele>561.3</ele>
        <time>2013-03-10T10:04:21Z</time>
      </trkpt>
      <trkpt lat="43.55577" lon="2.41421">
        <ele>560.7</ele>
        <time>2013-03-10T10:04:28Z</time>
      </trkpt>
      <trkpt lat="43.55584" lon="2.41429">
        <ele>560.3</ele>
        <time>2013-03-10T10:04:36Z</time>
      </trkpt>
      <trkpt lat="43.5559" lon="2.41437">
        <ele>559.6</ele>
        <time>2013-03-10T10:04:44Z</time>
      </trkpt>
      <trkpt lat="43.55597" lon="2.41442">
        <ele>559.1</ele>
        <time>2013-03-10T10:04:51Z</time>
      </trkpt>
      <trkpt lat="43.55606" lon="2.41444">
        <ele>558.6</ele>
        <time>2013-03-10T10:04:58Z</time>
      </trkpt>
      <trkpt lat="43.55607" lon="2.41443">
        <ele>558.3</ele>
        <time>2013-03-10T10:04:59Z</time>
      </trkpt>
      <trkpt lat="43.55622" lon="2.41441">
        <ele>556</ele>
        <time>2013-03-10T10:05:12Z</time>
      </trkpt>
      <trkpt lat="43.5563" lon="2.41439">
        <ele>555.5</ele>
        <time>2013-03-10T10:05:20Z</time>
      </trkpt>
      <trkpt lat="43.55638" lon="2.41437">
        <ele>554.4</ele>
        <time>2013-03-10T10:05:27Z</time>
      </trkpt>
      <trkpt lat="43.55647" lon="2.41433">
        <ele>554</ele>
        <time>2013-03-10T10:05:34Z</time>
      </trkpt>
      <trkpt lat="43.55655" lon="2.41431">
        <ele>552.6</ele>
        <time>2013-03-10T10:05:41Z</time>
      </trkpt>
      <trkpt lat="43.55664" lon="2.41432">
        <ele>553.7</ele>
        <time>2013-03-10T10:05:48Z</time>
      </trkpt>
      <trkpt lat="43.55671" lon="2.41438">
        <ele>553</ele>
        <time>2013-03-10T10:05:55Z</time>
      </trkpt>
      <trkpt lat="43.55678" lon="2.41445">
        <ele>552.7</ele>
        <time>2013-03-10T10:06:01Z</time>
      </trkpt>
      <trkpt lat="43.55679" lon="2.41446">
        <ele>552.8</ele>
        <time>2013-03-10T10:06:02Z</time>
      </trkpt>
      <trkpt lat="43.5568" lon="2.41465">
        <ele>552.6</ele>
        <time>2013-03-10T10:06:14Z</time>
      </trkpt>
      <trkpt lat="43.55674" lon="2.41473">
        <ele>552.8</ele>
        <time>2013-03-10T10:06:20Z</time>
      </trkpt>
      <trkpt lat="43.55668" lon="2.41482">
        <ele>552.9</ele>
        <time>2013-03-10T10:06:27Z</time>
      </trkpt>
      <trkpt lat="43.55665" lon="2.41492">
        <ele>552.3</ele>
        <time>2013-03-10T10:06:33Z</time>
      </trkpt>
      <trkpt lat="43.55663" lon="2.41504">
        <ele>552.2</ele>
        <time>2013-03-10T10:06:39Z</time>
      </trkpt>
      <trkpt lat="43.55663" lon="2.41514">
        <ele>552.2</ele>
        <time>2013-03-10T10:06:45Z</time>
      </trkpt>
      <trkpt lat="43.55664" lon="2.41526">
        <ele>552.7</ele>
        <time>2013-03-10T10:06:52Z</time>
      </trkpt>
      <trkpt lat="43.55667" lon="2.41537">
        <ele>554.7</ele>
        <time>2013-03-10T10:06:59Z</time>
      </trkpt>
      <trkpt lat="43.55673" lon="2.41544">
        <ele>554.7</ele>
        <time>2013-03-10T10:07:07Z</time>
      </trkpt>
      <trkpt lat="43.55674" lon="2.41545">
        <ele>554.7</ele>
        <time>2013-03-10T10:07:08Z</time>
      </trkpt>
      <trkpt lat="43.55686" lon="2.41558">
        <ele>555.5</ele>
        <time>2013-03-10T10:07:20Z</time>
      </trkpt>
      <trkpt lat="43.55694" lon="2.41561">
        <ele>555.9</ele>
        <time>2013-03-10T10:07:28Z</time>
      </trkpt>
      <trkpt lat="43.55703" lon="2.41562">
        <ele>556</ele>
        <time>2013-03-10T10:07:36Z</time>
      </trkpt>
      <trkpt lat="43.55711" lon="2.41563">
        <ele>556.3</ele>
        <time>2013-03-10T10:07:43Z</time>
      </trkpt>
      <trkpt lat="43.5572" lon="2.41565">
        <ele>556.5</ele>
        <time>2013-03-10T10:07:50Z</time>
      </trkpt>
      <trkpt lat="43.55727" lon="2.41567">
        <ele>556.8</ele>
        <time>2013-03-10T10:07:57Z</time>
      </trkpt>
      <trkpt lat="43.55736" lon="2.41568">
        <ele>557.4</ele>
        <time>2013-03-10T10:08:05Z</time>
      </trkpt>
      <trkpt lat="43.55744" lon="2.41572">
        <ele>557</ele>
        <time>2013-03-10T10:08:14Z</time>
      </trkpt>
      <trkpt lat="43.55745" lon="2.41572">
        <ele>557.1</ele>
        <time>2013-03-10T10:08:15Z</time>
      </trkpt>
      <trkpt lat="43.5576" lon="2.41577">
        <ele>556.9</ele>
        <time>2013-03-10T10:08:28Z</time>
      </trkpt>
      <trkpt lat="43.55768" lon="2.41581">
        <ele>557.6</ele>
        <time>2013-03-10T10:08:36Z</time>
      </trkpt>
      <trkpt lat="43.55776" lon="2.41585">
        <ele>557.5</ele>
        <time>2013-03-10T10:08:42Z</time>
      </trkpt>
      <trkpt lat="43.55784" lon="2.4159">
        <ele>557.9</ele>
        <time>2013-03-10T10:08:50Z</time>
      </trkpt>
      <trkpt lat="43.55791" lon="2.41593">
        <ele>557.4</ele>
        <time>2013-03-10T10:08:57Z</time>
      </trkpt>
      <trkpt lat="43.55799" lon="2.41596">
        <ele>556.3</ele>
        <time>2013-03-10T10:09:03Z</time>
      </trkpt>
      <trkpt lat="43.55807" lon="2.416">
        <ele>556.3</ele>
        <time>2013-03-10T10:09:09Z</time>
      </trkpt>
      <trkpt lat="43.55815" lon="2.41605">
        <ele>556.3</ele>
        <time>2013-03-10T10:09:15Z</time>
      </trkpt>
      <trkpt lat="43.55816" lon="2.41606">
        <ele>556.4</ele>
        <time>2013-03-10T10:09:16Z</time>
      </trkpt>
      <trkpt lat="43.5583" lon="2.41617">
        <ele>556.2</ele>
        <time>2013-03-10T10:09:28Z</time>
      </trkpt>
      <trkpt lat="43.55837" lon="2.41623">
        <ele>556.3</ele>
        <time>2013-03-10T10:09:36Z</time>
      </trkpt>
      <trkpt lat="43.55844" lon="2.41631">
        <ele>556.6</ele>
        <time>2013-03-10T10:09:43Z</time>
      </trkpt>
      <trkpt lat="43.55849" lon="2.4164">
        <ele>556.2</ele>
        <time>2013-03-10T10:09:50Z</time>
      </trkpt>
      <trkpt lat="43.55853" lon="2.41649">
        <ele>556.2</ele>
        <time>2013-03-10T10:09:58Z</time>
      </trkpt>
      <trkpt lat="43.55858" lon="2.41658">
        <ele>556</ele>
        <time>2013-03-10T10:10:05Z</time>
      </trkpt>
      <trkpt lat="43.55864" lon="2.41666">
        <ele>556.4</ele>
        <time>2013-03-10T10:10:11Z</time>
      </trkpt>
      <trkpt lat="43.5587" lon="2.41674">
        <ele>556.6</ele>
        <time>2013-03-10T10:10:18Z</time>
      </trkpt>
      <trkpt lat="43.55871" lon="2.41675">
        <ele>556.4</ele>
        <time>2013-03-10T10:10:19Z</time>
      </trkpt>
      <trkpt lat="43.55882" lon="2.4169">
        <ele>556.5</ele>
        <time>2013-03-10T10:10:32Z</time>
      </trkpt>
      <trkpt lat="43.55888" lon="2.41699">
        <ele>556.4</ele>
        <time>2013-03-10T10:10:39Z</time>
      </trkpt>
      <trkpt lat="43.55893" lon="2.41708">
        <ele>555.1</ele>
        <time>2013-03-10T10:10:46Z</time>
      </trkpt>
      <trkpt lat="43.55897" lon="2.41719">
        <ele>555.3</ele>
        <time>2013-03-10T10:10:54Z</time>
      </trkpt>
      <trkpt lat="43.55898" lon="2.41731">
        <ele>555.8</ele>
        <time>2013-03-10T10:11:01Z</time>
      </trkpt>
      <trkpt lat="43.55897" lon="2.41742">
        <ele>555.8</ele>
        <time>2013-03-10T10:11:08Z</time>
      </trkpt>
      <trkpt lat="43.55896" lon="2.41754">
        <ele>555.8</ele>
        <time>2013-03-10T10:11:16Z</time>
      </trkpt>
      <trkpt lat="43.55894" lon="2.41765">
        <ele>556.7</ele>
        <time>2013-03-10T10:11:22Z</time>
      </trkpt>
      <trkpt lat="43.55894" lon="2.41767">
        <ele>556.4</ele>
        <time>2013-03-10T10:11:23Z</time>
      </trkpt>
      <trkpt lat="43.55889" lon="2.41787">
        <ele>556.7</ele>
        <time>2013-03-10T10:11:37Z</time>
      </trkpt>
      <trkpt lat="43.55884" lon="2.41797">
        <ele>556.6</ele>
        <time>2013-03-10T10:11:45Z</time>
      </trkpt>
      <trkpt lat="43.55878" lon="2.41805">
        <ele>556.6</ele>
        <time>2013-03-10T10:11:52Z</time>
      </trkpt>
      <trkpt lat="43.55873" lon="2.41814">
        <ele>555.9</ele>
        <time>2013-03-10T10:11:58Z</time>
      </trkpt>
      <trkpt lat="43.55868" lon="2.41823">
        <ele>556.1</ele>
        <time>2013-03-10T10:12:05Z</time>
      </trkpt>
      <trkpt lat="43.55863" lon="2.41833">
        <ele>555.9</ele>
        <time>2013-03-10T10:12:13Z</time>
      </trkpt>
      <trkpt lat="43.55858" lon="2.41842">
        <ele>555.6</ele>
        <time>2013-03-10T10:12:21Z</time>
      </trkpt>
      <trkpt lat="43.55853" lon="2.41852">
        <ele>555.4</ele>
        <time>2013-03-10T10:12:31Z</time>
      </trkpt>
      <trkpt lat="43.55853" lon="2.41853">
        <ele>555.2</ele>
        <time>2013-03-10T10:12:32Z</time>
      </trkpt>
      <trkpt lat="43.55842" lon="2.41867">
        <ele>555.5</ele>
        <time>2013-03-10T10:12:46Z</time>
      </trkpt>
      <trkpt lat="43.55836" lon="2.41875">
        <ele>553.5</ele>
        <time>2013-03-10T10:12:56Z</time>
      </trkpt>
      <trkpt lat="43.55831" lon="2.41882">
        <ele>552.8</ele>
        <time>2013-03-10T10:13:02Z</time>
      </trkpt>
      <trkpt lat="43.55824" lon="2.4189">
        <ele>553</ele>
        <time>2013-03-10T10:13:08Z</time>
      </trkpt>
      <trkpt lat="43.55818" lon="2.41897">
        <ele>553.1</ele>
        <time>2013-03-10T10:13:14Z</time>
      </trkpt>
      <trkpt lat="43.55811" lon="2.41902">
        <ele>553</ele>
        <time>2013-03-10T10:13:20Z</time>
      </trkpt>
      <trkpt lat="43.55803" lon="2.41907">
        <ele>552.4</ele>
        <time>2013-03-10T10:13:29Z</time>
      </trkpt>
      <trkpt lat="43.55795" lon="2.41906">
        <ele>552.6</ele>
        <time>2013-03-10T10:13:37Z</time>
      </trkpt>
      <trkpt lat="43.55794" lon="2.41906">
        <ele>552.7</ele>
        <time>2013-03-10T10:13:38Z</time>
      </trkpt>
      <trkpt lat="43.55781" lon="2.41894">
        <ele>553.5</ele>
        <time>2013-03-10T10:13:53Z</time>
      </trkpt>
      <trkpt lat="43.55778" lon="2.41883">
        <ele>554.7</ele>
        <time>2013-03-10T10:14:03Z</time>
      </trkpt>
      <trkpt lat="43.55773" lon="2.41873">
        <ele>555.7</ele>
        <time>2013-03-10T10:14:11Z</time>
      </trkpt>
      <trkpt lat="43.5577" lon="2.41863">
        <ele>556.2</ele>
        <time>2013-03-10T10:14:18Z</time>
      </trkpt>
      <trkpt lat="43.55767" lon="2.41851">
        <ele>556.6</ele>
        <time>2013-03-10T10:14:25Z</time>
      </trkpt>
      <trkpt lat="43.55763" lon="2.41841">
        <ele>556.6</ele>
        <time>2013-03-10T10:14:33Z</time>
      </trkpt>
      <trkpt lat="43.5576" lon="2.41831">
        <ele>557.1</ele>
        <time>2013-03-10T10:14:42Z</time>
      </trkpt>
      <trkpt lat="43.5576" lon="2.41829">
        <ele>557.2</ele>
        <time>2013-03-10T10:14:43Z</time>
      </trkpt>
      <trkpt lat="43.55751" lon="2.41811">
        <ele>559.3</ele>
        <time>2013-03-10T10:14:59Z</time>
      </trkpt>
      <trkpt lat="43.55746" lon="2.41805">
        <ele>560.2</ele>
        <time>2013-03-10T10:15:04Z</time>
      </trkpt>
      <trkpt lat="43.55739" lon="2.418">
        <ele>560.4</ele>
        <time>2013-03-10T10:15:08Z</time>
      </trkpt>
      <trkpt lat="43.55732" lon="2.41794">
        <ele>559.9</ele>
        <time>2013-03-10T10:15:14Z</time>
      </trkpt>
      <trkpt lat="43.55725" lon="2.41786">
        <ele>560.9</ele>
        <time>2013-03-10T10:15:21Z</time>
      </trkpt>
      <trkpt lat="43.55719" lon="2.41777">
        <ele>560.4</ele>
        <time>2013-03-10T10:15:28Z</time>
      </trkpt>
      <trkpt lat="43.55715" lon="2.41767">
        <ele>561.2</ele>
        <time>2013-03-10T10:15:35Z</time>
      </trkpt>
      <trkpt lat="43.5571" lon="2.41758">
        <ele>561.1</ele>
        <time>2013-03-10T10:15:41Z</time>
      </trkpt>
      <trkpt lat="43.55704" lon="2.41749">
        <ele>561.1</ele>
        <time>2013-03-10T10:15:47Z</time>
      </trkpt>
      <trkpt lat="43.55703" lon="2.41748">
        <ele>561.1</ele>
        <time>2013-03-10T10:15:48Z</time>
      </trkpt>
      <trkpt lat="43.55692" lon="2.41734">
        <ele>560.4</ele>
        <time>2013-03-10T10:16:00Z</time>
      </trkpt>
      <trkpt lat="43.55686" lon="2.41726">
        <ele>560.8</ele>
        <time>2013-03-10T10:16:07Z</time>
      </trkpt>
      <trkpt lat="43.55681" lon="2.41717">
        <ele>559.4</ele>
        <time>2013-03-10T10:16:18Z</time>
      </trkpt>
      <trkpt lat="43.55676" lon="2.41706">
        <ele>559.5</ele>
        <time>2013-03-10T10:16:27Z</time>
      </trkpt>
      <trkpt lat="43.55672" lon="2.41696">
        <ele>559.7</ele>
        <time>2013-03-10T10:16:35Z</time>
      </trkpt>
      <trkpt lat="43.55666" lon="2.41687">
        <ele>560.1</ele>
        <time>2013-03-10T10:16:46Z</time>
      </trkpt>
      <trkpt lat="43.55658" lon="2.41684">
        <ele>560.9</ele>
        <time>2013-03-10T10:17:05Z</time>
      </trkpt>
      <trkpt lat="43.55657" lon="2.41683">
        <ele>561</ele>
        <time>2013-03-10T10:17:06Z</time>
      </trkpt>
      <trkpt lat="43.55653" lon="2.41672">
        <ele>560.8</ele>
        <time>2013-03-10T10:18:21Z</time>
      </trkpt>
      <trkpt lat="43.55649" lon="2.41685">
        <ele>562.1</ele>
        <time>2013-03-10T10:21:34Z</time>
      </trkpt>
      <trkpt lat="43.55655" lon="2.41704">
        <ele>563.3</ele>
        <time>2013-03-10T10:21:51Z</time>
      </trkpt>
      <trkpt lat="43.55658" lon="2.41715">
        <ele>563.4</ele>
        <time>2013-03-10T10:21:59Z</time>
      </trkpt>
      <trkpt lat="43.55661" lon="2.41725">
        <ele>564.8</ele>
        <time>2013-03-10T10:22:08Z</time>
      </trkpt>
      <trkpt lat="43.55663" lon="2.41737">
        <ele>565.8</ele>
        <time>2013-03-10T10:22:17Z</time>
      </trkpt>
      <trkpt lat="43.55666" lon="2.41748">
        <ele>567.2</ele>
        <time>2013-03-10T10:22:25Z</time>
      </trkpt>
      <trkpt lat="43.5567" lon="2.41758">
        <ele>568.3</ele>
        <time>2013-03-10T10:22:34Z</time>
      </trkpt>
      <trkpt lat="43.5567" lon="2.41759">
        <ele>568.5</ele>
        <time>2013-03-10T10:22:35Z</time>
      </trkpt>
      <trkpt lat="43.55678" lon="2.41778">
        <ele>571</ele>
        <time>2013-03-10T10:22:50Z</time>
      </trkpt>
      <trkpt lat="43.55684" lon="2.41787">
        <ele>572</ele>
        <time>2013-03-10T10:22:57Z</time>
      </trkpt>
      <trkpt lat="43.55691" lon="2.41795">
        <ele>573.4</ele>
        <time>2013-03-10T10:23:09Z</time>
      </trkpt>
      <trkpt lat="43.55694" lon="2.41805">
        <ele>575</ele>
        <time>2013-03-10T10:23:20Z</time>
      </trkpt>
      <trkpt lat="43.55697" lon="2.41816">
        <ele>576.3</ele>
        <time>2013-03-10T10:23:27Z</time>
      </trkpt>
      <trkpt lat="43.55698" lon="2.41827">
        <ele>576.9</ele>
        <time>2013-03-10T10:23:35Z</time>
      </trkpt>
      <trkpt lat="43.55698" lon="2.41829">
        <ele>577</ele>
        <time>2013-03-10T10:23:36Z</time>
      </trkpt>
      <trkpt lat="43.55697" lon="2.41851">
        <ele>578.5</ele>
        <time>2013-03-10T10:23:51Z</time>
      </trkpt>
      <trkpt lat="43.55694" lon="2.41861">
        <ele>579.5</ele>
        <time>2013-03-10T10:23:59Z</time>
      </trkpt>
      <trkpt lat="43.5569" lon="2.41872">
        <ele>580.3</ele>
        <time>2013-03-10T10:24:06Z</time>
      </trkpt>
      <trkpt lat="43.55686" lon="2.41882">
        <ele>581</ele>
        <time>2013-03-10T10:24:15Z</time>
      </trkpt>
      <trkpt lat="43.55681" lon="2.41892">
        <ele>582.3</ele>
        <time>2013-03-10T10:24:24Z</time>
      </trkpt>
      <trkpt lat="43.55677" lon="2.41902">
        <ele>582.8</ele>
        <time>2013-03-10T10:24:33Z</time>
      </trkpt>
      <trkpt lat="43.55673" lon="2.41912">
        <ele>584</ele>
        <time>2013-03-10T10:24:43Z</time>
      </trkpt>
      <trkpt lat="43.55672" lon="2.41913">
        <ele>584.1</ele>
        <time>2013-03-10T10:24:44Z</time>
      </trkpt>
      <trkpt lat="43.55664" lon="2.41932">
        <ele>585.5</ele>
        <time>2013-03-10T10:24:58Z</time>
      </trkpt>
      <trkpt lat="43.55663" lon="2.41943">
        <ele>585.7</ele>
        <time>2013-03-10T10:25:05Z</time>
      </trkpt>
      <trkpt lat="43.55662" lon="2.41955">
        <ele>587.2</ele>
        <time>2013-03-10T10:25:12Z</time>
      </trkpt>
      <trkpt lat="43.55664" lon="2.41967">
        <ele>587.8</ele>
        <time>2013-03-10T10:25:20Z</time>
      </trkpt>
      <trkpt lat="43.55668" lon="2.41977">
        <ele>588.1</ele>
        <time>2013-03-10T10:25:29Z</time>
      </trkpt>
      <trkpt lat="43.55672" lon="2.41987">
        <ele>588.9</ele>
        <time>2013-03-10T10:25:36Z</time>
      </trkpt>
      <trkpt lat="43.55676" lon="2.41997">
        <ele>589.5</ele>
        <time>2013-03-10T10:25:42Z</time>
      </trkpt>
      <trkpt lat="43.55681" lon="2.42006">
        <ele>590.6</ele>
        <time>2013-03-10T10:25:49Z</time>
      </trkpt>
      <trkpt lat="43.55682" lon="2.42008">
        <ele>590.8</ele>
        <time>2013-03-10T10:25:50Z</time>
      </trkpt>
      <trkpt lat="43.55689" lon="2.42027">
        <ele>592</ele>
        <time>2013-03-10T10:26:07Z</time>
      </trkpt>
      <trkpt lat="43.55692" lon="2.42038">
        <ele>594.4</ele>
        <time>2013-03-10T10:26:17Z</time>
      </trkpt>
      <trkpt lat="43.55696" lon="2.42048">
        <ele>593.9</ele>
        <time>2013-03-10T10:26:24Z</time>
      </trkpt>
      <trkpt lat="43.557" lon="2.42059">
        <ele>596</ele>
        <time>2013-03-10T10:26:31Z</time>
      </trkpt>
      <trkpt lat="43.55701" lon="2.4207">
        <ele>596.6</ele>
        <time>2013-03-10T10:26:38Z</time>
      </trkpt>
      <trkpt lat="43.55701" lon="2.42082">
        <ele>597.5</ele>
        <time>2013-03-10T10:26:46Z</time>
      </trkpt>
      <trkpt lat="43.557" lon="2.42093">
        <ele>599.1</ele>
        <time>2013-03-10T10:26:53Z</time>
      </trkpt>
      <trkpt lat="43.55699" lon="2.42094">
        <ele>599.4</ele>
        <time>2013-03-10T10:26:54Z</time>
      </trkpt>
      <trkpt lat="43.55695" lon="2.42115">
        <ele>600.7</ele>
        <time>2013-03-10T10:27:08Z</time>
      </trkpt>
      <trkpt lat="43.55694" lon="2.42127">
        <ele>602.5</ele>
        <time>2013-03-10T10:27:18Z</time>
      </trkpt>
      <trkpt lat="43.55692" lon="2.42138">
        <ele>604</ele>
        <time>2013-03-10T10:27:27Z</time>
      </trkpt>
      <trkpt lat="43.55692" lon="2.42149">
        <ele>604.7</ele>
        <time>2013-03-10T10:27:34Z</time>
      </trkpt>
      <trkpt lat="43.55692" lon="2.42161">
        <ele>606</ele>
        <time>2013-03-10T10:27:42Z</time>
      </trkpt>
      <trkpt lat="43.55692" lon="2.42173">
        <ele>606.1</ele>
        <time>2013-03-10T10:27:51Z</time>
      </trkpt>
      <trkpt lat="43.55695" lon="2.42185">
        <ele>608.8</ele>
        <time>2013-03-10T10:27:59Z</time>
      </trkpt>
      <trkpt lat="43.55695" lon="2.42187">
        <ele>608.9</ele>
        <time>2013-03-10T10:28:00Z</time>
      </trkpt>
      <trkpt lat="43.55694" lon="2.42207">
        <ele>610</ele>
        <time>2013-03-10T10:28:11Z</time>
      </trkpt>
      <trkpt lat="43.55693" lon="2.42218">
        <ele>611.9</ele>
        <time>2013-03-10T10:28:18Z</time>
      </trkpt>
      <trkpt lat="43.55691" lon="2.42228">
        <ele>611.2</ele>
        <time>2013-03-10T10:28:24Z</time>
      </trkpt>
      <trkpt lat="43.55688" lon="2.42239">
        <ele>612.3</ele>
        <time>2013-03-10T10:28:31Z</time>
      </trkpt>
      <trkpt lat="43.55686" lon="2.4225">
        <ele>612.5</ele>
        <time>2013-03-10T10:28:39Z</time>
      </trkpt>
      <trkpt lat="43.55685" lon="2.42261">
        <ele>613.2</ele>
        <time>2013-03-10T10:28:46Z</time>
      </trkpt>
      <trkpt lat="43.55685" lon="2.42273">
        <ele>615.6</ele>
        <time>2013-03-10T10:28:54Z</time>
      </trkpt>
      <trkpt lat="43.55682" lon="2.42284">
        <ele>616.5</ele>
        <time>2013-03-10T10:29:03Z</time>
      </trkpt>
      <trkpt lat="43.55682" lon="2.42285">
        <ele>616.7</ele>
        <time>2013-03-10T10:29:04Z</time>
      </trkpt>
      <trkpt lat="43.55681" lon="2.42306">
        <ele>617.4</ele>
        <time>2013-03-10T10:29:18Z</time>
      </trkpt>
      <trkpt lat="43.55682" lon="2.42317">
        <ele>618.9</ele>
        <time>2013-03-10T10:29:25Z</time>
      </trkpt>
      <trkpt lat="43.55682" lon="2.42328">
        <ele>619.7</ele>
        <time>2013-03-10T10:29:32Z</time>
      </trkpt>
      <trkpt lat="43.55683" lon="2.4234">
        <ele>620.2</ele>
        <time>2013-03-10T10:29:40Z</time>
      </trkpt>
      <trkpt lat="43.55685" lon="2.42352">
        <ele>621</ele>
        <time>2013-03-10T10:31:06Z</time>
      </trkpt>
      <trkpt lat="43.55685" lon="2.42354">
        <ele>621.2</ele>
        <time>2013-03-10T10:31:07Z</time>
      </trkpt>
      <trkpt lat="43.55685" lon="2.42375">
        <ele>621.9</ele>
        <time>2013-03-10T10:31:19Z</time>
      </trkpt>
      <trkpt lat="43.55685" lon="2.42387">
        <ele>623</ele>
        <time>2013-03-10T10:31:27Z</time>
      </trkpt>
      <trkpt lat="43.55685" lon="2.42398">
        <ele>623.5</ele>
        <time>2013-03-10T10:31:35Z</time>
      </trkpt>
      <trkpt lat="43.55686" lon="2.42409">
        <ele>623.6</ele>
        <time>2013-03-10T10:31:42Z</time>
      </trkpt>
      <trkpt lat="43.55686" lon="2.42421">
        <ele>624</ele>
        <time>2013-03-10T10:31:49Z</time>
      </trkpt>
      <trkpt lat="43.55686" lon="2.42432">
        <ele>624.4</ele>
        <time>2013-03-10T10:31:56Z</time>
      </trkpt>
      <trkpt lat="43.55686" lon="2.42443">
        <ele>624.4</ele>
        <time>2013-03-10T10:32:03Z</time>
      </trkpt>
      <trkpt lat="43.55686" lon="2.42455">
        <ele>625.8</ele>
        <time>2013-03-10T10:32:11Z</time>
      </trkpt>
      <trkpt lat="43.55686" lon="2.42456">
        <ele>626.1</ele>
        <time>2013-03-10T10:32:12Z</time>
      </trkpt>
      <trkpt lat="43.55684" lon="2.42478">
        <ele>625</ele>
        <time>2013-03-10T10:32:27Z</time>
      </trkpt>
      <trkpt lat="43.55683" lon="2.4249">
        <ele>626.5</ele>
        <time>2013-03-10T10:32:35Z</time>
      </trkpt>
      <trkpt lat="43.5568" lon="2.425">
        <ele>627.2</ele>
        <time>2013-03-10T10:32:43Z</time>
      </trkpt>
      <trkpt lat="43.55675" lon="2.42511">
        <ele>627</ele>
        <time>2013-03-10T10:32:52Z</time>
      </trkpt>
      <trkpt lat="43.55672" lon="2.42522">
        <ele>628.9</ele>
        <time>2013-03-10T10:33:00Z</time>
      </trkpt>
      <trkpt lat="43.55671" lon="2.42534">
        <ele>629.7</ele>
        <time>2013-03-10T10:33:08Z</time>
      </trkpt>
      <trkpt lat="43.55673" lon="2.42545">
        <ele>630.2</ele>
        <time>2013-03-10T10:33:16Z</time>
      </trkpt>
      <trkpt lat="43.55673" lon="2.42546">
        <ele>630.1</ele>
        <time>2013-03-10T10:33:17Z</time>
      </trkpt>
      <trkpt lat="43.55679" lon="2.42567">
        <ele>630.5</ele>
        <time>2013-03-10T10:33:32Z</time>
      </trkpt>
      <trkpt lat="43.55679" lon="2.42579">
        <ele>629.5</ele>
        <time>2013-03-10T10:33:41Z</time>
      </trkpt>
      <trkpt lat="43.55683" lon="2.42589">
        <ele>629.7</ele>
        <time>2013-03-10T10:33:51Z</time>
      </trkpt>
      <trkpt lat="43.55687" lon="2.42599">
        <ele>630.4</ele>
        <time>2013-03-10T10:33:58Z</time>
      </trkpt>
      <trkpt lat="43.55691" lon="2.4261">
        <ele>630.9</ele>
        <time>2013-03-10T10:34:06Z</time>
      </trkpt>
      <trkpt lat="43.55696" lon="2.42618">
        <ele>631.5</ele>
        <time>2013-03-10T10:34:14Z</time>
      </trkpt>
      <trkpt lat="43.55697" lon="2.4263">
        <ele>631.5</ele>
        <time>2013-03-10T10:34:26Z</time>
      </trkpt>
      <trkpt lat="43.55698" lon="2.42631">
        <ele>631.6</ele>
        <time>2013-03-10T10:34:27Z</time>
      </trkpt>
      <trkpt lat="43.55711" lon="2.42645">
        <ele>631.9</ele>
        <time>2013-03-10T10:36:36Z</time>
      </trkpt>
      <trkpt lat="43.55711" lon="2.42646">
        <ele>632.1</ele>
        <time>2013-03-10T10:36:37Z</time>
      </trkpt>
      <trkpt lat="43.55716" lon="2.42666">
        <ele>631.9</ele>
        <time>2013-03-10T10:36:55Z</time>
      </trkpt>
      <trkpt lat="43.55719" lon="2.42677">
        <ele>633</ele>
        <time>2013-03-10T10:37:03Z</time>
      </trkpt>
      <trkpt lat="43.55721" lon="2.42689">
        <ele>632.8</ele>
        <time>2013-03-10T10:37:12Z</time>
      </trkpt>
      <trkpt lat="43.55723" lon="2.427">
        <ele>634.3</ele>
        <time>2013-03-10T10:37:20Z</time>
      </trkpt>
      <trkpt lat="43.55726" lon="2.42711">
        <ele>633.8</ele>
        <time>2013-03-10T10:37:29Z</time>
      </trkpt>
      <trkpt lat="43.55729" lon="2.42723">
        <ele>633.7</ele>
        <time>2013-03-10T10:37:37Z</time>
      </trkpt>
      <trkpt lat="43.5573" lon="2.42724">
        <ele>633.8</ele>
        <time>2013-03-10T10:37:38Z</time>
      </trkpt>
      <trkpt lat="43.55736" lon="2.42744">
        <ele>634.3</ele>
        <time>2013-03-10T10:37:54Z</time>
      </trkpt>
      <trkpt lat="43.55738" lon="2.42756">
        <ele>634.8</ele>
        <time>2013-03-10T10:38:03Z</time>
      </trkpt>
      <trkpt lat="43.55741" lon="2.42767">
        <ele>636.1</ele>
        <time>2013-03-10T10:38:13Z</time>
      </trkpt>
      <trkpt lat="43.55745" lon="2.42778">
        <ele>635.7</ele>
        <time>2013-03-10T10:38:21Z</time>
      </trkpt>
      <trkpt lat="43.55749" lon="2.42788">
        <ele>637.6</ele>
        <time>2013-03-10T10:38:30Z</time>
      </trkpt>
      <trkpt lat="43.55752" lon="2.428">
        <ele>638.1</ele>
        <time>2013-03-10T10:38:41Z</time>
      </trkpt>
      <trkpt lat="43.55752" lon="2.42801">
        <ele>638</ele>
        <time>2013-03-10T10:38:42Z</time>
      </trkpt>
      <trkpt lat="43.55758" lon="2.42822">
        <ele>639</ele>
        <time>2013-03-10T10:38:59Z</time>
      </trkpt>
      <trkpt lat="43.55763" lon="2.42831">
        <ele>639.6</ele>
        <time>2013-03-10T10:39:07Z</time>
      </trkpt>
      <trkpt lat="43.55767" lon="2.42841">
        <ele>640.5</ele>
        <time>2013-03-10T10:39:14Z</time>
      </trkpt>
      <trkpt lat="43.55771" lon="2.42851">
        <ele>641.4</ele>
        <time>2013-03-10T10:39:22Z</time>
      </trkpt>
      <trkpt lat="43.55776" lon="2.42862">
        <ele>641.5</ele>
        <time>2013-03-10T10:39:30Z</time>
      </trkpt>
      <trkpt lat="43.5578" lon="2.42872">
        <ele>642.4</ele>
        <time>2013-03-10T10:39:38Z</time>
      </trkpt>
      <trkpt lat="43.55785" lon="2.42883">
        <ele>643</ele>
        <time>2013-03-10T10:39:46Z</time>
      </trkpt>
      <trkpt lat="43.55785" lon="2.42884">
        <ele>643</ele>
        <time>2013-03-10T10:39:47Z</time>
      </trkpt>
      <trkpt lat="43.55794" lon="2.42903">
        <ele>644.7</ele>
        <time>2013-03-10T10:40:01Z</time>
      </trkpt>
      <trkpt lat="43.55798" lon="2.42913">
        <ele>645.6</ele>
        <time>2013-03-10T10:40:08Z</time>
      </trkpt>
      <trkpt lat="43.55801" lon="2.42923">
        <ele>645.4</ele>
        <time>2013-03-10T10:40:15Z</time>
      </trkpt>
      <trkpt lat="43.55805" lon="2.42933">
        <ele>645.7</ele>
        <time>2013-03-10T10:40:22Z</time>
      </trkpt>
      <trkpt lat="43.55809" lon="2.42944">
        <ele>645.8</ele>
        <time>2013-03-10T10:40:29Z</time>
      </trkpt>
      <trkpt lat="43.55812" lon="2.42953">
        <ele>646.6</ele>
        <time>2013-03-10T10:40:35Z</time>
      </trkpt>
      <trkpt lat="43.55816" lon="2.42963">
        <ele>647.4</ele>
        <time>2013-03-10T10:40:40Z</time>
      </trkpt>
      <trkpt lat="43.55822" lon="2.42972">
        <ele>647.1</ele>
        <time>2013-03-10T10:40:46Z</time>
      </trkpt>
      <trkpt lat="43.55827" lon="2.4298">
        <ele>646.7</ele>
        <time>2013-03-10T10:40:52Z</time>
      </trkpt>
      <trkpt lat="43.55827" lon="2.42982">
        <ele>646.5</ele>
        <time>2013-03-10T10:40:53Z</time>
      </trkpt>
      <trkpt lat="43.55833" lon="2.43">
        <ele>647.1</ele>
        <time>2013-03-10T10:41:04Z</time>
      </trkpt>
      <trkpt lat="43.55836" lon="2.4301">
        <ele>647.5</ele>
        <time>2013-03-10T10:41:10Z</time>
      </trkpt>
      <trkpt lat="43.5584" lon="2.4302">
        <ele>647.7</ele>
        <time>2013-03-10T10:41:16Z</time>
      </trkpt>
      <trkpt lat="43.55844" lon="2.4303">
        <ele>647.6</ele>
        <time>2013-03-10T10:41:22Z</time>
      </trkpt>
      <trkpt lat="43.55848" lon="2.43041">
        <ele>648.5</ele>
        <time>2013-03-10T10:41:29Z</time>
      </trkpt>
      <trkpt lat="43.55853" lon="2.43051">
        <ele>649.7</ele>
        <time>2013-03-10T10:41:36Z</time>
      </trkpt>
      <trkpt lat="43.55857" lon="2.43062">
        <ele>650.3</ele>
        <time>2013-03-10T10:41:43Z</time>
      </trkpt>
      <trkpt lat="43.55861" lon="2.43072">
        <ele>650.1</ele>
        <time>2013-03-10T10:41:50Z</time>
      </trkpt>
      <trkpt lat="43.55863" lon="2.43084">
        <ele>650.6</ele>
        <time>2013-03-10T10:41:57Z</time>
      </trkpt>
      <trkpt lat="43.55863" lon="2.43086">
        <ele>650.6</ele>
        <time>2013-03-10T10:41:58Z</time>
      </trkpt>
      <trkpt lat="43.55866" lon="2.43107">
        <ele>651.7</ele>
        <time>2013-03-10T10:42:11Z</time>
      </trkpt>
      <trkpt lat="43.55866" lon="2.43118">
        <ele>653.2</ele>
        <time>2013-03-10T10:42:18Z</time>
      </trkpt>
      <trkpt lat="43.55865" lon="2.4313">
        <ele>653.4</ele>
        <time>2013-03-10T10:42:27Z</time>
      </trkpt>
      <trkpt lat="43.55856" lon="2.43128">
        <ele>654.3</ele>
        <time>2013-03-10T10:43:34Z</time>
      </trkpt>
      <trkpt lat="43.55856" lon="2.43127">
        <ele>654</ele>
        <time>2013-03-10T10:43:35Z</time>
      </trkpt>
      <trkpt lat="43.55839" lon="2.43124">
        <ele>653.8</ele>
        <time>2013-03-10T10:43:52Z</time>
      </trkpt>
      <trkpt lat="43.55831" lon="2.43128">
        <ele>653.6</ele>
        <time>2013-03-10T10:44:00Z</time>
      </trkpt>
      <trkpt lat="43.55823" lon="2.43133">
        <ele>653.6</ele>
        <time>2013-03-10T10:44:07Z</time>
      </trkpt>
      <trkpt lat="43.55816" lon="2.43137">
        <ele>653</ele>
        <time>2013-03-10T10:44:13Z</time>
      </trkpt>
      <trkpt lat="43.55808" lon="2.4314">
        <ele>652.8</ele>
        <time>2013-03-10T10:44:19Z</time>
      </trkpt>
      <trkpt lat="43.55801" lon="2.43146">
        <ele>653</ele>
        <time>2013-03-10T10:44:27Z</time>
      </trkpt>
      <trkpt lat="43.55793" lon="2.4315">
        <ele>651.7</ele>
        <time>2013-03-10T10:44:35Z</time>
      </trkpt>
      <trkpt lat="43.55791" lon="2.43151">
        <ele>651.6</ele>
        <time>2013-03-10T10:44:36Z</time>
      </trkpt>
      <trkpt lat="43.55778" lon="2.43161">
        <ele>650.6</ele>
        <time>2013-03-10T10:44:48Z</time>
      </trkpt>
      <trkpt lat="43.55772" lon="2.43167">
        <ele>649.4</ele>
        <time>2013-03-10T10:44:54Z</time>
      </trkpt>
      <trkpt lat="43.55765" lon="2.43175">
        <ele>649.8</ele>
        <time>2013-03-10T10:45:01Z</time>
      </trkpt>
      <trkpt lat="43.55759" lon="2.43182">
        <ele>649.7</ele>
        <time>2013-03-10T10:45:08Z</time>
      </trkpt>
      <trkpt lat="43.55753" lon="2.43191">
        <ele>648.7</ele>
        <time>2013-03-10T10:45:16Z</time>
      </trkpt>
      <trkpt lat="43.55747" lon="2.43198">
        <ele>647.2</ele>
        <time>2013-03-10T10:45:23Z</time>
      </trkpt>
      <trkpt lat="43.5574" lon="2.43205">
        <ele>647.6</ele>
        <time>2013-03-10T10:45:30Z</time>
      </trkpt>
      <trkpt lat="43.55736" lon="2.43214">
        <ele>647.3</ele>
        <time>2013-03-10T10:45:36Z</time>
      </trkpt>
      <trkpt lat="43.55735" lon="2.43216">
        <ele>647</ele>
        <time>2013-03-10T10:45:37Z</time>
      </trkpt>
      <trkpt lat="43.55725" lon="2.43233">
        <ele>645.6</ele>
        <time>2013-03-10T10:45:53Z</time>
      </trkpt>
      <trkpt lat="43.55717" lon="2.43234">
        <ele>645.1</ele>
        <time>2013-03-10T10:46:04Z</time>
      </trkpt>
      <trkpt lat="43.55708" lon="2.43233">
        <ele>645.9</ele>
        <time>2013-03-10T10:46:19Z</time>
      </trkpt>
      <trkpt lat="43.557" lon="2.43232">
        <ele>645.3</ele>
        <time>2013-03-10T10:46:30Z</time>
      </trkpt>
      <trkpt lat="43.55693" lon="2.43227">
        <ele>646.6</ele>
        <time>2013-03-10T10:46:37Z</time>
      </trkpt>
      <trkpt lat="43.55692" lon="2.43225">
        <ele>646.5</ele>
        <time>2013-03-10T10:46:38Z</time>
      </trkpt>
      <trkpt lat="43.55683" lon="2.43211">
        <ele>646.2</ele>
        <time>2013-03-10T10:46:48Z</time>
      </trkpt>
      <trkpt lat="43.55675" lon="2.43209">
        <ele>646.3</ele>
        <time>2013-03-10T10:46:53Z</time>
      </trkpt>
      <trkpt lat="43.55667" lon="2.43206">
        <ele>646.4</ele>
        <time>2013-03-10T10:46:59Z</time>
      </trkpt>
      <trkpt lat="43.55659" lon="2.43202">
        <ele>648.1</ele>
        <time>2013-03-10T10:47:06Z</time>
      </trkpt>
      <trkpt lat="43.55651" lon="2.43196">
        <ele>648.2</ele>
        <time>2013-03-10T10:47:14Z</time>
      </trkpt>
      <trkpt lat="43.55643" lon="2.43192">
        <ele>648.4</ele>
        <time>2013-03-10T10:47:22Z</time>
      </trkpt>
      <trkpt lat="43.55635" lon="2.43188">
        <ele>649.3</ele>
        <time>2013-03-10T10:47:30Z</time>
      </trkpt>
      <trkpt lat="43.55627" lon="2.43184">
        <ele>649.5</ele>
        <time>2013-03-10T10:47:38Z</time>
      </trkpt>
      <trkpt lat="43.55626" lon="2.43184">
        <ele>649.5</ele>
        <time>2013-03-10T10:47:39Z</time>
      </trkpt>
      <trkpt lat="43.5561" lon="2.43182">
        <ele>649.9</ele>
        <time>2013-03-10T10:47:52Z</time>
      </trkpt>
      <trkpt lat="43.55602" lon="2.43182">
        <ele>650</ele>
        <time>2013-03-10T10:47:58Z</time>
      </trkpt>
      <trkpt lat="43.55594" lon="2.43185">
        <ele>649.8</ele>
        <time>2013-03-10T10:48:04Z</time>
      </trkpt>
      <trkpt lat="43.55586" lon="2.43188">
        <ele>649.4</ele>
        <time>2013-03-10T10:48:10Z</time>
      </trkpt>
      <trkpt lat="43.55579" lon="2.43192">
        <ele>648.3</ele>
        <time>2013-03-10T10:48:15Z</time>
      </trkpt>
      <trkpt lat="43.55571" lon="2.43197">
        <ele>650.1</ele>
        <time>2013-03-10T10:48:21Z</time>
      </trkpt>
      <trkpt lat="43.55563" lon="2.432">
        <ele>648.8</ele>
        <time>2013-03-10T10:48:28Z</time>
      </trkpt>
      <trkpt lat="43.55554" lon="2.43202">
        <ele>649.2</ele>
        <time>2013-03-10T10:48:35Z</time>
      </trkpt>
      <trkpt lat="43.55545" lon="2.43203">
        <ele>649.3</ele>
        <time>2013-03-10T10:48:42Z</time>
      </trkpt>
      <trkpt lat="43.55544" lon="2.43203">
        <ele>649.1</ele>
        <time>2013-03-10T10:48:43Z</time>
      </trkpt>
      <trkpt lat="43.55529" lon="2.43204">
        <ele>648</ele>
        <time>2013-03-10T10:48:55Z</time>
      </trkpt>
      <trkpt lat="43.55521" lon="2.43205">
        <ele>649.1</ele>
        <time>2013-03-10T10:49:01Z</time>
      </trkpt>
      <trkpt lat="43.55512" lon="2.43205">
        <ele>649</ele>
        <time>2013-03-10T10:49:08Z</time>
      </trkpt>
      <trkpt lat="43.55504" lon="2.43205">
        <ele>649.4</ele>
        <time>2013-03-10T10:49:14Z</time>
      </trkpt>
      <trkpt lat="43.55495" lon="2.43207">
        <ele>649.5</ele>
        <time>2013-03-10T10:49:21Z</time>
      </trkpt>
      <trkpt lat="43.55487" lon="2.4321">
        <ele>648.4</ele>
        <time>2013-03-10T10:49:28Z</time>
      </trkpt>
      <trkpt lat="43.55479" lon="2.43214">
        <ele>647.8</ele>
        <time>2013-03-10T10:49:34Z</time>
      </trkpt>
      <trkpt lat="43.55471" lon="2.43216">
        <ele>647.1</ele>
        <time>2013-03-10T10:49:41Z</time>
      </trkpt>
      <trkpt lat="43.55462" lon="2.43218">
        <ele>645.7</ele>
        <time>2013-03-10T10:49:48Z</time>
      </trkpt>
      <trkpt lat="43.55461" lon="2.43218">
        <ele>646.2</ele>
        <time>2013-03-10T10:49:49Z</time>
      </trkpt>
      <trkpt lat="43.55446" lon="2.43215">
        <ele>644.7</ele>
        <time>2013-03-10T10:50:01Z</time>
      </trkpt>
      <trkpt lat="43.55438" lon="2.43212">
        <ele>643.5</ele>
        <time>2013-03-10T10:50:07Z</time>
      </trkpt>
      <trkpt lat="43.5543" lon="2.43211">
        <ele>643.2</ele>
        <time>2013-03-10T10:50:13Z</time>
      </trkpt>
      <trkpt lat="43.55422" lon="2.43209">
        <ele>642.8</ele>
        <time>2013-03-10T10:50:20Z</time>
      </trkpt>
      <trkpt lat="43.55413" lon="2.43207">
        <ele>641.9</ele>
        <time>2013-03-10T10:50:27Z</time>
      </trkpt>
      <trkpt lat="43.55405" lon="2.43205">
        <ele>640.4</ele>
        <time>2013-03-10T10:50:37Z</time>
      </trkpt>
      <trkpt lat="43.55397" lon="2.43203">
        <ele>639.2</ele>
        <time>2013-03-10T10:50:44Z</time>
      </trkpt>
      <trkpt lat="43.55389" lon="2.43201">
        <ele>638.7</ele>
        <time>2013-03-10T10:50:52Z</time>
      </trkpt>
      <trkpt lat="43.55388" lon="2.432">
        <ele>638.9</ele>
        <time>2013-03-10T10:50:53Z</time>
      </trkpt>
      <trkpt lat="43.55372" lon="2.43196">
        <ele>638.6</ele>
        <time>2013-03-10T10:51:07Z</time>
      </trkpt>
      <trkpt lat="43.55363" lon="2.43195">
        <ele>637.9</ele>
        <time>2013-03-10T10:51:14Z</time>
      </trkpt>
      <trkpt lat="43.55356" lon="2.43192">
        <ele>638.2</ele>
        <time>2013-03-10T10:51:20Z</time>
      </trkpt>
      <trkpt lat="43.55349" lon="2.43188">
        <ele>637.3</ele>
        <time>2013-03-10T10:51:26Z</time>
      </trkpt>
      <trkpt lat="43.55342" lon="2.43179">
        <ele>636.5</ele>
        <time>2013-03-10T10:51:33Z</time>
      </trkpt>
      <trkpt lat="43.55338" lon="2.43169">
        <ele>635.5</ele>
        <time>2013-03-10T10:51:40Z</time>
      </trkpt>
      <trkpt lat="43.55333" lon="2.4316">
        <ele>635.3</ele>
        <time>2013-03-10T10:51:47Z</time>
      </trkpt>
      <trkpt lat="43.55326" lon="2.43154">
        <ele>633.5</ele>
        <time>2013-03-10T10:51:55Z</time>
      </trkpt>
      <trkpt lat="43.55325" lon="2.43153">
        <ele>632.8</ele>
        <time>2013-03-10T10:51:56Z</time>
      </trkpt>
      <trkpt lat="43.55311" lon="2.43145">
        <ele>631.8</ele>
        <time>2013-03-10T10:52:09Z</time>
      </trkpt>
      <trkpt lat="43.55304" lon="2.4314">
        <ele>631.9</ele>
        <time>2013-03-10T10:52:15Z</time>
      </trkpt>
      <trkpt lat="43.55296" lon="2.43136">
        <ele>631.2</ele>
        <time>2013-03-10T10:52:21Z</time>
      </trkpt>
      <trkpt lat="43.55289" lon="2.43133">
        <ele>629.8</ele>
        <time>2013-03-10T10:52:26Z</time>
      </trkpt>
      <trkpt lat="43.55281" lon="2.43129">
        <ele>629.7</ele>
        <time>2013-03-10T10:52:32Z</time>
      </trkpt>
      <trkpt lat="43.55273" lon="2.43125">
        <ele>628.6</ele>
        <time>2013-03-10T10:52:39Z</time>
      </trkpt>
      <trkpt lat="43.55265" lon="2.4312">
        <ele>626.7</ele>
        <time>2013-03-10T10:52:46Z</time>
      </trkpt>
      <trkpt lat="43.55257" lon="2.43117">
        <ele>626.8</ele>
        <time>2013-03-10T10:52:53Z</time>
      </trkpt>
      <trkpt lat="43.55249" lon="2.43114">
        <ele>625.3</ele>
        <time>2013-03-10T10:53:00Z</time>
      </trkpt>
      <trkpt lat="43.55248" lon="2.43113">
        <ele>625.3</ele>
        <time>2013-03-10T10:53:01Z</time>
      </trkpt>
      <trkpt lat="43.55234" lon="2.43104">
        <ele>623.1</ele>
        <time>2013-03-10T10:53:14Z</time>
      </trkpt>
      <trkpt lat="43.55226" lon="2.431">
        <ele>621.5</ele>
        <time>2013-03-10T10:53:21Z</time>
      </trkpt>
      <trkpt lat="43.55217" lon="2.43098">
        <ele>620.7</ele>
        <time>2013-03-10T10:53:28Z</time>
      </trkpt>
      <trkpt lat="43.5521" lon="2.43105">
        <ele>620.6</ele>
        <time>2013-03-10T10:53:36Z</time>
      </trkpt>
      <trkpt lat="43.55204" lon="2.43113">
        <ele>618.7</ele>
        <time>2013-03-10T10:53:44Z</time>
      </trkpt>
      <trkpt lat="43.55197" lon="2.43119">
        <ele>618.8</ele>
        <time>2013-03-10T10:53:51Z</time>
      </trkpt>
      <trkpt lat="43.55189" lon="2.43125">
        <ele>618.5</ele>
        <time>2013-03-10T10:53:57Z</time>
      </trkpt>
      <trkpt lat="43.55182" lon="2.43131">
        <ele>617.4</ele>
        <time>2013-03-10T10:54:03Z</time>
      </trkpt>
      <trkpt lat="43.55181" lon="2.43132">
        <ele>617.8</ele>
        <time>2013-03-10T10:54:04Z</time>
      </trkpt>
      <trkpt lat="43.55168" lon="2.43144">
        <ele>617.5</ele>
        <time>2013-03-10T10:54:18Z</time>
      </trkpt>
      <trkpt lat="43.55161" lon="2.4315">
        <ele>617.2</ele>
        <time>2013-03-10T10:54:26Z</time>
      </trkpt>
      <trkpt lat="43.55153" lon="2.43154">
        <ele>617.3</ele>
        <time>2013-03-10T10:54:35Z</time>
      </trkpt>
      <trkpt lat="43.55145" lon="2.43157">
        <ele>617.2</ele>
        <time>2013-03-10T10:54:45Z</time>
      </trkpt>
      <trkpt lat="43.55137" lon="2.43161">
        <ele>617.4</ele>
        <time>2013-03-10T10:54:54Z</time>
      </trkpt>
      <trkpt lat="43.55128" lon="2.43163">
        <ele>618.1</ele>
        <time>2013-03-10T10:55:01Z</time>
      </trkpt>
      <trkpt lat="43.55121" lon="2.43159">
        <ele>617.7</ele>
        <time>2013-03-10T10:55:07Z</time>
      </trkpt>
      <trkpt lat="43.5512" lon="2.43158">
        <ele>617.6</ele>
        <time>2013-03-10T10:55:08Z</time>
      </trkpt>
      <trkpt lat="43.55105" lon="2.43154">
        <ele>617.7</ele>
        <time>2013-03-10T10:55:21Z</time>
      </trkpt>
      <trkpt lat="43.55096" lon="2.43153">
        <ele>619.6</ele>
        <time>2013-03-10T10:55:31Z</time>
      </trkpt>
      <trkpt lat="43.55088" lon="2.43153">
        <ele>620.6</ele>
        <time>2013-03-10T10:55:41Z</time>
      </trkpt>
      <trkpt lat="43.5508" lon="2.43152">
        <ele>621.6</ele>
        <time>2013-03-10T10:55:48Z</time>
      </trkpt>
      <trkpt lat="43.55072" lon="2.43152">
        <ele>620.5</ele>
        <time>2013-03-10T10:55:54Z</time>
      </trkpt>
      <trkpt lat="43.55063" lon="2.43151">
        <ele>620.1</ele>
        <time>2013-03-10T10:56:02Z</time>
      </trkpt>
      <trkpt lat="43.55054" lon="2.43151">
        <ele>619.8</ele>
        <time>2013-03-10T10:56:10Z</time>
      </trkpt>
      <trkpt lat="43.55053" lon="2.43151">
        <ele>620.1</ele>
        <time>2013-03-10T10:56:11Z</time>
      </trkpt>
      <trkpt lat="43.55037" lon="2.43151">
        <ele>618.9</ele>
        <time>2013-03-10T10:56:22Z</time>
      </trkpt>
      <trkpt lat="43.55029" lon="2.43151">
        <ele>617.8</ele>
        <time>2013-03-10T10:56:30Z</time>
      </trkpt>
      <trkpt lat="43.55021" lon="2.43151">
        <ele>617.8</ele>
        <time>2013-03-10T10:56:36Z</time>
      </trkpt>
      <trkpt lat="43.55013" lon="2.43152">
        <ele>618.4</ele>
        <time>2013-03-10T10:56:42Z</time>
      </trkpt>
      <trkpt lat="43.55004" lon="2.43152">
        <ele>615.9</ele>
        <time>2013-03-10T10:56:50Z</time>
      </trkpt>
      <trkpt lat="43.54995" lon="2.43152">
        <ele>615.8</ele>
        <time>2013-03-10T10:57:00Z</time>
      </trkpt>
      <trkpt lat="43.54987" lon="2.4315">
        <ele>615.3</ele>
        <time>2013-03-10T10:57:08Z</time>
      </trkpt>
      <trkpt lat="43.5498" lon="2.43148">
        <ele>615</ele>
        <time>2013-03-10T10:57:13Z</time>
      </trkpt>
      <trkpt lat="43.54978" lon="2.43147">
        <ele>614.7</ele>
        <time>2013-03-10T10:57:14Z</time>
      </trkpt>
      <trkpt lat="43.54963" lon="2.43144">
        <ele>614.1</ele>
        <time>2013-03-10T10:57:23Z</time>
      </trkpt>
      <trkpt lat="43.54955" lon="2.43144">
        <ele>613.9</ele>
        <time>2013-03-10T10:57:28Z</time>
      </trkpt>
      <trkpt lat="43.54947" lon="2.43143">
        <ele>613</ele>
        <time>2013-03-10T10:57:36Z</time>
      </trkpt>
      <trkpt lat="43.54939" lon="2.43139">
        <ele>612.6</ele>
        <time>2013-03-10T10:57:44Z</time>
      </trkpt>
      <trkpt lat="43.5493" lon="2.43134">
        <ele>613</ele>
        <time>2013-03-10T10:57:51Z</time>
      </trkpt>
      <trkpt lat="43.54923" lon="2.43132">
        <ele>612</ele>
        <time>2013-03-10T10:57:58Z</time>
      </trkpt>
      <trkpt lat="43.54914" lon="2.43129">
        <ele>611.7</ele>
        <time>2013-03-10T10:58:05Z</time>
      </trkpt>
      <trkpt lat="43.54907" lon="2.43123">
        <ele>611.9</ele>
        <time>2013-03-10T10:58:12Z</time>
      </trkpt>
      <trkpt lat="43.54902" lon="2.43114">
        <ele>612.6</ele>
        <time>2013-03-10T10:58:17Z</time>
      </trkpt>
      <trkpt lat="43.54902" lon="2.43112">
        <ele>612.7</ele>
        <time>2013-03-10T10:58:18Z</time>
      </trkpt>
      <trkpt lat="43.54899" lon="2.43092">
        <ele>612.3</ele>
        <time>2013-03-10T10:58:28Z</time>
      </trkpt>
      <trkpt lat="43.54898" lon="2.4308">
        <ele>612.4</ele>
        <time>2013-03-10T10:58:34Z</time>
      </trkpt>
      <trkpt lat="43.54894" lon="2.4307">
        <ele>612</ele>
        <time>2013-03-10T10:58:40Z</time>
      </trkpt>
      <trkpt lat="43.5489" lon="2.4306">
        <ele>612.6</ele>
        <time>2013-03-10T10:58:47Z</time>
      </trkpt>
      <trkpt lat="43.54886" lon="2.43051">
        <ele>613.5</ele>
        <time>2013-03-10T10:58:53Z</time>
      </trkpt>
      <trkpt lat="43.5488" lon="2.43041">
        <ele>612.9</ele>
        <time>2013-03-10T10:59:00Z</time>
      </trkpt>
      <trkpt lat="43.54875" lon="2.43032">
        <ele>612.2</ele>
        <time>2013-03-10T10:59:07Z</time>
      </trkpt>
      <trkpt lat="43.5487" lon="2.43022">
        <ele>612.6</ele>
        <time>2013-03-10T10:59:14Z</time>
      </trkpt>
      <trkpt lat="43.54865" lon="2.43013">
        <ele>612.8</ele>
        <time>2013-03-10T10:59:21Z</time>
      </trkpt>
      <trkpt lat="43.54864" lon="2.43012">
        <ele>612.6</ele>
        <time>2013-03-10T10:59:22Z</time>
      </trkpt>
      <trkpt lat="43.54856" lon="2.42994">
        <ele>612.1</ele>
        <time>2013-03-10T10:59:34Z</time>
      </trkpt>
      <trkpt lat="43.5485" lon="2.42987">
        <ele>611.7</ele>
        <time>2013-03-10T10:59:40Z</time>
      </trkpt>
      <trkpt lat="43.54842" lon="2.42981">
        <ele>612.6</ele>
        <time>2013-03-10T10:59:47Z</time>
      </trkpt>
      <trkpt lat="43.54836" lon="2.42975">
        <ele>611.8</ele>
        <time>2013-03-10T10:59:53Z</time>
      </trkpt>
      <trkpt lat="43.54828" lon="2.42969">
        <ele>610.7</ele>
        <time>2013-03-10T11:00:00Z</time>
      </trkpt>
      <trkpt lat="43.54825" lon="2.42958">
        <ele>610.2</ele>
        <time>2013-03-10T11:00:07Z</time>
      </trkpt>
      <trkpt lat="43.54822" lon="2.42948">
        <ele>610.4</ele>
        <time>2013-03-10T11:00:14Z</time>
      </trkpt>
      <trkpt lat="43.54818" lon="2.42938">
        <ele>610</ele>
        <time>2013-03-10T11:00:21Z</time>
      </trkpt>
      <trkpt lat="43.54813" lon="2.42929">
        <ele>610.3</ele>
        <time>2013-03-10T11:00:28Z</time>
      </trkpt>
      <trkpt lat="43.54813" lon="2.42927">
        <ele>610.3</ele>
        <time>2013-03-10T11:00:29Z</time>
      </trkpt>
      <trkpt lat="43.54805" lon="2.4291">
        <ele>609.9</ele>
        <time>2013-03-10T11:00:40Z</time>
      </trkpt>
      <trkpt lat="43.54801" lon="2.42899">
        <ele>609.4</ele>
        <time>2013-03-10T11:00:47Z</time>
      </trkpt>
      <trkpt lat="43.54796" lon="2.42889">
        <ele>609</ele>
        <time>2013-03-10T11:00:54Z</time>
      </trkpt>
      <trkpt lat="43.54791" lon="2.42879">
        <ele>608.7</ele>
        <time>2013-03-10T11:01:01Z</time>
      </trkpt>
      <trkpt lat="43.54786" lon="2.42871">
        <ele>607.9</ele>
        <time>2013-03-10T11:01:09Z</time>
      </trkpt>
      <trkpt lat="43.54781" lon="2.42861">
        <ele>608.3</ele>
        <time>2013-03-10T11:01:18Z</time>
      </trkpt>
      <trkpt lat="43.54773" lon="2.42865">
        <ele>608.5</ele>
        <time>2013-03-10T11:06:20Z</time>
      </trkpt>
      <trkpt lat="43.54772" lon="2.42865">
        <ele>608.5</ele>
        <time>2013-03-10T11:06:21Z</time>
      </trkpt>
      <trkpt lat="43.54764" lon="2.42884">
        <ele>607.7</ele>
        <time>2013-03-10T11:06:35Z</time>
      </trkpt>
      <trkpt lat="43.5476" lon="2.42894">
        <ele>607.9</ele>
        <time>2013-03-10T11:06:41Z</time>
      </trkpt>
      <trkpt lat="43.54757" lon="2.42905">
        <ele>607.2</ele>
        <time>2013-03-10T11:06:47Z</time>
      </trkpt>
      <trkpt lat="43.54754" lon="2.42915">
        <ele>606.6</ele>
        <time>2013-03-10T11:06:53Z</time>
      </trkpt>
      <trkpt lat="43.54751" lon="2.42926">
        <ele>606.8</ele>
        <time>2013-03-10T11:07:00Z</time>
      </trkpt>
      <trkpt lat="43.54748" lon="2.42936">
        <ele>606.9</ele>
        <time>2013-03-10T11:07:06Z</time>
      </trkpt>
      <trkpt lat="43.54744" lon="2.42946">
        <ele>606.8</ele>
        <time>2013-03-10T11:07:12Z</time>
      </trkpt>
      <trkpt lat="43.5474" lon="2.42956">
        <ele>605.9</ele>
        <time>2013-03-10T11:07:18Z</time>
      </trkpt>
      <trkpt lat="43.54736" lon="2.42966">
        <ele>605.7</ele>
        <time>2013-03-10T11:07:24Z</time>
      </trkpt>
      <trkpt lat="43.54736" lon="2.42968">
        <ele>605.7</ele>
        <time>2013-03-10T11:07:25Z</time>
      </trkpt>
      <trkpt lat="43.54729" lon="2.42988">
        <ele>605.5</ele>
        <time>2013-03-10T11:07:36Z</time>
      </trkpt>
      <trkpt lat="43.54727" lon="2.42999">
        <ele>605.1</ele>
        <time>2013-03-10T11:07:42Z</time>
      </trkpt>
      <trkpt lat="43.54724" lon="2.4301">
        <ele>605.4</ele>
        <time>2013-03-10T11:07:48Z</time>
      </trkpt>
      <trkpt lat="43.54722" lon="2.4302">
        <ele>606.1</ele>
        <time>2013-03-10T11:07:54Z</time>
      </trkpt>
      <trkpt lat="43.5472" lon="2.4303">
        <ele>605.1</ele>
        <time>2013-03-10T11:07:59Z</time>
      </trkpt>
      <trkpt lat="43.54715" lon="2.4304">
        <ele>605.5</ele>
        <time>2013-03-10T11:08:04Z</time>
      </trkpt>
      <trkpt lat="43.54709" lon="2.43046">
        <ele>605.6</ele>
        <time>2013-03-10T11:08:09Z</time>
      </trkpt>
      <trkpt lat="43.54702" lon="2.43049">
        <ele>605.4</ele>
        <time>2013-03-10T11:08:14Z</time>
      </trkpt>
      <trkpt lat="43.54693" lon="2.43048">
        <ele>604.9</ele>
        <time>2013-03-10T11:08:20Z</time>
      </trkpt>
      <trkpt lat="43.54685" lon="2.43043">
        <ele>604.8</ele>
        <time>2013-03-10T11:08:27Z</time>
      </trkpt>
      <trkpt lat="43.54684" lon="2.43042">
        <ele>605</ele>
        <time>2013-03-10T11:08:28Z</time>
      </trkpt>
      <trkpt lat="43.5467" lon="2.4303">
        <ele>606.7</ele>
        <time>2013-03-10T11:08:39Z</time>
      </trkpt>
      <trkpt lat="43.54662" lon="2.43032">
        <ele>606</ele>
        <time>2013-03-10T11:08:46Z</time>
      </trkpt>
      <trkpt lat="43.54656" lon="2.43039">
        <ele>606.6</ele>
        <time>2013-03-10T11:08:52Z</time>
      </trkpt>
      <trkpt lat="43.5465" lon="2.43047">
        <ele>608.1</ele>
        <time>2013-03-10T11:08:58Z</time>
      </trkpt>
      <trkpt lat="43.54646" lon="2.43056">
        <ele>608.8</ele>
        <time>2013-03-10T11:09:04Z</time>
      </trkpt>
      <trkpt lat="43.54642" lon="2.43066">
        <ele>609</ele>
        <time>2013-03-10T11:09:10Z</time>
      </trkpt>
      <trkpt lat="43.54638" lon="2.43076">
        <ele>609.2</ele>
        <time>2013-03-10T11:09:15Z</time>
      </trkpt>
      <trkpt lat="43.54633" lon="2.43085">
        <ele>610</ele>
        <time>2013-03-10T11:09:20Z</time>
      </trkpt>
      <trkpt lat="43.54629" lon="2.43094">
        <ele>610.2</ele>
        <time>2013-03-10T11:09:25Z</time>
      </trkpt>
      <trkpt lat="43.54623" lon="2.43103">
        <ele>610.5</ele>
        <time>2013-03-10T11:09:38Z</time>
      </trkpt>
      <trkpt lat="43.54623" lon="2.43103">
        <ele>610.7</ele>
        <time>2013-03-10T11:09:39Z</time>
      </trkpt>
      <trkpt lat="43.54613" lon="2.43121">
        <ele>610.8</ele>
        <time>2013-03-10T11:10:12Z</time>
      </trkpt>
      <trkpt lat="43.54617" lon="2.43132">
        <ele>612</ele>
        <time>2013-03-10T11:10:27Z</time>
      </trkpt>
      <trkpt lat="43.54624" lon="2.43138">
        <ele>611.9</ele>
        <time>2013-03-10T11:10:33Z</time>
      </trkpt>
      <trkpt lat="43.5463" lon="2.43145">
        <ele>613.6</ele>
        <time>2013-03-10T11:10:40Z</time>
      </trkpt>
      <trkpt lat="43.54631" lon="2.43146">
        <ele>613.7</ele>
        <time>2013-03-10T11:10:41Z</time>
      </trkpt>
      <trkpt lat="43.54628" lon="2.43166">
        <ele>615.6</ele>
        <time>2013-03-10T11:10:58Z</time>
      </trkpt>
      <trkpt lat="43.54622" lon="2.43174">
        <ele>615.7</ele>
        <time>2013-03-10T11:11:05Z</time>
      </trkpt>
      <trkpt lat="43.54615" lon="2.43182">
        <ele>616.3</ele>
        <time>2013-03-10T11:11:12Z</time>
      </trkpt>
      <trkpt lat="43.5461" lon="2.4319">
        <ele>616.1</ele>
        <time>2013-03-10T11:11:20Z</time>
      </trkpt>
      <trkpt lat="43.54604" lon="2.432">
        <ele>617.6</ele>
        <time>2013-03-10T11:11:28Z</time>
      </trkpt>
      <trkpt lat="43.546" lon="2.43209">
        <ele>617.8</ele>
        <time>2013-03-10T11:11:35Z</time>
      </trkpt>
      <trkpt lat="43.54596" lon="2.4322">
        <ele>617.9</ele>
        <time>2013-03-10T11:11:42Z</time>
      </trkpt>
      <trkpt lat="43.54595" lon="2.43222">
        <ele>618.2</ele>
        <time>2013-03-10T11:11:43Z</time>
      </trkpt>
      <trkpt lat="43.54584" lon="2.43237">
        <ele>619.4</ele>
        <time>2013-03-10T11:11:56Z</time>
      </trkpt>
      <trkpt lat="43.54577" lon="2.43244">
        <ele>617.4</ele>
        <time>2013-03-10T11:12:03Z</time>
      </trkpt>
      <trkpt lat="43.54569" lon="2.43247">
        <ele>619</ele>
        <time>2013-03-10T11:12:10Z</time>
      </trkpt>
      <trkpt lat="43.54562" lon="2.43252">
        <ele>618</ele>
        <time>2013-03-10T11:12:17Z</time>
      </trkpt>
      <trkpt lat="43.54554" lon="2.43255">
        <ele>617.6</ele>
        <time>2013-03-10T11:12:23Z</time>
      </trkpt>
      <trkpt lat="43.54546" lon="2.43258">
        <ele>616</ele>
        <time>2013-03-10T11:12:29Z</time>
      </trkpt>
      <trkpt lat="43.54539" lon="2.43264">
        <ele>614.6</ele>
        <time>2013-03-10T11:12:36Z</time>
      </trkpt>
      <trkpt lat="43.54533" lon="2.43269">
        <ele>615.1</ele>
        <time>2013-03-10T11:12:42Z</time>
      </trkpt>
      <trkpt lat="43.54526" lon="2.43275">
        <ele>615.1</ele>
        <time>2013-03-10T11:12:47Z</time>
      </trkpt>
      <trkpt lat="43.54524" lon="2.43276">
        <ele>615.2</ele>
        <time>2013-03-10T11:12:48Z</time>
      </trkpt>
      <trkpt lat="43.54512" lon="2.43287">
        <ele>614.9</ele>
        <time>2013-03-10T11:12:57Z</time>
      </trkpt>
      <trkpt lat="43.54506" lon="2.43294">
        <ele>612.9</ele>
        <time>2013-03-10T11:13:02Z</time>
      </trkpt>
      <trkpt lat="43.545" lon="2.43302">
        <ele>612.1</ele>
        <time>2013-03-10T11:13:08Z</time>
      </trkpt>
      <trkpt lat="43.54494" lon="2.4331">
        <ele>611.2</ele>
        <time>2013-03-10T11:13:18Z</time>
      </trkpt>
      <trkpt lat="43.5449" lon="2.43319">
        <ele>610.9</ele>
        <time>2013-03-10T11:13:25Z</time>
      </trkpt>
      <trkpt lat="43.54485" lon="2.4333">
        <ele>609.9</ele>
        <time>2013-03-10T11:13:32Z</time>
      </trkpt>
      <trkpt lat="43.54481" lon="2.4334">
        <ele>610.1</ele>
        <time>2013-03-10T11:13:38Z</time>
      </trkpt>
      <trkpt lat="43.54478" lon="2.43351">
        <ele>611.1</ele>
        <time>2013-03-10T11:13:45Z</time>
      </trkpt>
      <trkpt lat="43.54475" lon="2.43362">
        <ele>610.1</ele>
        <time>2013-03-10T11:13:53Z</time>
      </trkpt>
      <trkpt lat="43.54474" lon="2.43363">
        <ele>610.1</ele>
        <time>2013-03-10T11:13:54Z</time>
      </trkpt>
      <trkpt lat="43.54466" lon="2.43381">
        <ele>610.6</ele>
        <time>2013-03-10T11:14:06Z</time>
      </trkpt>
      <trkpt lat="43.54461" lon="2.43389">
        <ele>610.3</ele>
        <time>2013-03-10T11:14:11Z</time>
      </trkpt>
      <trkpt lat="43.54456" lon="2.43398">
        <ele>610.2</ele>
        <time>2013-03-10T11:14:16Z</time>
      </trkpt>
      <trkpt lat="43.5445" lon="2.43407">
        <ele>609.9</ele>
        <time>2013-03-10T11:14:23Z</time>
      </trkpt>
      <trkpt lat="43.54444" lon="2.43416">
        <ele>610.6</ele>
        <time>2013-03-10T11:14:33Z</time>
      </trkpt>
      <trkpt lat="43.54438" lon="2.43423">
        <ele>611</ele>
        <time>2013-03-10T11:14:40Z</time>
      </trkpt>
      <trkpt lat="43.54432" lon="2.43431">
        <ele>611.8</ele>
        <time>2013-03-10T11:14:47Z</time>
      </trkpt>
      <trkpt lat="43.54426" lon="2.4344">
        <ele>611.2</ele>
        <time>2013-03-10T11:14:55Z</time>
      </trkpt>
      <trkpt lat="43.54425" lon="2.43441">
        <ele>611.4</ele>
        <time>2013-03-10T11:14:56Z</time>
      </trkpt>
      <trkpt lat="43.54413" lon="2.43457">
        <ele>612</ele>
        <time>2013-03-10T11:15:13Z</time>
      </trkpt>
      <trkpt lat="43.54407" lon="2.43466">
        <ele>611.9</ele>
        <time>2013-03-10T11:15:23Z</time>
      </trkpt>
      <trkpt lat="43.54401" lon="2.43475">
        <ele>613.2</ele>
        <time>2013-03-10T11:15:32Z</time>
      </trkpt>
      <trkpt lat="43.54395" lon="2.43483">
        <ele>613.9</ele>
        <time>2013-03-10T11:15:41Z</time>
      </trkpt>
      <trkpt lat="43.54389" lon="2.43491">
        <ele>614</ele>
        <time>2013-03-10T11:15:50Z</time>
      </trkpt>
      <trkpt lat="43.54384" lon="2.43501">
        <ele>614.4</ele>
        <time>2013-03-10T11:15:58Z</time>
      </trkpt>
      <trkpt lat="43.54383" lon="2.43502">
        <ele>614.4</ele>
        <time>2013-03-10T11:15:59Z</time>
      </trkpt>
      <trkpt lat="43.54373" lon="2.43518">
        <ele>616.1</ele>
        <time>2013-03-10T11:16:15Z</time>
      </trkpt>
      <trkpt lat="43.54367" lon="2.43528">
        <ele>617.5</ele>
        <time>2013-03-10T11:16:26Z</time>
      </trkpt>
      <trkpt lat="43.54361" lon="2.43536">
        <ele>617.7</ele>
        <time>2013-03-10T11:16:35Z</time>
      </trkpt>
      <trkpt lat="43.54354" lon="2.43543">
        <ele>618.2</ele>
        <time>2013-03-10T11:16:44Z</time>
      </trkpt>
      <trkpt lat="43.54348" lon="2.43552">
        <ele>618.8</ele>
        <time>2013-03-10T11:16:52Z</time>
      </trkpt>
      <trkpt lat="43.54343" lon="2.43562">
        <ele>620.2</ele>
        <time>2013-03-10T11:17:00Z</time>
      </trkpt>
      <trkpt lat="43.54342" lon="2.43562">
        <ele>620.3</ele>
        <time>2013-03-10T11:17:01Z</time>
      </trkpt>
      <trkpt lat="43.5433" lon="2.43578">
        <ele>621.7</ele>
        <time>2013-03-10T11:17:18Z</time>
      </trkpt>
      <trkpt lat="43.54324" lon="2.43586">
        <ele>622.4</ele>
        <time>2013-03-10T11:17:25Z</time>
      </trkpt>
      <trkpt lat="43.54318" lon="2.43594">
        <ele>623.4</ele>
        <time>2013-03-10T11:17:33Z</time>
      </trkpt>
      <trkpt lat="43.54313" lon="2.43603">
        <ele>623</ele>
        <time>2013-03-10T11:17:41Z</time>
      </trkpt>
      <trkpt lat="43.54308" lon="2.43611">
        <ele>623.3</ele>
        <time>2013-03-10T11:17:49Z</time>
      </trkpt>
      <trkpt lat="43.54302" lon="2.4362">
        <ele>623.8</ele>
        <time>2013-03-10T11:17:57Z</time>
      </trkpt>
      <trkpt lat="43.54299" lon="2.43631">
        <ele>623.9</ele>
        <time>2013-03-10T11:18:09Z</time>
      </trkpt>
      <trkpt lat="43.54299" lon="2.43632">
        <ele>623.8</ele>
        <time>2013-03-10T11:18:10Z</time>
      </trkpt>
      <trkpt lat="43.54294" lon="2.43654">
        <ele>624</ele>
        <time>2013-03-10T11:18:34Z</time>
      </trkpt>
      <trkpt lat="43.54285" lon="2.43654">
        <ele>624.2</ele>
        <time>2013-03-10T11:19:19Z</time>
      </trkpt>
      <trkpt lat="43.54285" lon="2.43654">
        <ele>624.5</ele>
        <time>2013-03-10T11:19:20Z</time>
      </trkpt>
      <trkpt lat="43.54274" lon="2.43671">
        <ele>625.1</ele>
        <time>2013-03-10T11:19:38Z</time>
      </trkpt>
      <trkpt lat="43.54268" lon="2.43679">
        <ele>624.1</ele>
        <time>2013-03-10T11:19:48Z</time>
      </trkpt>
      <trkpt lat="43.5426" lon="2.43685">
        <ele>623.8</ele>
        <time>2013-03-10T11:19:56Z</time>
      </trkpt>
      <trkpt lat="43.54253" lon="2.43693">
        <ele>624.5</ele>
        <time>2013-03-10T11:20:07Z</time>
      </trkpt>
      <trkpt lat="43.54248" lon="2.43702">
        <ele>623.7</ele>
        <time>2013-03-10T11:20:15Z</time>
      </trkpt>
      <trkpt lat="43.54243" lon="2.43712">
        <ele>624.5</ele>
        <time>2013-03-10T11:20:22Z</time>
      </trkpt>
      <trkpt lat="43.54242" lon="2.43713">
        <ele>624.3</ele>
        <time>2013-03-10T11:20:23Z</time>
      </trkpt>
      <trkpt lat="43.54234" lon="2.43732">
        <ele>623.7</ele>
        <time>2013-03-10T11:20:40Z</time>
      </trkpt>
      <trkpt lat="43.5423" lon="2.43741">
        <ele>623.2</ele>
        <time>2013-03-10T11:20:49Z</time>
      </trkpt>
      <trkpt lat="43.54226" lon="2.43751">
        <ele>623.4</ele>
        <time>2013-03-10T11:20:56Z</time>
      </trkpt>
      <trkpt lat="43.54223" lon="2.43761">
        <ele>623.5</ele>
        <time>2013-03-10T11:21:02Z</time>
      </trkpt>
      <trkpt lat="43.5422" lon="2.43771">
        <ele>623.3</ele>
        <time>2013-03-10T11:21:08Z</time>
      </trkpt>
      <trkpt lat="43.54218" lon="2.43782">
        <ele>623.9</ele>
        <time>2013-03-10T11:21:14Z</time>
      </trkpt>
      <trkpt lat="43.54217" lon="2.43794">
        <ele>624</ele>
        <time>2013-03-10T11:21:20Z</time>
      </trkpt>
      <trkpt lat="43.54217" lon="2.43804">
        <ele>624</ele>
        <time>2013-03-10T11:21:26Z</time>
      </trkpt>
      <trkpt lat="43.54217" lon="2.43806">
        <ele>624.1</ele>
        <time>2013-03-10T11:21:27Z</time>
      </trkpt>
      <trkpt lat="43.54216" lon="2.43828">
        <ele>624.3</ele>
        <time>2013-03-10T11:21:40Z</time>
      </trkpt>
      <trkpt lat="43.54214" lon="2.43839">
        <ele>624.8</ele>
        <time>2013-03-10T11:21:47Z</time>
      </trkpt>
      <trkpt lat="43.5421" lon="2.4385">
        <ele>626.7</ele>
        <time>2013-03-10T11:21:54Z</time>
      </trkpt>
      <trkpt lat="43.54206" lon="2.4386">
        <ele>626.7</ele>
        <time>2013-03-10T11:22:01Z</time>
      </trkpt>
      <trkpt lat="43.54201" lon="2.43871">
        <ele>627</ele>
        <time>2013-03-10T11:22:08Z</time>
      </trkpt>
      <trkpt lat="43.54197" lon="2.4388">
        <ele>627.1</ele>
        <time>2013-03-10T11:22:15Z</time>
      </trkpt>
      <trkpt lat="43.54191" lon="2.43889">
        <ele>627.1</ele>
        <time>2013-03-10T11:22:22Z</time>
      </trkpt>
      <trkpt lat="43.54187" lon="2.43899">
        <ele>627.8</ele>
        <time>2013-03-10T11:22:29Z</time>
      </trkpt>
      <trkpt lat="43.54186" lon="2.439">
        <ele>627.9</ele>
        <time>2013-03-10T11:22:30Z</time>
      </trkpt>
      <trkpt lat="43.54176" lon="2.43916">
        <ele>627.6</ele>
        <time>2013-03-10T11:22:43Z</time>
      </trkpt>
      <trkpt lat="43.54171" lon="2.43924">
        <ele>628.3</ele>
        <time>2013-03-10T11:22:50Z</time>
      </trkpt>
      <trkpt lat="43.54166" lon="2.43934">
        <ele>628.4</ele>
        <time>2013-03-10T11:22:57Z</time>
      </trkpt>
      <trkpt lat="43.54162" lon="2.43944">
        <ele>628.8</ele>
        <time>2013-03-10T11:23:03Z</time>
      </trkpt>
      <trkpt lat="43.54158" lon="2.43954">
        <ele>629.2</ele>
        <time>2013-03-10T11:23:09Z</time>
      </trkpt>
      <trkpt lat="43.54153" lon="2.43964">
        <ele>629.2</ele>
        <time>2013-03-10T11:23:15Z</time>
      </trkpt>
      <trkpt lat="43.54149" lon="2.43973">
        <ele>630.4</ele>
        <time>2013-03-10T11:23:20Z</time>
      </trkpt>
      <trkpt lat="43.54145" lon="2.43983">
        <ele>631.1</ele>
        <time>2013-03-10T11:23:26Z</time>
      </trkpt>
      <trkpt lat="43.54142" lon="2.43994">
        <ele>631.8</ele>
        <time>2013-03-10T11:23:33Z</time>
      </trkpt>
      <trkpt lat="43.54141" lon="2.43995">
        <ele>631.7</ele>
        <time>2013-03-10T11:23:34Z</time>
      </trkpt>
      <trkpt lat="43.54135" lon="2.44015">
        <ele>631.2</ele>
        <time>2013-03-10T11:23:45Z</time>
      </trkpt>
      <trkpt lat="43.5413" lon="2.44025">
        <ele>631.5</ele>
        <time>2013-03-10T11:23:51Z</time>
      </trkpt>
      <trkpt lat="43.54127" lon="2.44035">
        <ele>632.4</ele>
        <time>2013-03-10T11:23:57Z</time>
      </trkpt>
      <trkpt lat="43.54123" lon="2.44045">
        <ele>632.5</ele>
        <time>2013-03-10T11:24:03Z</time>
      </trkpt>
      <trkpt lat="43.5412" lon="2.44056">
        <ele>632</ele>
        <time>2013-03-10T11:24:09Z</time>
      </trkpt>
      <trkpt lat="43.54117" lon="2.44066">
        <ele>633.2</ele>
        <time>2013-03-10T11:24:15Z</time>
      </trkpt>
      <trkpt lat="43.54112" lon="2.44074">
        <ele>633.1</ele>
        <time>2013-03-10T11:24:21Z</time>
      </trkpt>
      <trkpt lat="43.54106" lon="2.44082">
        <ele>632.6</ele>
        <time>2013-03-10T11:24:27Z</time>
      </trkpt>
      <trkpt lat="43.54099" lon="2.44088">
        <ele>633.8</ele>
        <time>2013-03-10T11:24:33Z</time>
      </trkpt>
      <trkpt lat="43.54093" lon="2.44095">
        <ele>634.1</ele>
        <time>2013-03-10T11:24:41Z</time>
      </trkpt>
      <trkpt lat="43.54092" lon="2.44096">
        <ele>634.4</ele>
        <time>2013-03-10T11:24:42Z</time>
      </trkpt>
      <trkpt lat="43.54079" lon="2.44111">
        <ele>635.2</ele>
        <time>2013-03-10T11:24:55Z</time>
      </trkpt>
      <trkpt lat="43.54075" lon="2.44121">
        <ele>635.6</ele>
        <time>2013-03-10T11:25:02Z</time>
      </trkpt>
      <trkpt lat="43.54071" lon="2.44131">
        <ele>635.6</ele>
        <time>2013-03-10T11:25:08Z</time>
      </trkpt>
      <trkpt lat="43.54068" lon="2.44142">
        <ele>636.7</ele>
        <time>2013-03-10T11:25:15Z</time>
      </trkpt>
      <trkpt lat="43.54066" lon="2.44154">
        <ele>637.6</ele>
        <time>2013-03-10T11:25:22Z</time>
      </trkpt>
      <trkpt lat="43.54065" lon="2.44166">
        <ele>638.1</ele>
        <time>2013-03-10T11:25:29Z</time>
      </trkpt>
      <trkpt lat="43.54065" lon="2.44178">
        <ele>638.7</ele>
        <time>2013-03-10T11:25:36Z</time>
      </trkpt>
      <trkpt lat="43.54065" lon="2.4419">
        <ele>639.2</ele>
        <time>2013-03-10T11:25:43Z</time>
      </trkpt>
      <trkpt lat="43.54065" lon="2.44192">
        <ele>639.1</ele>
        <time>2013-03-10T11:25:44Z</time>
      </trkpt>
      <trkpt lat="43.54062" lon="2.44212">
        <ele>640.2</ele>
        <time>2013-03-10T11:25:57Z</time>
      </trkpt>
      <trkpt lat="43.54059" lon="2.44223">
        <ele>639.9</ele>
        <time>2013-03-10T11:26:04Z</time>
      </trkpt>
      <trkpt lat="43.54056" lon="2.44234">
        <ele>640.5</ele>
        <time>2013-03-10T11:26:11Z</time>
      </trkpt>
      <trkpt lat="43.54052" lon="2.44245">
        <ele>641.1</ele>
        <time>2013-03-10T11:26:18Z</time>
      </trkpt>
      <trkpt lat="43.54048" lon="2.44254">
        <ele>641.3</ele>
        <time>2013-03-10T11:26:25Z</time>
      </trkpt>
      <trkpt lat="43.54044" lon="2.44265">
        <ele>641.5</ele>
        <time>2013-03-10T11:26:32Z</time>
      </trkpt>
      <trkpt lat="43.5404" lon="2.44275">
        <ele>641.7</ele>
        <time>2013-03-10T11:26:39Z</time>
      </trkpt>
      <trkpt lat="43.54035" lon="2.44285">
        <ele>641.7</ele>
        <time>2013-03-10T11:26:46Z</time>
      </trkpt>
      <trkpt lat="43.54034" lon="2.44286">
        <ele>641.9</ele>
        <time>2013-03-10T11:26:47Z</time>
      </trkpt>
      <trkpt lat="43.54023" lon="2.44302">
        <ele>642.6</ele>
        <time>2013-03-10T11:27:00Z</time>
      </trkpt>
      <trkpt lat="43.54018" lon="2.4431">
        <ele>641.9</ele>
        <time>2013-03-10T11:27:07Z</time>
      </trkpt>
      <trkpt lat="43.54012" lon="2.44317">
        <ele>642.3</ele>
        <time>2013-03-10T11:27:15Z</time>
      </trkpt>
      <trkpt lat="43.54006" lon="2.44326">
        <ele>642</ele>
        <time>2013-03-10T11:27:22Z</time>
      </trkpt>
      <trkpt lat="43.54" lon="2.44335">
        <ele>643.3</ele>
        <time>2013-03-10T11:27:29Z</time>
      </trkpt>
      <trkpt lat="43.53994" lon="2.44344">
        <ele>642</ele>
        <time>2013-03-10T11:27:36Z</time>
      </trkpt>
      <trkpt lat="43.53988" lon="2.44352">
        <ele>643.3</ele>
        <time>2013-03-10T11:27:43Z</time>
      </trkpt>
      <trkpt lat="43.53982" lon="2.4436">
        <ele>642.9</ele>
        <time>2013-03-10T11:27:49Z</time>
      </trkpt>
      <trkpt lat="43.53981" lon="2.44361">
        <ele>643</ele>
        <time>2013-03-10T11:27:50Z</time>
      </trkpt>
      <trkpt lat="43.53968" lon="2.44373">
        <ele>642</ele>
        <time>2013-03-10T11:28:02Z</time>
      </trkpt>
      <trkpt lat="43.53961" lon="2.44379">
        <ele>642.3</ele>
        <time>2013-03-10T11:28:09Z</time>
      </trkpt>
      <trkpt lat="43.53953" lon="2.44385">
        <ele>642</ele>
        <time>2013-03-10T11:28:17Z</time>
      </trkpt>
      <trkpt lat="43.53947" lon="2.44393">
        <ele>641.9</ele>
        <time>2013-03-10T11:28:23Z</time>
      </trkpt>
      <trkpt lat="43.53941" lon="2.44401">
        <ele>641.2</ele>
        <time>2013-03-10T11:28:30Z</time>
      </trkpt>
      <trkpt lat="43.53935" lon="2.4441">
        <ele>641.2</ele>
        <time>2013-03-10T11:28:37Z</time>
      </trkpt>
      <trkpt lat="43.5393" lon="2.44419">
        <ele>641</ele>
        <time>2013-03-10T11:28:44Z</time>
      </trkpt>
      <trkpt lat="43.53924" lon="2.44428">
        <ele>640.9</ele>
        <time>2013-03-10T11:28:51Z</time>
      </trkpt>
      <trkpt lat="43.53923" lon="2.4443">
        <ele>640.8</ele>
        <time>2013-03-10T11:28:52Z</time>
      </trkpt>
      <trkpt lat="43.53912" lon="2.44447">
        <ele>639.9</ele>
        <time>2013-03-10T11:29:05Z</time>
      </trkpt>
      <trkpt lat="43.53907" lon="2.44457">
        <ele>639.5</ele>
        <time>2013-03-10T11:29:12Z</time>
      </trkpt>
      <trkpt lat="43.53902" lon="2.44466">
        <ele>639.1</ele>
        <time>2013-03-10T11:29:19Z</time>
      </trkpt>
      <trkpt lat="43.53897" lon="2.44476">
        <ele>638.7</ele>
        <time>2013-03-10T11:29:26Z</time>
      </trkpt>
      <trkpt lat="43.53891" lon="2.44484">
        <ele>638.2</ele>
        <time>2013-03-10T11:29:33Z</time>
      </trkpt>
      <trkpt lat="43.53886" lon="2.44493">
        <ele>637.6</ele>
        <time>2013-03-10T11:29:41Z</time>
      </trkpt>
      <trkpt lat="43.53881" lon="2.44502">
        <ele>636.9</ele>
        <time>2013-03-10T11:29:50Z</time>
      </trkpt>
      <trkpt lat="43.53876" lon="2.44512">
        <ele>636.4</ele>
        <time>2013-03-10T11:29:57Z</time>
      </trkpt>
      <trkpt lat="43.53876" lon="2.44512">
        <ele>636.1</ele>
        <time>2013-03-10T11:29:58Z</time>
      </trkpt>
      <trkpt lat="43.53861" lon="2.4452">
        <ele>635.3</ele>
        <time>2013-03-10T11:31:08Z</time>
      </trkpt>
      <trkpt lat="43.5386" lon="2.44521">
        <ele>635</ele>
        <time>2013-03-10T11:31:09Z</time>
      </trkpt>
      <trkpt lat="43.53847" lon="2.44532">
        <ele>634.6</ele>
        <time>2013-03-10T11:31:22Z</time>
      </trkpt>
      <trkpt lat="43.53839" lon="2.44537">
        <ele>633.5</ele>
        <time>2013-03-10T11:31:30Z</time>
      </trkpt>
      <trkpt lat="43.5383" lon="2.4454">
        <ele>633.3</ele>
        <time>2013-03-10T11:31:37Z</time>
      </trkpt>
      <trkpt lat="43.53823" lon="2.44545">
        <ele>632.8</ele>
        <time>2013-03-10T11:31:44Z</time>
      </trkpt>
      <trkpt lat="43.53816" lon="2.44549">
        <ele>631.8</ele>
        <time>2013-03-10T11:31:51Z</time>
      </trkpt>
      <trkpt lat="43.53808" lon="2.44553">
        <ele>630.5</ele>
        <time>2013-03-10T11:31:58Z</time>
      </trkpt>
      <trkpt lat="43.538" lon="2.44556">
        <ele>630</ele>
        <time>2013-03-10T11:32:06Z</time>
      </trkpt>
      <trkpt lat="43.53793" lon="2.4456">
        <ele>629.6</ele>
        <time>2013-03-10T11:32:13Z</time>
      </trkpt>
      <trkpt lat="43.53792" lon="2.44561">
        <ele>629.4</ele>
        <time>2013-03-10T11:32:14Z</time>
      </trkpt>
      <trkpt lat="43.53776" lon="2.44569">
        <ele>628.8</ele>
        <time>2013-03-10T11:32:29Z</time>
      </trkpt>
      <trkpt lat="43.53768" lon="2.44573">
        <ele>627.9</ele>
        <time>2013-03-10T11:32:36Z</time>
      </trkpt>
      <trkpt lat="43.5376" lon="2.44576">
        <ele>627.2</ele>
        <time>2013-03-10T11:32:43Z</time>
      </trkpt>
      <trkpt lat="43.53752" lon="2.44578">
        <ele>625.8</ele>
        <time>2013-03-10T11:32:49Z</time>
      </trkpt>
      <trkpt lat="43.53743" lon="2.44579">
        <ele>625.7</ele>
        <time>2013-03-10T11:32:56Z</time>
      </trkpt>
      <trkpt lat="43.53735" lon="2.4458">
        <ele>625.6</ele>
        <time>2013-03-10T11:33:03Z</time>
      </trkpt>
      <trkpt lat="43.53728" lon="2.44587">
        <ele>625.8</ele>
        <time>2013-03-10T11:33:10Z</time>
      </trkpt>
      <trkpt lat="43.53722" lon="2.44595">
        <ele>625</ele>
        <time>2013-03-10T11:33:17Z</time>
      </trkpt>
      <trkpt lat="43.53721" lon="2.44596">
        <ele>624.9</ele>
        <time>2013-03-10T11:33:18Z</time>
      </trkpt>
      <trkpt lat="43.5371" lon="2.4461">
        <ele>625.1</ele>
        <time>2013-03-10T11:33:31Z</time>
      </trkpt>
      <trkpt lat="43.53703" lon="2.44616">
        <ele>625</ele>
        <time>2013-03-10T11:33:38Z</time>
      </trkpt>
      <trkpt lat="43.53696" lon="2.44622">
        <ele>625.8</ele>
        <time>2013-03-10T11:33:45Z</time>
      </trkpt>
      <trkpt lat="43.53688" lon="2.44628">
        <ele>624.9</ele>
        <time>2013-03-10T11:33:52Z</time>
      </trkpt>
      <trkpt lat="43.5368" lon="2.44634">
        <ele>625.2</ele>
        <time>2013-03-10T11:33:59Z</time>
      </trkpt>
      <trkpt lat="43.53673" lon="2.44639">
        <ele>624.4</ele>
        <time>2013-03-10T11:34:06Z</time>
      </trkpt>
      <trkpt lat="43.53665" lon="2.44644">
        <ele>625.2</ele>
        <time>2013-03-10T11:34:13Z</time>
      </trkpt>
      <trkpt lat="43.53658" lon="2.44649">
        <ele>624.6</ele>
        <time>2013-03-10T11:34:19Z</time>
      </trkpt>
      <trkpt lat="43.53657" lon="2.4465">
        <ele>624.6</ele>
        <time>2013-03-10T11:34:20Z</time>
      </trkpt>
      <trkpt lat="43.53645" lon="2.44664">
        <ele>626.3</ele>
        <time>2013-03-10T11:34:33Z</time>
      </trkpt>
      <trkpt lat="43.5364" lon="2.44673">
        <ele>626</ele>
        <time>2013-03-10T11:34:39Z</time>
      </trkpt>
      <trkpt lat="43.53634" lon="2.44681">
        <ele>626.4</ele>
        <time>2013-03-10T11:34:46Z</time>
      </trkpt>
      <trkpt lat="43.53627" lon="2.44689">
        <ele>627.2</ele>
        <time>2013-03-10T11:34:54Z</time>
      </trkpt>
      <trkpt lat="43.5362" lon="2.44694">
        <ele>627.2</ele>
        <time>2013-03-10T11:35:01Z</time>
      </trkpt>
      <trkpt lat="43.53613" lon="2.447">
        <ele>627.8</ele>
        <time>2013-03-10T11:35:07Z</time>
      </trkpt>
      <trkpt lat="43.53606" lon="2.44706">
        <ele>628</ele>
        <time>2013-03-10T11:35:13Z</time>
      </trkpt>
      <trkpt lat="43.53599" lon="2.44712">
        <ele>627.4</ele>
        <time>2013-03-10T11:35:19Z</time>
      </trkpt>
      <trkpt lat="43.53592" lon="2.44719">
        <ele>626.8</ele>
        <time>2013-03-10T11:35:25Z</time>
      </trkpt>
      <trkpt lat="43.5359" lon="2.4472">
        <ele>626.9</ele>
        <time>2013-03-10T11:35:26Z</time>
      </trkpt>
      <trkpt lat="43.53577" lon="2.44732">
        <ele>626.9</ele>
        <time>2013-03-10T11:35:38Z</time>
      </trkpt>
      <trkpt lat="43.5357" lon="2.44739">
        <ele>626.5</ele>
        <time>2013-03-10T11:36:01Z</time>
      </trkpt>
      <trkpt lat="43.53562" lon="2.44744">
        <ele>625.5</ele>
        <time>2013-03-10T11:36:41Z</time>
      </trkpt>
      <trkpt lat="43.53562" lon="2.44745">
        <ele>625.5</ele>
        <time>2013-03-10T11:36:42Z</time>
      </trkpt>
      <trkpt lat="43.53554" lon="2.44739">
        <ele>624.5</ele>
        <time>2013-03-10T11:41:49Z</time>
      </trkpt>
      <trkpt lat="43.53563" lon="2.44759">
        <ele>624.4</ele>
        <time>2013-03-10T11:45:26Z</time>
      </trkpt>
      <trkpt lat="43.53563" lon="2.44759">
        <ele>624.4</ele>
        <time>2013-03-10T11:45:27Z</time>
      </trkpt>
      <trkpt lat="43.53562" lon="2.44763">
        <ele>624.1</ele>
        <time>2013-03-10T11:48:45Z</time>
      </trkpt>
      <trkpt lat="43.53562" lon="2.44764">
        <ele>624</ele>
        <time>2013-03-10T11:48:46Z</time>
      </trkpt>
      <trkpt lat="43.53561" lon="2.44748">
        <ele>624.3</ele>
        <time>2013-03-10T11:49:35Z</time>
      </trkpt>
      <trkpt lat="43.53553" lon="2.44742">
        <ele>623.8</ele>
        <time>2013-03-10T11:50:39Z</time>
      </trkpt>
      <trkpt lat="43.53552" lon="2.44741">
        <ele>624</ele>
        <time>2013-03-10T11:50:40Z</time>
      </trkpt>
      <trkpt lat="43.53555" lon="2.44754">
        <ele>623.7</ele>
        <time>2013-03-10T11:51:51Z</time>
      </trkpt>
      <trkpt lat="43.53564" lon="2.44744">
        <ele>624.2</ele>
        <time>2013-03-10T11:53:13Z</time>
      </trkpt>
      <trkpt lat="43.53564" lon="2.44744">
        <ele>624.3</ele>
        <time>2013-03-10T11:53:14Z</time>
      </trkpt>
      <trkpt lat="43.53551" lon="2.44731">
        <ele>623.3</ele>
        <time>2013-03-10T11:55:19Z</time>
      </trkpt>
      <trkpt lat="43.53551" lon="2.4473">
        <ele>623.1</ele>
        <time>2013-03-10T11:55:20Z</time>
      </trkpt>
      <trkpt lat="43.53562" lon="2.44749">
        <ele>623.1</ele>
        <time>2013-03-10T11:56:29Z</time>
      </trkpt>
      <trkpt lat="43.53562" lon="2.4475">
        <ele>623</ele>
        <time>2013-03-10T11:56:30Z</time>
      </trkpt>
      <trkpt lat="43.53553" lon="2.44749">
        <ele>623.2</ele>
        <time>2013-03-10T11:58:28Z</time>
      </trkpt>
      <trkpt lat="43.53555" lon="2.44747">
        <ele>622.9</ele>
        <time>2013-03-10T12:02:59Z</time>
      </trkpt>
      <trkpt lat="43.53555" lon="2.44746">
        <ele>622.8</ele>
        <time>2013-03-10T12:03:00Z</time>
      </trkpt>
      <trkpt lat="43.5356" lon="2.44758">
        <ele>622.5</ele>
        <time>2013-03-10T12:05:40Z</time>
      </trkpt>
      <trkpt lat="43.53558" lon="2.44744">
        <ele>623.2</ele>
        <time>2013-03-10T12:07:12Z</time>
      </trkpt>
      <trkpt lat="43.53555" lon="2.44746">
        <ele>622.7</ele>
        <time>2013-03-10T12:08:11Z</time>
      </trkpt>
      <trkpt lat="43.53558" lon="2.44758">
        <ele>622.2</ele>
        <time>2013-03-10T12:11:31Z</time>
      </trkpt>
      <trkpt lat="43.53559" lon="2.44758">
        <ele>622.3</ele>
        <time>2013-03-10T12:11:32Z</time>
      </trkpt>
      <trkpt lat="43.53558" lon="2.44745">
        <ele>622.5</ele>
        <time>2013-03-10T12:12:59Z</time>
      </trkpt>
      <trkpt lat="43.53565" lon="2.44754">
        <ele>622.1</ele>
        <time>2013-03-10T12:15:15Z</time>
      </trkpt>
      <trkpt lat="43.53558" lon="2.44733">
        <ele>622.7</ele>
        <time>2013-03-10T12:15:36Z</time>
      </trkpt>
      <trkpt lat="43.53559" lon="2.44745">
        <ele>622.6</ele>
        <time>2013-03-10T12:16:39Z</time>
      </trkpt>
      <trkpt lat="43.5356" lon="2.44745">
        <ele>622.6</ele>
        <time>2013-03-10T12:16:40Z</time>
      </trkpt>
      <trkpt lat="43.53562" lon="2.4474">
        <ele>624.4</ele>
        <time>2013-03-10T12:17:59Z</time>
      </trkpt>
      <trkpt lat="43.53562" lon="2.4474">
        <ele>624.4</ele>
        <time>2013-03-10T12:17:59Z</time>
      </trkpt>
      <trkpt lat="43.53561" lon="2.44741">
        <ele>623.8</ele>
        <time>2013-03-10T12:18:03Z</time>
      </trkpt>
      <trkpt lat="43.53561" lon="2.44742">
        <ele>623.5</ele>
        <time>2013-03-10T12:18:04Z</time>
      </trkpt>
      <trkpt lat="43.53564" lon="2.44754">
        <ele>621</ele>
        <time>2013-03-10T12:19:08Z</time>
      </trkpt>
      <trkpt lat="43.53564" lon="2.44754">
        <ele>621</ele>
        <time>2013-03-10T12:19:09Z</time>
      </trkpt>
      <trkpt lat="43.5357" lon="2.44749">
        <ele>623.6</ele>
        <time>2013-03-10T12:21:38Z</time>
      </trkpt>
      <trkpt lat="43.5357" lon="2.44749">
        <ele>623.6</ele>
        <time>2013-03-10T12:21:39Z</time>
      </trkpt>
      <trkpt lat="43.53575" lon="2.4476">
        <ele>623.8</ele>
        <time>2013-03-10T12:23:18Z</time>
      </trkpt>
      <trkpt lat="43.53575" lon="2.4474">
        <ele>624</ele>
        <time>2013-03-10T12:23:37Z</time>
      </trkpt>
      <trkpt lat="43.53566" lon="2.4474">
        <ele>623.4</ele>
        <time>2013-03-10T12:24:10Z</time>
      </trkpt>
      <trkpt lat="43.53562" lon="2.4475">
        <ele>623.7</ele>
        <time>2013-03-10T12:24:19Z</time>
      </trkpt>
      <trkpt lat="43.53562" lon="2.44751">
        <ele>623.6</ele>
        <time>2013-03-10T12:24:20Z</time>
      </trkpt>
      <trkpt lat="43.53571" lon="2.44752">
        <ele>624</ele>
        <time>2013-03-10T12:26:02Z</time>
      </trkpt>
      <trkpt lat="43.53569" lon="2.44744">
        <ele>622.6</ele>
        <time>2013-03-10T12:28:01Z</time>
      </trkpt>
      <trkpt lat="43.53569" lon="2.44744">
        <ele>622.9</ele>
        <time>2013-03-10T12:28:02Z</time>
      </trkpt>
      <trkpt lat="43.53562" lon="2.44752">
        <ele>623.6</ele>
        <time>2013-03-10T12:29:25Z</time>
      </trkpt>
      <trkpt lat="43.53553" lon="2.44749">
        <ele>623.3</ele>
        <time>2013-03-10T12:32:02Z</time>
      </trkpt>
      <trkpt lat="43.53569" lon="2.44739">
        <ele>623.6</ele>
        <time>2013-03-10T12:34:23Z</time>
      </trkpt>
      <trkpt lat="43.5357" lon="2.44739">
        <ele>623.6</ele>
        <time>2013-03-10T12:34:24Z</time>
      </trkpt>
      <trkpt lat="43.53555" lon="2.44752">
        <ele>623.5</ele>
        <time>2013-03-10T12:34:47Z</time>
      </trkpt>
      <trkpt lat="43.53551" lon="2.44762">
        <ele>624</ele>
        <time>2013-03-10T12:34:54Z</time>
      </trkpt>
      <trkpt lat="43.53544" lon="2.44768">
        <ele>623.8</ele>
        <time>2013-03-10T12:35:01Z</time>
      </trkpt>
      <trkpt lat="43.53536" lon="2.44774">
        <ele>624.5</ele>
        <time>2013-03-10T12:35:08Z</time>
      </trkpt>
      <trkpt lat="43.53529" lon="2.4478">
        <ele>623.6</ele>
        <time>2013-03-10T12:35:14Z</time>
      </trkpt>
      <trkpt lat="43.53522" lon="2.44785">
        <ele>625.1</ele>
        <time>2013-03-10T12:35:20Z</time>
      </trkpt>
      <trkpt lat="43.53515" lon="2.44791">
        <ele>625.4</ele>
        <time>2013-03-10T12:35:27Z</time>
      </trkpt>
      <trkpt lat="43.53514" lon="2.44792">
        <ele>625</ele>
        <time>2013-03-10T12:35:28Z</time>
      </trkpt>
      <trkpt lat="43.53499" lon="2.44802">
        <ele>625.8</ele>
        <time>2013-03-10T12:35:41Z</time>
      </trkpt>
      <trkpt lat="43.53491" lon="2.44807">
        <ele>626.2</ele>
        <time>2013-03-10T12:35:48Z</time>
      </trkpt>
      <trkpt lat="43.53484" lon="2.44813">
        <ele>626.9</ele>
        <time>2013-03-10T12:35:55Z</time>
      </trkpt>
      <trkpt lat="43.53477" lon="2.4482">
        <ele>626</ele>
        <time>2013-03-10T12:36:02Z</time>
      </trkpt>
      <trkpt lat="43.53469" lon="2.44827">
        <ele>626.6</ele>
        <time>2013-03-10T12:36:11Z</time>
      </trkpt>
      <trkpt lat="43.53463" lon="2.44833">
        <ele>626</ele>
        <time>2013-03-10T12:36:17Z</time>
      </trkpt>
      <trkpt lat="43.53456" lon="2.44839">
        <ele>626.7</ele>
        <time>2013-03-10T12:36:24Z</time>
      </trkpt>
      <trkpt lat="43.53448" lon="2.44845">
        <ele>625.4</ele>
        <time>2013-03-10T12:36:31Z</time>
      </trkpt>
      <trkpt lat="43.53447" lon="2.44847">
        <ele>625.9</ele>
        <time>2013-03-10T12:36:32Z</time>
      </trkpt>
      <trkpt lat="43.53433" lon="2.44855">
        <ele>625.8</ele>
        <time>2013-03-10T12:36:43Z</time>
      </trkpt>
      <trkpt lat="43.53425" lon="2.44853">
        <ele>624.5</ele>
        <time>2013-03-10T12:36:50Z</time>
      </trkpt>
      <trkpt lat="43.53418" lon="2.44846">
        <ele>626.3</ele>
        <time>2013-03-10T12:36:57Z</time>
      </trkpt>
      <trkpt lat="43.5341" lon="2.44841">
        <ele>625.6</ele>
        <time>2013-03-10T12:37:04Z</time>
      </trkpt>
      <trkpt lat="43.53402" lon="2.44835">
        <ele>625.3</ele>
        <time>2013-03-10T12:37:13Z</time>
      </trkpt>
      <trkpt lat="43.53395" lon="2.44829">
        <ele>624.5</ele>
        <time>2013-03-10T12:37:21Z</time>
      </trkpt>
      <trkpt lat="43.53388" lon="2.44826">
        <ele>623.7</ele>
        <time>2013-03-10T12:37:27Z</time>
      </trkpt>
      <trkpt lat="43.5338" lon="2.44824">
        <ele>624.8</ele>
        <time>2013-03-10T12:37:32Z</time>
      </trkpt>
      <trkpt lat="43.53379" lon="2.44824">
        <ele>624.7</ele>
        <time>2013-03-10T12:37:33Z</time>
      </trkpt>
      <trkpt lat="43.53363" lon="2.44821">
        <ele>623.4</ele>
        <time>2013-03-10T12:37:44Z</time>
      </trkpt>
      <trkpt lat="43.53355" lon="2.44818">
        <ele>622.6</ele>
        <time>2013-03-10T12:37:51Z</time>
      </trkpt>
      <trkpt lat="43.53347" lon="2.44813">
        <ele>620.5</ele>
        <time>2013-03-10T12:38:00Z</time>
      </trkpt>
      <trkpt lat="43.5334" lon="2.44806">
        <ele>620.7</ele>
        <time>2013-03-10T12:38:06Z</time>
      </trkpt>
      <trkpt lat="43.53332" lon="2.44801">
        <ele>620.6</ele>
        <time>2013-03-10T12:38:12Z</time>
      </trkpt>
      <trkpt lat="43.53324" lon="2.44798">
        <ele>618.8</ele>
        <time>2013-03-10T12:38:18Z</time>
      </trkpt>
      <trkpt lat="43.53316" lon="2.44794">
        <ele>619.1</ele>
        <time>2013-03-10T12:38:25Z</time>
      </trkpt>
      <trkpt lat="43.53308" lon="2.4479">
        <ele>617.8</ele>
        <time>2013-03-10T12:38:32Z</time>
      </trkpt>
      <trkpt lat="43.533" lon="2.44786">
        <ele>618.1</ele>
        <time>2013-03-10T12:38:39Z</time>
      </trkpt>
      <trkpt lat="43.53299" lon="2.44785">
        <ele>617.9</ele>
        <time>2013-03-10T12:38:40Z</time>
      </trkpt>
      <trkpt lat="43.53286" lon="2.44777">
        <ele>617.2</ele>
        <time>2013-03-10T12:38:51Z</time>
      </trkpt>
      <trkpt lat="43.53279" lon="2.44774">
        <ele>616.6</ele>
        <time>2013-03-10T12:38:57Z</time>
      </trkpt>
      <trkpt lat="43.5327" lon="2.44771">
        <ele>616.7</ele>
        <time>2013-03-10T12:39:03Z</time>
      </trkpt>
      <trkpt lat="43.53262" lon="2.44769">
        <ele>615.7</ele>
        <time>2013-03-10T12:39:11Z</time>
      </trkpt>
      <trkpt lat="43.53253" lon="2.44765">
        <ele>614.3</ele>
        <time>2013-03-10T12:39:19Z</time>
      </trkpt>
      <trkpt lat="43.53245" lon="2.44762">
        <ele>615</ele>
        <time>2013-03-10T12:39:26Z</time>
      </trkpt>
      <trkpt lat="43.53238" lon="2.44758">
        <ele>614.6</ele>
        <time>2013-03-10T12:39:33Z</time>
      </trkpt>
      <trkpt lat="43.5323" lon="2.44754">
        <ele>615.3</ele>
        <time>2013-03-10T12:39:40Z</time>
      </trkpt>
      <trkpt lat="43.53229" lon="2.44754">
        <ele>615.3</ele>
        <time>2013-03-10T12:39:41Z</time>
      </trkpt>
      <trkpt lat="43.53215" lon="2.44747">
        <ele>612.1</ele>
        <time>2013-03-10T12:39:52Z</time>
      </trkpt>
      <trkpt lat="43.53207" lon="2.44742">
        <ele>611.6</ele>
        <time>2013-03-10T12:39:59Z</time>
      </trkpt>
      <trkpt lat="43.53199" lon="2.44739">
        <ele>611.9</ele>
        <time>2013-03-10T12:40:05Z</time>
      </trkpt>
      <trkpt lat="43.53192" lon="2.44736">
        <ele>611.2</ele>
        <time>2013-03-10T12:40:11Z</time>
      </trkpt>
      <trkpt lat="43.53183" lon="2.44734">
        <ele>611.6</ele>
        <time>2013-03-10T12:40:17Z</time>
      </trkpt>
      <trkpt lat="43.53175" lon="2.44731">
        <ele>609.7</ele>
        <time>2013-03-10T12:40:23Z</time>
      </trkpt>
      <trkpt lat="43.53167" lon="2.44727">
        <ele>611.6</ele>
        <time>2013-03-10T12:40:29Z</time>
      </trkpt>
      <trkpt lat="43.5316" lon="2.44724">
        <ele>612.2</ele>
        <time>2013-03-10T12:40:35Z</time>
      </trkpt>
      <trkpt lat="43.53152" lon="2.4472">
        <ele>610.8</ele>
        <time>2013-03-10T12:40:41Z</time>
      </trkpt>
      <trkpt lat="43.5315" lon="2.44719">
        <ele>611</ele>
        <time>2013-03-10T12:40:42Z</time>
      </trkpt>
      <trkpt lat="43.53136" lon="2.44713">
        <ele>611.1</ele>
        <time>2013-03-10T12:40:54Z</time>
      </trkpt>
      <trkpt lat="43.53127" lon="2.4471">
        <ele>610.5</ele>
        <time>2013-03-10T12:41:01Z</time>
      </trkpt>
      <trkpt lat="43.53119" lon="2.44706">
        <ele>609.4</ele>
        <time>2013-03-10T12:41:08Z</time>
      </trkpt>
      <trkpt lat="43.53112" lon="2.44702">
        <ele>609.6</ele>
        <time>2013-03-10T12:41:14Z</time>
      </trkpt>
      <trkpt lat="43.53105" lon="2.44697">
        <ele>609.4</ele>
        <time>2013-03-10T12:41:20Z</time>
      </trkpt>
      <trkpt lat="43.53096" lon="2.44694">
        <ele>607.2</ele>
        <time>2013-03-10T12:41:27Z</time>
      </trkpt>
      <trkpt lat="43.53088" lon="2.4469">
        <ele>608.4</ele>
        <time>2013-03-10T12:41:34Z</time>
      </trkpt>
      <trkpt lat="43.5308" lon="2.44686">
        <ele>607.6</ele>
        <time>2013-03-10T12:41:41Z</time>
      </trkpt>
      <trkpt lat="43.53072" lon="2.44683">
        <ele>607.3</ele>
        <time>2013-03-10T12:41:49Z</time>
      </trkpt>
      <trkpt lat="43.53071" lon="2.44682">
        <ele>607.8</ele>
        <time>2013-03-10T12:41:50Z</time>
      </trkpt>
      <trkpt lat="43.53055" lon="2.44675">
        <ele>606.1</ele>
        <time>2013-03-10T12:42:06Z</time>
      </trkpt>
      <trkpt lat="43.53048" lon="2.44671">
        <ele>605.3</ele>
        <time>2013-03-10T12:42:13Z</time>
      </trkpt>
      <trkpt lat="43.53041" lon="2.44665">
        <ele>605.9</ele>
        <time>2013-03-10T12:42:21Z</time>
      </trkpt>
      <trkpt lat="43.53034" lon="2.44659">
        <ele>605.9</ele>
        <time>2013-03-10T12:42:28Z</time>
      </trkpt>
      <trkpt lat="43.53026" lon="2.4466">
        <ele>605</ele>
        <time>2013-03-10T12:42:34Z</time>
      </trkpt>
      <trkpt lat="43.53018" lon="2.44661">
        <ele>605.2</ele>
        <time>2013-03-10T12:42:40Z</time>
      </trkpt>
      <trkpt lat="43.5301" lon="2.4466">
        <ele>605.9</ele>
        <time>2013-03-10T12:42:47Z</time>
      </trkpt>
      <trkpt lat="43.53002" lon="2.44657">
        <ele>605.7</ele>
        <time>2013-03-10T12:42:55Z</time>
      </trkpt>
      <trkpt lat="43.53001" lon="2.44656">
        <ele>605.2</ele>
        <time>2013-03-10T12:42:56Z</time>
      </trkpt>
      <trkpt lat="43.52986" lon="2.44651">
        <ele>603.8</ele>
        <time>2013-03-10T12:43:09Z</time>
      </trkpt>
      <trkpt lat="43.52977" lon="2.44648">
        <ele>604.1</ele>
        <time>2013-03-10T12:43:17Z</time>
      </trkpt>
      <trkpt lat="43.52969" lon="2.44645">
        <ele>604.3</ele>
        <time>2013-03-10T12:43:24Z</time>
      </trkpt>
      <trkpt lat="43.52961" lon="2.44642">
        <ele>603.8</ele>
        <time>2013-03-10T12:43:31Z</time>
      </trkpt>
      <trkpt lat="43.52953" lon="2.44638">
        <ele>603.4</ele>
        <time>2013-03-10T12:43:38Z</time>
      </trkpt>
      <trkpt lat="43.52944" lon="2.44635">
        <ele>603</ele>
        <time>2013-03-10T12:43:46Z</time>
      </trkpt>
      <trkpt lat="43.52935" lon="2.44634">
        <ele>599.9</ele>
        <time>2013-03-10T12:43:54Z</time>
      </trkpt>
      <trkpt lat="43.52927" lon="2.44631">
        <ele>600.9</ele>
        <time>2013-03-10T12:44:02Z</time>
      </trkpt>
      <trkpt lat="43.52926" lon="2.44631">
        <ele>600.5</ele>
        <time>2013-03-10T12:44:03Z</time>
      </trkpt>
      <trkpt lat="43.52911" lon="2.44624">
        <ele>598.3</ele>
        <time>2013-03-10T12:44:18Z</time>
      </trkpt>
      <trkpt lat="43.52903" lon="2.44621">
        <ele>598.7</ele>
        <time>2013-03-10T12:44:26Z</time>
      </trkpt>
      <trkpt lat="43.52896" lon="2.44617">
        <ele>598.6</ele>
        <time>2013-03-10T12:44:32Z</time>
      </trkpt>
      <trkpt lat="43.52889" lon="2.44614">
        <ele>598.2</ele>
        <time>2013-03-10T12:44:38Z</time>
      </trkpt>
      <trkpt lat="43.5288" lon="2.44609">
        <ele>596.3</ele>
        <time>2013-03-10T12:44:46Z</time>
      </trkpt>
      <trkpt lat="43.52872" lon="2.44609">
        <ele>594.8</ele>
        <time>2013-03-10T12:44:54Z</time>
      </trkpt>
      <trkpt lat="43.52863" lon="2.44612">
        <ele>595.5</ele>
        <time>2013-03-10T12:45:01Z</time>
      </trkpt>
      <trkpt lat="43.52856" lon="2.44618">
        <ele>594.4</ele>
        <time>2013-03-10T12:45:09Z</time>
      </trkpt>
      <trkpt lat="43.52855" lon="2.44619">
        <ele>593.9</ele>
        <time>2013-03-10T12:45:10Z</time>
      </trkpt>
      <trkpt lat="43.52845" lon="2.44635">
        <ele>593.1</ele>
        <time>2013-03-10T12:45:25Z</time>
      </trkpt>
      <trkpt lat="43.52841" lon="2.44646">
        <ele>593.4</ele>
        <time>2013-03-10T12:45:33Z</time>
      </trkpt>
      <trkpt lat="43.52839" lon="2.44657">
        <ele>593.6</ele>
        <time>2013-03-10T12:45:41Z</time>
      </trkpt>
      <trkpt lat="43.52837" lon="2.44668">
        <ele>593.5</ele>
        <time>2013-03-10T12:45:49Z</time>
      </trkpt>
      <trkpt lat="43.52835" lon="2.4468">
        <ele>593.1</ele>
        <time>2013-03-10T12:45:57Z</time>
      </trkpt>
      <trkpt lat="43.52832" lon="2.44691">
        <ele>591.5</ele>
        <time>2013-03-10T12:46:06Z</time>
      </trkpt>
      <trkpt lat="43.52828" lon="2.447">
        <ele>594</ele>
        <time>2013-03-10T12:46:12Z</time>
      </trkpt>
      <trkpt lat="43.52827" lon="2.44702">
        <ele>593.8</ele>
        <time>2013-03-10T12:46:13Z</time>
      </trkpt>
      <trkpt lat="43.52821" lon="2.44721">
        <ele>592.4</ele>
        <time>2013-03-10T12:46:26Z</time>
      </trkpt>
      <trkpt lat="43.52817" lon="2.44732">
        <ele>592.9</ele>
        <time>2013-03-10T12:46:34Z</time>
      </trkpt>
      <trkpt lat="43.52814" lon="2.44743">
        <ele>592.5</ele>
        <time>2013-03-10T12:46:42Z</time>
      </trkpt>
      <trkpt lat="43.52812" lon="2.44754">
        <ele>592.1</ele>
        <time>2013-03-10T12:46:49Z</time>
      </trkpt>
      <trkpt lat="43.52808" lon="2.44764">
        <ele>589.6</ele>
        <time>2013-03-10T12:46:57Z</time>
      </trkpt>
      <trkpt lat="43.52806" lon="2.44776">
        <ele>590.9</ele>
        <time>2013-03-10T12:47:11Z</time>
      </trkpt>
      <trkpt lat="43.52801" lon="2.44786">
        <ele>590.7</ele>
        <time>2013-03-10T12:47:29Z</time>
      </trkpt>
      <trkpt lat="43.52801" lon="2.44787">
        <ele>590.7</ele>
        <time>2013-03-10T12:47:30Z</time>
      </trkpt>
      <trkpt lat="43.52794" lon="2.44808">
        <ele>589.6</ele>
        <time>2013-03-10T12:47:46Z</time>
      </trkpt>
      <trkpt lat="43.5279" lon="2.44818">
        <ele>590.3</ele>
        <time>2013-03-10T12:47:53Z</time>
      </trkpt>
      <trkpt lat="43.52786" lon="2.44828">
        <ele>589.5</ele>
        <time>2013-03-10T12:47:59Z</time>
      </trkpt>
      <trkpt lat="43.52782" lon="2.44837">
        <ele>589</ele>
        <time>2013-03-10T12:48:05Z</time>
      </trkpt>
      <trkpt lat="43.52778" lon="2.44847">
        <ele>589.8</ele>
        <time>2013-03-10T12:48:11Z</time>
      </trkpt>
      <trkpt lat="43.52775" lon="2.44859">
        <ele>588</ele>
        <time>2013-03-10T12:48:17Z</time>
      </trkpt>
      <trkpt lat="43.52773" lon="2.4487">
        <ele>586.2</ele>
        <time>2013-03-10T12:48:24Z</time>
      </trkpt>
      <trkpt lat="43.52771" lon="2.44881">
        <ele>587.7</ele>
        <time>2013-03-10T12:48:30Z</time>
      </trkpt>
      <trkpt lat="43.5277" lon="2.44883">
        <ele>587.1</ele>
        <time>2013-03-10T12:48:31Z</time>
      </trkpt>
      <trkpt lat="43.52761" lon="2.44901">
        <ele>586.4</ele>
        <time>2013-03-10T12:48:44Z</time>
      </trkpt>
      <trkpt lat="43.52755" lon="2.44909">
        <ele>587</ele>
        <time>2013-03-10T12:48:51Z</time>
      </trkpt>
      <trkpt lat="43.52749" lon="2.44917">
        <ele>585.5</ele>
        <time>2013-03-10T12:48:58Z</time>
      </trkpt>
      <trkpt lat="43.52743" lon="2.44925">
        <ele>583.7</ele>
        <time>2013-03-10T12:49:18Z</time>
      </trkpt>
      <trkpt lat="43.52738" lon="2.44935">
        <ele>583</ele>
        <time>2013-03-10T12:49:55Z</time>
      </trkpt>
      <trkpt lat="43.52737" lon="2.44936">
        <ele>582.9</ele>
        <time>2013-03-10T12:49:56Z</time>
      </trkpt>
      <trkpt lat="43.52725" lon="2.44949">
        <ele>583.9</ele>
        <time>2013-03-10T12:50:15Z</time>
      </trkpt>
      <trkpt lat="43.52718" lon="2.44957">
        <ele>581.3</ele>
        <time>2013-03-10T12:50:23Z</time>
      </trkpt>
      <trkpt lat="43.52712" lon="2.44966">
        <ele>579.4</ele>
        <time>2013-03-10T12:50:42Z</time>
      </trkpt>
      <trkpt lat="43.52704" lon="2.44971">
        <ele>579.3</ele>
        <time>2013-03-10T12:51:08Z</time>
      </trkpt>
      <trkpt lat="43.52704" lon="2.44971">
        <ele>579.2</ele>
        <time>2013-03-10T12:51:09Z</time>
      </trkpt>
      <trkpt lat="43.52689" lon="2.44963">
        <ele>579.3</ele>
        <time>2013-03-10T12:51:24Z</time>
      </trkpt>
      <trkpt lat="43.52682" lon="2.44957">
        <ele>578.5</ele>
        <time>2013-03-10T12:51:33Z</time>
      </trkpt>
      <trkpt lat="43.52676" lon="2.44949">
        <ele>577.5</ele>
        <time>2013-03-10T12:51:40Z</time>
      </trkpt>
      <trkpt lat="43.5267" lon="2.44942">
        <ele>574.6</ele>
        <time>2013-03-10T12:51:47Z</time>
      </trkpt>
      <trkpt lat="43.52664" lon="2.44935">
        <ele>573.3</ele>
        <time>2013-03-10T12:51:54Z</time>
      </trkpt>
      <trkpt lat="43.52658" lon="2.44926">
        <ele>575</ele>
        <time>2013-03-10T12:52:01Z</time>
      </trkpt>
      <trkpt lat="43.52653" lon="2.44918">
        <ele>575</ele>
        <time>2013-03-10T12:52:08Z</time>
      </trkpt>
      <trkpt lat="43.52649" lon="2.44909">
        <ele>572.6</ele>
        <time>2013-03-10T12:52:15Z</time>
      </trkpt>
      <trkpt lat="43.52648" lon="2.44907">
        <ele>572.6</ele>
        <time>2013-03-10T12:52:16Z</time>
      </trkpt>
      <trkpt lat="43.52639" lon="2.4489">
        <ele>570.2</ele>
        <time>2013-03-10T12:52:28Z</time>
      </trkpt>
      <trkpt lat="43.52634" lon="2.4488">
        <ele>568.3</ele>
        <time>2013-03-10T12:52:35Z</time>
      </trkpt>
      <trkpt lat="43.52628" lon="2.44871">
        <ele>568.8</ele>
        <time>2013-03-10T12:52:42Z</time>
      </trkpt>
      <trkpt lat="43.52622" lon="2.44864">
        <ele>569.4</ele>
        <time>2013-03-10T12:52:49Z</time>
      </trkpt>
      <trkpt lat="43.52616" lon="2.44857">
        <ele>568.8</ele>
        <time>2013-03-10T12:52:55Z</time>
      </trkpt>
      <trkpt lat="43.52609" lon="2.4485">
        <ele>567.9</ele>
        <time>2013-03-10T12:53:02Z</time>
      </trkpt>
      <trkpt lat="43.52602" lon="2.44844">
        <ele>566.4</ele>
        <time>2013-03-10T12:53:08Z</time>
      </trkpt>
      <trkpt lat="43.52595" lon="2.44839">
        <ele>565.3</ele>
        <time>2013-03-10T12:53:14Z</time>
      </trkpt>
      <trkpt lat="43.52588" lon="2.44836">
        <ele>563.3</ele>
        <time>2013-03-10T12:53:20Z</time>
      </trkpt>
      <trkpt lat="43.52586" lon="2.44835">
        <ele>563</ele>
        <time>2013-03-10T12:53:21Z</time>
      </trkpt>
      <trkpt lat="43.52571" lon="2.44837">
        <ele>562.2</ele>
        <time>2013-03-10T12:53:41Z</time>
      </trkpt>
      <trkpt lat="43.52562" lon="2.44838">
        <ele>560.6</ele>
        <time>2013-03-10T12:53:51Z</time>
      </trkpt>
      <trkpt lat="43.52555" lon="2.44843">
        <ele>559.6</ele>
        <time>2013-03-10T12:54:00Z</time>
      </trkpt>
      <trkpt lat="43.52546" lon="2.44842">
        <ele>560.3</ele>
        <time>2013-03-10T12:54:08Z</time>
      </trkpt>
      <trkpt lat="43.52538" lon="2.44839">
        <ele>558.6</ele>
        <time>2013-03-10T12:54:16Z</time>
      </trkpt>
      <trkpt lat="43.5253" lon="2.44839">
        <ele>554</ele>
        <time>2013-03-10T12:54:26Z</time>
      </trkpt>
      <trkpt lat="43.52529" lon="2.44839">
        <ele>554</ele>
        <time>2013-03-10T12:54:27Z</time>
      </trkpt>
      <trkpt lat="43.52513" lon="2.44841">
        <ele>553.6</ele>
        <time>2013-03-10T12:54:44Z</time>
      </trkpt>
      <trkpt lat="43.52505" lon="2.44839">
        <ele>550.6</ele>
        <time>2013-03-10T12:54:51Z</time>
      </trkpt>
      <trkpt lat="43.52497" lon="2.44837">
        <ele>551</ele>
        <time>2013-03-10T12:54:56Z</time>
      </trkpt>
      <trkpt lat="43.52489" lon="2.44832">
        <ele>549.8</ele>
        <time>2013-03-10T12:55:03Z</time>
      </trkpt>
      <trkpt lat="43.52484" lon="2.44823">
        <ele>548.7</ele>
        <time>2013-03-10T12:55:12Z</time>
      </trkpt>
      <trkpt lat="43.5248" lon="2.44813">
        <ele>548.4</ele>
        <time>2013-03-10T12:55:21Z</time>
      </trkpt>
      <trkpt lat="43.52476" lon="2.44802">
        <ele>548.7</ele>
        <time>2013-03-10T12:55:32Z</time>
      </trkpt>
      <trkpt lat="43.52475" lon="2.44801">
        <ele>548.7</ele>
        <time>2013-03-10T12:55:33Z</time>
      </trkpt>
      <trkpt lat="43.52461" lon="2.44791">
        <ele>548.9</ele>
        <time>2013-03-10T12:55:49Z</time>
      </trkpt>
      <trkpt lat="43.52454" lon="2.44785">
        <ele>546.9</ele>
        <time>2013-03-10T12:56:00Z</time>
      </trkpt>
      <trkpt lat="43.52448" lon="2.44778">
        <ele>546.8</ele>
        <time>2013-03-10T12:56:08Z</time>
      </trkpt>
      <trkpt lat="43.52442" lon="2.4477">
        <ele>545.3</ele>
        <time>2013-03-10T12:56:17Z</time>
      </trkpt>
      <trkpt lat="43.52436" lon="2.44763">
        <ele>545</ele>
        <time>2013-03-10T12:56:27Z</time>
      </trkpt>
      <trkpt lat="43.5243" lon="2.44755">
        <ele>542.6</ele>
        <time>2013-03-10T12:56:36Z</time>
      </trkpt>
      <trkpt lat="43.52429" lon="2.44754">
        <ele>542.4</ele>
        <time>2013-03-10T12:56:37Z</time>
      </trkpt>
      <trkpt lat="43.52415" lon="2.44744">
        <ele>539.9</ele>
        <time>2013-03-10T12:56:52Z</time>
      </trkpt>
      <trkpt lat="43.52408" lon="2.44739">
        <ele>538.8</ele>
        <time>2013-03-10T12:56:57Z</time>
      </trkpt>
      <trkpt lat="43.524" lon="2.44736">
        <ele>537.3</ele>
        <time>2013-03-10T12:57:04Z</time>
      </trkpt>
      <trkpt lat="43.52391" lon="2.44734">
        <ele>537.8</ele>
        <time>2013-03-10T12:57:15Z</time>
      </trkpt>
      <trkpt lat="43.52382" lon="2.44732">
        <ele>536.2</ele>
        <time>2013-03-10T12:57:25Z</time>
      </trkpt>
      <trkpt lat="43.52373" lon="2.44732">
        <ele>536.1</ele>
        <time>2013-03-10T12:57:32Z</time>
      </trkpt>
      <trkpt lat="43.52365" lon="2.44733">
        <ele>535.8</ele>
        <time>2013-03-10T12:57:38Z</time>
      </trkpt>
      <trkpt lat="43.52364" lon="2.44733">
        <ele>535.7</ele>
        <time>2013-03-10T12:57:39Z</time>
      </trkpt>
      <trkpt lat="43.52348" lon="2.44735">
        <ele>532.7</ele>
        <time>2013-03-10T12:57:53Z</time>
      </trkpt>
      <trkpt lat="43.5234" lon="2.44735">
        <ele>533.6</ele>
        <time>2013-03-10T12:57:59Z</time>
      </trkpt>
      <trkpt lat="43.52333" lon="2.44736">
        <ele>531.6</ele>
        <time>2013-03-10T12:58:04Z</time>
      </trkpt>
      <trkpt lat="43.52325" lon="2.44738">
        <ele>531.7</ele>
        <time>2013-03-10T12:58:10Z</time>
      </trkpt>
      <trkpt lat="43.52317" lon="2.44741">
        <ele>530.7</ele>
        <time>2013-03-10T12:58:17Z</time>
      </trkpt>
      <trkpt lat="43.52309" lon="2.44743">
        <ele>530</ele>
        <time>2013-03-10T12:58:24Z</time>
      </trkpt>
      <trkpt lat="43.523" lon="2.44744">
        <ele>530</ele>
        <time>2013-03-10T12:58:33Z</time>
      </trkpt>
      <trkpt lat="43.52292" lon="2.44745">
        <ele>530.1</ele>
        <time>2013-03-10T12:58:40Z</time>
      </trkpt>
      <trkpt lat="43.52291" lon="2.44746">
        <ele>530.3</ele>
        <time>2013-03-10T12:58:41Z</time>
      </trkpt>
      <trkpt lat="43.52275" lon="2.44749">
        <ele>530</ele>
        <time>2013-03-10T12:58:52Z</time>
      </trkpt>
      <trkpt lat="43.52268" lon="2.4475">
        <ele>528.6</ele>
        <time>2013-03-10T12:58:56Z</time>
      </trkpt>
      <trkpt lat="43.52261" lon="2.44757">
        <ele>528.2</ele>
        <time>2013-03-10T12:59:01Z</time>
      </trkpt>
      <trkpt lat="43.5226" lon="2.44768">
        <ele>527.4</ele>
        <time>2013-03-10T12:59:08Z</time>
      </trkpt>
      <trkpt lat="43.52261" lon="2.4478">
        <ele>527.2</ele>
        <time>2013-03-10T12:59:15Z</time>
      </trkpt>
      <trkpt lat="43.52261" lon="2.44791">
        <ele>526.7</ele>
        <time>2013-03-10T12:59:22Z</time>
      </trkpt>
      <trkpt lat="43.52263" lon="2.44804">
        <ele>528.8</ele>
        <time>2013-03-10T12:59:30Z</time>
      </trkpt>
      <trkpt lat="43.52263" lon="2.44816">
        <ele>527.5</ele>
        <time>2013-03-10T12:59:38Z</time>
      </trkpt>
      <trkpt lat="43.52264" lon="2.44826">
        <ele>526.5</ele>
        <time>2013-03-10T12:59:45Z</time>
      </trkpt>
      <trkpt lat="43.52264" lon="2.44828">
        <ele>526.5</ele>
        <time>2013-03-10T12:59:46Z</time>
      </trkpt>
      <trkpt lat="43.52265" lon="2.4485">
        <ele>525.5</ele>
        <time>2013-03-10T12:59:59Z</time>
      </trkpt>
      <trkpt lat="43.52265" lon="2.44861">
        <ele>526.2</ele>
        <time>2013-03-10T13:00:06Z</time>
      </trkpt>
      <trkpt lat="43.52264" lon="2.44872">
        <ele>524.5</ele>
        <time>2013-03-10T13:00:13Z</time>
      </trkpt>
      <trkpt lat="43.52265" lon="2.44883">
        <ele>524.2</ele>
        <time>2013-03-10T13:00:19Z</time>
      </trkpt>
      <trkpt lat="43.52265" lon="2.44894">
        <ele>523.9</ele>
        <time>2013-03-10T13:00:26Z</time>
      </trkpt>
      <trkpt lat="43.52265" lon="2.44906">
        <ele>524.6</ele>
        <time>2013-03-10T13:00:33Z</time>
      </trkpt>
      <trkpt lat="43.52264" lon="2.44918">
        <ele>523.7</ele>
        <time>2013-03-10T13:00:40Z</time>
      </trkpt>
      <trkpt lat="43.52264" lon="2.44929">
        <ele>522.9</ele>
        <time>2013-03-10T13:00:47Z</time>
      </trkpt>
      <trkpt lat="43.52263" lon="2.44931">
        <ele>522.7</ele>
        <time>2013-03-10T13:00:48Z</time>
      </trkpt>
      <trkpt lat="43.5226" lon="2.44951">
        <ele>521.6</ele>
        <time>2013-03-10T13:01:01Z</time>
      </trkpt>
      <trkpt lat="43.52257" lon="2.44962">
        <ele>521.5</ele>
        <time>2013-03-10T13:01:08Z</time>
      </trkpt>
      <trkpt lat="43.52255" lon="2.44973">
        <ele>520.9</ele>
        <time>2013-03-10T13:01:15Z</time>
      </trkpt>
      <trkpt lat="43.52253" lon="2.44984">
        <ele>520.3</ele>
        <time>2013-03-10T13:01:22Z</time>
      </trkpt>
      <trkpt lat="43.52251" lon="2.44995">
        <ele>519</ele>
        <time>2013-03-10T13:01:29Z</time>
      </trkpt>
      <trkpt lat="43.52249" lon="2.45006">
        <ele>517.9</ele>
        <time>2013-03-10T13:01:36Z</time>
      </trkpt>
      <trkpt lat="43.52246" lon="2.45017">
        <ele>517.7</ele>
        <time>2013-03-10T13:01:44Z</time>
      </trkpt>
      <trkpt lat="43.52244" lon="2.45028">
        <ele>517.5</ele>
        <time>2013-03-10T13:01:51Z</time>
      </trkpt>
      <trkpt lat="43.52243" lon="2.45029">
        <ele>517.7</ele>
        <time>2013-03-10T13:01:52Z</time>
      </trkpt>
      <trkpt lat="43.52244" lon="2.45052">
        <ele>516.4</ele>
        <time>2013-03-10T13:02:07Z</time>
      </trkpt>
      <trkpt lat="43.5225" lon="2.45059">
        <ele>515.6</ele>
        <time>2013-03-10T13:02:14Z</time>
      </trkpt>
      <trkpt lat="43.52257" lon="2.45065">
        <ele>515.3</ele>
        <time>2013-03-10T13:02:20Z</time>
      </trkpt>
      <trkpt lat="43.52266" lon="2.45066">
        <ele>514.4</ele>
        <time>2013-03-10T13:02:28Z</time>
      </trkpt>
      <trkpt lat="43.52275" lon="2.45065">
        <ele>513</ele>
        <time>2013-03-10T13:02:38Z</time>
      </trkpt>
      <trkpt lat="43.52284" lon="2.45063">
        <ele>513.1</ele>
        <time>2013-03-10T13:02:48Z</time>
      </trkpt>
      <trkpt lat="43.52292" lon="2.45061">
        <ele>513.5</ele>
        <time>2013-03-10T13:02:58Z</time>
      </trkpt>
      <trkpt lat="43.52293" lon="2.45062">
        <ele>513.4</ele>
        <time>2013-03-10T13:02:59Z</time>
      </trkpt>
      <trkpt lat="43.523" lon="2.45078">
        <ele>509.8</ele>
        <time>2013-03-10T13:03:21Z</time>
      </trkpt>
      <trkpt lat="43.52297" lon="2.45089">
        <ele>510.4</ele>
        <time>2013-03-10T13:03:30Z</time>
      </trkpt>
      <trkpt lat="43.52292" lon="2.45099">
        <ele>509.4</ele>
        <time>2013-03-10T13:03:40Z</time>
      </trkpt>
      <trkpt lat="43.5229" lon="2.4511">
        <ele>509.4</ele>
        <time>2013-03-10T13:03:48Z</time>
      </trkpt>
      <trkpt lat="43.52287" lon="2.45122">
        <ele>510.3</ele>
        <time>2013-03-10T13:03:56Z</time>
      </trkpt>
      <trkpt lat="43.52286" lon="2.45132">
        <ele>510.3</ele>
        <time>2013-03-10T13:04:02Z</time>
      </trkpt>
      <trkpt lat="43.52285" lon="2.45134">
        <ele>510.6</ele>
        <time>2013-03-10T13:04:03Z</time>
      </trkpt>
      <trkpt lat="43.52285" lon="2.45155">
        <ele>509.3</ele>
        <time>2013-03-10T13:04:15Z</time>
      </trkpt>
      <trkpt lat="43.52287" lon="2.45167">
        <ele>508.2</ele>
        <time>2013-03-10T13:04:22Z</time>
      </trkpt>
      <trkpt lat="43.52289" lon="2.45177">
        <ele>509.2</ele>
        <time>2013-03-10T13:04:29Z</time>
      </trkpt>
      <trkpt lat="43.52293" lon="2.45188">
        <ele>509</ele>
        <time>2013-03-10T13:04:36Z</time>
      </trkpt>
      <trkpt lat="43.523" lon="2.45196">
        <ele>507.7</ele>
        <time>2013-03-10T13:04:43Z</time>
      </trkpt>
      <trkpt lat="43.52307" lon="2.45193">
        <ele>505.8</ele>
        <time>2013-03-10T13:04:54Z</time>
      </trkpt>
      <trkpt lat="43.52315" lon="2.45192">
        <ele>506.8</ele>
        <time>2013-03-10T13:05:01Z</time>
      </trkpt>
      <trkpt lat="43.52323" lon="2.4519">
        <ele>504.5</ele>
        <time>2013-03-10T13:05:10Z</time>
      </trkpt>
      <trkpt lat="43.52324" lon="2.45189">
        <ele>504.7</ele>
        <time>2013-03-10T13:05:11Z</time>
      </trkpt>
      <trkpt lat="43.52339" lon="2.45182">
        <ele>502.3</ele>
        <time>2013-03-10T13:05:25Z</time>
      </trkpt>
      <trkpt lat="43.52347" lon="2.45182">
        <ele>501.1</ele>
        <time>2013-03-10T13:05:31Z</time>
      </trkpt>
      <trkpt lat="43.52355" lon="2.45183">
        <ele>502.4</ele>
        <time>2013-03-10T13:05:38Z</time>
      </trkpt>
      <trkpt lat="43.52364" lon="2.45185">
        <ele>501.4</ele>
        <time>2013-03-10T13:05:47Z</time>
      </trkpt>
      <trkpt lat="43.52373" lon="2.45189">
        <ele>503</ele>
        <time>2013-03-10T13:06:02Z</time>
      </trkpt>
      <trkpt lat="43.52377" lon="2.452">
        <ele>502</ele>
        <time>2013-03-10T13:06:17Z</time>
      </trkpt>
      <trkpt lat="43.52377" lon="2.45201">
        <ele>501.9</ele>
        <time>2013-03-10T13:06:18Z</time>
      </trkpt>
      <trkpt lat="43.52382" lon="2.45222">
        <ele>502.2</ele>
        <time>2013-03-10T13:06:37Z</time>
      </trkpt>
      <trkpt lat="43.52387" lon="2.45232">
        <ele>503.1</ele>
        <time>2013-03-10T13:06:45Z</time>
      </trkpt>
      <trkpt lat="43.5239" lon="2.45243">
        <ele>502.8</ele>
        <time>2013-03-10T13:06:52Z</time>
      </trkpt>
      <trkpt lat="43.52394" lon="2.45253">
        <ele>502.7</ele>
        <time>2013-03-10T13:07:00Z</time>
      </trkpt>
      <trkpt lat="43.52399" lon="2.45263">
        <ele>503.4</ele>
        <time>2013-03-10T13:07:08Z</time>
      </trkpt>
      <trkpt lat="43.52404" lon="2.45273">
        <ele>504.7</ele>
        <time>2013-03-10T13:07:27Z</time>
      </trkpt>
      <trkpt lat="43.52404" lon="2.45273">
        <ele>504.6</ele>
        <time>2013-03-10T13:07:28Z</time>
      </trkpt>
      <trkpt lat="43.52395" lon="2.4529">
        <ele>505.4</ele>
        <time>2013-03-10T13:07:42Z</time>
      </trkpt>
      <trkpt lat="43.5239" lon="2.453">
        <ele>507.2</ele>
        <time>2013-03-10T13:07:48Z</time>
      </trkpt>
      <trkpt lat="43.52386" lon="2.45311">
        <ele>508</ele>
        <time>2013-03-10T13:07:56Z</time>
      </trkpt>
      <trkpt lat="43.52382" lon="2.45321">
        <ele>508.4</ele>
        <time>2013-03-10T13:08:04Z</time>
      </trkpt>
      <trkpt lat="43.52378" lon="2.4533">
        <ele>510.5</ele>
        <time>2013-03-10T13:08:11Z</time>
      </trkpt>
      <trkpt lat="43.52374" lon="2.4534">
        <ele>510.3</ele>
        <time>2013-03-10T13:08:19Z</time>
      </trkpt>
      <trkpt lat="43.52371" lon="2.45352">
        <ele>511.7</ele>
        <time>2013-03-10T13:08:29Z</time>
      </trkpt>
      <trkpt lat="43.52371" lon="2.45353">
        <ele>511.6</ele>
        <time>2013-03-10T13:08:30Z</time>
      </trkpt>
      <trkpt lat="43.52365" lon="2.45374">
        <ele>514</ele>
        <time>2013-03-10T13:08:52Z</time>
      </trkpt>
      <trkpt lat="43.52364" lon="2.45386">
        <ele>517.1</ele>
        <time>2013-03-10T13:09:03Z</time>
      </trkpt>
      <trkpt lat="43.52365" lon="2.45397">
        <ele>517.4</ele>
        <time>2013-03-10T13:09:12Z</time>
      </trkpt>
      <trkpt lat="43.52365" lon="2.45409">
        <ele>517.8</ele>
        <time>2013-03-10T13:09:20Z</time>
      </trkpt>
      <trkpt lat="43.52363" lon="2.45421">
        <ele>518.1</ele>
        <time>2013-03-10T13:09:28Z</time>
      </trkpt>
      <trkpt lat="43.52362" lon="2.45433">
        <ele>520.1</ele>
        <time>2013-03-10T13:09:35Z</time>
      </trkpt>
      <trkpt lat="43.52362" lon="2.45435">
        <ele>520.3</ele>
        <time>2013-03-10T13:09:36Z</time>
      </trkpt>
      <trkpt lat="43.5236" lon="2.45456">
        <ele>522.2</ele>
        <time>2013-03-10T13:09:51Z</time>
      </trkpt>
      <trkpt lat="43.52362" lon="2.45468">
        <ele>522.7</ele>
        <time>2013-03-10T13:10:05Z</time>
      </trkpt>
      <trkpt lat="43.52361" lon="2.4548">
        <ele>524.1</ele>
        <time>2013-03-10T13:10:23Z</time>
      </trkpt>
      <trkpt lat="43.5236" lon="2.45492">
        <ele>524.7</ele>
        <time>2013-03-10T13:10:35Z</time>
      </trkpt>
      <trkpt lat="43.52362" lon="2.45503">
        <ele>526.5</ele>
        <time>2013-03-10T13:10:45Z</time>
      </trkpt>
      <trkpt lat="43.52362" lon="2.45504">
        <ele>526.5</ele>
        <time>2013-03-10T13:10:46Z</time>
      </trkpt>
      <trkpt lat="43.5236" lon="2.45525">
        <ele>527.5</ele>
        <time>2013-03-10T13:11:00Z</time>
      </trkpt>
      <trkpt lat="43.52358" lon="2.45536">
        <ele>529.1</ele>
        <time>2013-03-10T13:11:06Z</time>
      </trkpt>
      <trkpt lat="43.52358" lon="2.45547">
        <ele>530.7</ele>
        <time>2013-03-10T13:11:14Z</time>
      </trkpt>
      <trkpt lat="43.52359" lon="2.45558">
        <ele>531.8</ele>
        <time>2013-03-10T13:11:22Z</time>
      </trkpt>
      <trkpt lat="43.5236" lon="2.45569">
        <ele>533.2</ele>
        <time>2013-03-10T13:11:30Z</time>
      </trkpt>
      <trkpt lat="43.52358" lon="2.45582">
        <ele>534.6</ele>
        <time>2013-03-10T13:11:44Z</time>
      </trkpt>
      <trkpt lat="43.52356" lon="2.45592">
        <ele>535.5</ele>
        <time>2013-03-10T13:14:35Z</time>
      </trkpt>
      <trkpt lat="43.52356" lon="2.45594">
        <ele>535.4</ele>
        <time>2013-03-10T13:14:36Z</time>
      </trkpt>
      <trkpt lat="43.52353" lon="2.45616">
        <ele>536</ele>
        <time>2013-03-10T13:14:55Z</time>
      </trkpt>
      <trkpt lat="43.52352" lon="2.45627">
        <ele>536.7</ele>
        <time>2013-03-10T13:15:02Z</time>
      </trkpt>
      <trkpt lat="43.5235" lon="2.45638">
        <ele>536.3</ele>
        <time>2013-03-10T13:15:09Z</time>
      </trkpt>
      <trkpt lat="43.52348" lon="2.45649">
        <ele>536.8</ele>
        <time>2013-03-10T13:15:16Z</time>
      </trkpt>
      <trkpt lat="43.52349" lon="2.45661">
        <ele>537.3</ele>
        <time>2013-03-10T13:15:24Z</time>
      </trkpt>
      <trkpt lat="43.5235" lon="2.45672">
        <ele>537.8</ele>
        <time>2013-03-10T13:15:31Z</time>
      </trkpt>
      <trkpt lat="43.5235" lon="2.45684">
        <ele>537.2</ele>
        <time>2013-03-10T13:15:38Z</time>
      </trkpt>
      <trkpt lat="43.5235" lon="2.45686">
        <ele>537.2</ele>
        <time>2013-03-10T13:15:39Z</time>
      </trkpt>
      <trkpt lat="43.52348" lon="2.45707">
        <ele>539.6</ele>
        <time>2013-03-10T13:15:52Z</time>
      </trkpt>
      <trkpt lat="43.52343" lon="2.45717">
        <ele>539.4</ele>
        <time>2013-03-10T13:15:59Z</time>
      </trkpt>
      <trkpt lat="43.52337" lon="2.45725">
        <ele>538.5</ele>
        <time>2013-03-10T13:16:06Z</time>
      </trkpt>
      <trkpt lat="43.52329" lon="2.45731">
        <ele>539.4</ele>
        <time>2013-03-10T13:16:13Z</time>
      </trkpt>
      <trkpt lat="43.52321" lon="2.45736">
        <ele>540.3</ele>
        <time>2013-03-10T13:16:22Z</time>
      </trkpt>
      <trkpt lat="43.52314" lon="2.45743">
        <ele>541.6</ele>
        <time>2013-03-10T13:16:34Z</time>
      </trkpt>
      <trkpt lat="43.52307" lon="2.4575">
        <ele>543.1</ele>
        <time>2013-03-10T13:16:45Z</time>
      </trkpt>
      <trkpt lat="43.52307" lon="2.4575">
        <ele>543.4</ele>
        <time>2013-03-10T13:16:46Z</time>
      </trkpt>
      <trkpt lat="43.52298" lon="2.4577">
        <ele>548</ele>
        <time>2013-03-10T13:17:09Z</time>
      </trkpt>
      <trkpt lat="43.52297" lon="2.45782">
        <ele>549.6</ele>
        <time>2013-03-10T13:17:19Z</time>
      </trkpt>
      <trkpt lat="43.52294" lon="2.45792">
        <ele>549.4</ele>
        <time>2013-03-10T13:17:26Z</time>
      </trkpt>
      <trkpt lat="43.52292" lon="2.45804">
        <ele>549.9</ele>
        <time>2013-03-10T13:17:38Z</time>
      </trkpt>
      <trkpt lat="43.52291" lon="2.45815">
        <ele>550.6</ele>
        <time>2013-03-10T13:17:46Z</time>
      </trkpt>
      <trkpt lat="43.52291" lon="2.45817">
        <ele>551</ele>
        <time>2013-03-10T13:17:47Z</time>
      </trkpt>
      <trkpt lat="43.52294" lon="2.45839">
        <ele>551.7</ele>
        <time>2013-03-10T13:18:01Z</time>
      </trkpt>
      <trkpt lat="43.52295" lon="2.45851">
        <ele>551.5</ele>
        <time>2013-03-10T13:18:08Z</time>
      </trkpt>
      <trkpt lat="43.52295" lon="2.45862">
        <ele>553.1</ele>
        <time>2013-03-10T13:18:15Z</time>
      </trkpt>
      <trkpt lat="43.52295" lon="2.45873">
        <ele>552.8</ele>
        <time>2013-03-10T13:18:23Z</time>
      </trkpt>
      <trkpt lat="43.52296" lon="2.45884">
        <ele>554.2</ele>
        <time>2013-03-10T13:18:31Z</time>
      </trkpt>
      <trkpt lat="43.52297" lon="2.45896">
        <ele>554.5</ele>
        <time>2013-03-10T13:18:39Z</time>
      </trkpt>
      <trkpt lat="43.52297" lon="2.45908">
        <ele>555.4</ele>
        <time>2013-03-10T13:18:47Z</time>
      </trkpt>
      <trkpt lat="43.52297" lon="2.45909">
        <ele>555.7</ele>
        <time>2013-03-10T13:18:48Z</time>
      </trkpt>
      <trkpt lat="43.52295" lon="2.4593">
        <ele>557.6</ele>
        <time>2013-03-10T13:19:02Z</time>
      </trkpt>
      <trkpt lat="43.52293" lon="2.45942">
        <ele>560.3</ele>
        <time>2013-03-10T13:19:09Z</time>
      </trkpt>
      <trkpt lat="43.52293" lon="2.45953">
        <ele>559.8</ele>
        <time>2013-03-10T13:19:17Z</time>
      </trkpt>
      <trkpt lat="43.52295" lon="2.45965">
        <ele>561</ele>
        <time>2013-03-10T13:19:26Z</time>
      </trkpt>
      <trkpt lat="43.52296" lon="2.45978">
        <ele>561.9</ele>
        <time>2013-03-10T13:19:35Z</time>
      </trkpt>
      <trkpt lat="43.52297" lon="2.45989">
        <ele>563.4</ele>
        <time>2013-03-10T13:19:43Z</time>
      </trkpt>
      <trkpt lat="43.52299" lon="2.46001">
        <ele>564.7</ele>
        <time>2013-03-10T13:21:37Z</time>
      </trkpt>
      <trkpt lat="43.52299" lon="2.46001">
        <ele>564.7</ele>
        <time>2013-03-10T13:21:38Z</time>
      </trkpt>
      <trkpt lat="43.52298" lon="2.46014">
        <ele>561.9</ele>
        <time>2013-03-10T13:23:34Z</time>
      </trkpt>
      <trkpt lat="43.52303" lon="2.46036">
        <ele>563.2</ele>
        <time>2013-03-10T13:23:49Z</time>
      </trkpt>
      <trkpt lat="43.52304" lon="2.46048">
        <ele>566.3</ele>
        <time>2013-03-10T13:23:57Z</time>
      </trkpt>
      <trkpt lat="43.52306" lon="2.4606">
        <ele>566.8</ele>
        <time>2013-03-10T13:24:05Z</time>
      </trkpt>
      <trkpt lat="43.52309" lon="2.46071">
        <ele>566.4</ele>
        <time>2013-03-10T13:24:13Z</time>
      </trkpt>
      <trkpt lat="43.52312" lon="2.46081">
        <ele>565.2</ele>
        <time>2013-03-10T13:24:20Z</time>
      </trkpt>
      <trkpt lat="43.52315" lon="2.46091">
        <ele>565.3</ele>
        <time>2013-03-10T13:24:27Z</time>
      </trkpt>
      <trkpt lat="43.52319" lon="2.46102">
        <ele>569.4</ele>
        <time>2013-03-10T13:24:36Z</time>
      </trkpt>
      <trkpt lat="43.52319" lon="2.46103">
        <ele>569.5</ele>
        <time>2013-03-10T13:24:37Z</time>
      </trkpt>
      <trkpt lat="43.5232" lon="2.46125">
        <ele>570.5</ele>
        <time>2013-03-10T13:24:50Z</time>
      </trkpt>
      <trkpt lat="43.5232" lon="2.46137">
        <ele>570.4</ele>
        <time>2013-03-10T13:24:58Z</time>
      </trkpt>
      <trkpt lat="43.52324" lon="2.46148">
        <ele>572.1</ele>
        <time>2013-03-10T13:25:07Z</time>
      </trkpt>
      <trkpt lat="43.52329" lon="2.46157">
        <ele>570.6</ele>
        <time>2013-03-10T13:25:15Z</time>
      </trkpt>
      <trkpt lat="43.52332" lon="2.46169">
        <ele>573.3</ele>
        <time>2013-03-10T13:25:23Z</time>
      </trkpt>
      <trkpt lat="43.52335" lon="2.46179">
        <ele>571.6</ele>
        <time>2013-03-10T13:25:30Z</time>
      </trkpt>
      <trkpt lat="43.5234" lon="2.46189">
        <ele>574</ele>
        <time>2013-03-10T13:25:37Z</time>
      </trkpt>
      <trkpt lat="43.5234" lon="2.4619">
        <ele>574.6</ele>
        <time>2013-03-10T13:25:38Z</time>
      </trkpt>
      <trkpt lat="43.52349" lon="2.46207">
        <ele>575.7</ele>
        <time>2013-03-10T13:25:52Z</time>
      </trkpt>
      <trkpt lat="43.52344" lon="2.46216">
        <ele>577.6</ele>
        <time>2013-03-10T13:28:16Z</time>
      </trkpt>
      <trkpt lat="43.52343" lon="2.46217">
        <ele>577.5</ele>
        <time>2013-03-10T13:28:17Z</time>
      </trkpt>
      <trkpt lat="43.52329" lon="2.46228">
        <ele>577.2</ele>
        <time>2013-03-10T13:28:30Z</time>
      </trkpt>
      <trkpt lat="43.52321" lon="2.46234">
        <ele>576.4</ele>
        <time>2013-03-10T13:28:37Z</time>
      </trkpt>
      <trkpt lat="43.52314" lon="2.46239">
        <ele>577.4</ele>
        <time>2013-03-10T13:28:43Z</time>
      </trkpt>
      <trkpt lat="43.52307" lon="2.46245">
        <ele>575.9</ele>
        <time>2013-03-10T13:28:49Z</time>
      </trkpt>
      <trkpt lat="43.52301" lon="2.46252">
        <ele>574.7</ele>
        <time>2013-03-10T13:28:58Z</time>
      </trkpt>
      <trkpt lat="43.52295" lon="2.46261">
        <ele>573.5</ele>
        <time>2013-03-10T13:29:06Z</time>
      </trkpt>
      <trkpt lat="43.52289" lon="2.4627">
        <ele>573.1</ele>
        <time>2013-03-10T13:29:14Z</time>
      </trkpt>
      <trkpt lat="43.52284" lon="2.46279">
        <ele>571.5</ele>
        <time>2013-03-10T13:29:23Z</time>
      </trkpt>
      <trkpt lat="43.52283" lon="2.4628">
        <ele>571.1</ele>
        <time>2013-03-10T13:29:24Z</time>
      </trkpt>
      <trkpt lat="43.52268" lon="2.46287">
        <ele>569</ele>
        <time>2013-03-10T13:29:42Z</time>
      </trkpt>
      <trkpt lat="43.5226" lon="2.4629">
        <ele>572.5</ele>
        <time>2013-03-10T13:29:50Z</time>
      </trkpt>
      <trkpt lat="43.52252" lon="2.46294">
        <ele>567.6</ele>
        <time>2013-03-10T13:29:57Z</time>
      </trkpt>
      <trkpt lat="43.52243" lon="2.46296">
        <ele>568</ele>
        <time>2013-03-10T13:30:05Z</time>
      </trkpt>
      <trkpt lat="43.52234" lon="2.46298">
        <ele>571.3</ele>
        <time>2013-03-10T13:30:12Z</time>
      </trkpt>
      <trkpt lat="43.52227" lon="2.46297">
        <ele>570.4</ele>
        <time>2013-03-10T13:30:18Z</time>
      </trkpt>
      <trkpt lat="43.52218" lon="2.46296">
        <ele>567.7</ele>
        <time>2013-03-10T13:30:28Z</time>
      </trkpt>
      <trkpt lat="43.52217" lon="2.46295">
        <ele>568</ele>
        <time>2013-03-10T13:30:29Z</time>
      </trkpt>
      <trkpt lat="43.52204" lon="2.46287">
        <ele>567.3</ele>
        <time>2013-03-10T13:30:41Z</time>
      </trkpt>
      <trkpt lat="43.52198" lon="2.46279">
        <ele>567</ele>
        <time>2013-03-10T13:30:49Z</time>
      </trkpt>
      <trkpt lat="43.52193" lon="2.4627">
        <ele>564.5</ele>
        <time>2013-03-10T13:30:58Z</time>
      </trkpt>
      <trkpt lat="43.5219" lon="2.46259">
        <ele>560.9</ele>
        <time>2013-03-10T13:31:08Z</time>
      </trkpt>
      <trkpt lat="43.52189" lon="2.46247">
        <ele>560.2</ele>
        <time>2013-03-10T13:31:18Z</time>
      </trkpt>
      <trkpt lat="43.52189" lon="2.46235">
        <ele>559.2</ele>
        <time>2013-03-10T13:31:26Z</time>
      </trkpt>
      <trkpt lat="43.52188" lon="2.46223">
        <ele>561.9</ele>
        <time>2013-03-10T13:31:33Z</time>
      </trkpt>
      <trkpt lat="43.52188" lon="2.46222">
        <ele>559.5</ele>
        <time>2013-03-10T13:31:34Z</time>
      </trkpt>
      <trkpt lat="43.52188" lon="2.462">
        <ele>557.5</ele>
        <time>2013-03-10T13:31:49Z</time>
      </trkpt>
      <trkpt lat="43.52187" lon="2.46189">
        <ele>553</ele>
        <time>2013-03-10T13:31:55Z</time>
      </trkpt>
      <trkpt lat="43.52186" lon="2.46177">
        <ele>554.8</ele>
        <time>2013-03-10T13:32:03Z</time>
      </trkpt>
      <trkpt lat="43.52185" lon="2.46165">
        <ele>554.9</ele>
        <time>2013-03-10T13:32:12Z</time>
      </trkpt>
      <trkpt lat="43.52184" lon="2.46153">
        <ele>550.9</ele>
        <time>2013-03-10T13:32:22Z</time>
      </trkpt>
      <trkpt lat="43.52183" lon="2.46141">
        <ele>547.9</ele>
        <time>2013-03-10T13:32:31Z</time>
      </trkpt>
      <trkpt lat="43.52181" lon="2.46129">
        <ele>548.7</ele>
        <time>2013-03-10T13:32:39Z</time>
      </trkpt>
      <trkpt lat="43.5218" lon="2.46128">
        <ele>547.8</ele>
        <time>2013-03-10T13:32:40Z</time>
      </trkpt>
      <trkpt lat="43.52168" lon="2.46113">
        <ele>547.8</ele>
        <time>2013-03-10T13:32:56Z</time>
      </trkpt>
      <trkpt lat="43.52162" lon="2.46105">
        <ele>547.7</ele>
        <time>2013-03-10T13:33:08Z</time>
      </trkpt>
      <trkpt lat="43.52166" lon="2.46115">
        <ele>547.9</ele>
        <time>2013-03-10T13:33:38Z</time>
      </trkpt>
      <trkpt lat="43.52171" lon="2.46105">
        <ele>545.8</ele>
        <time>2013-03-10T13:33:51Z</time>
      </trkpt>
      <trkpt lat="43.52171" lon="2.46104">
        <ele>545.6</ele>
        <time>2013-03-10T13:33:52Z</time>
      </trkpt>
      <trkpt lat="43.52166" lon="2.46084">
        <ele>549.1</ele>
        <time>2013-03-10T13:34:06Z</time>
      </trkpt>
      <trkpt lat="43.52161" lon="2.46075">
        <ele>547</ele>
        <time>2013-03-10T13:34:10Z</time>
      </trkpt>
      <trkpt lat="43.52155" lon="2.46068">
        <ele>545.9</ele>
        <time>2013-03-10T13:34:14Z</time>
      </trkpt>
      <trkpt lat="43.5215" lon="2.4606">
        <ele>548.5</ele>
        <time>2013-03-10T13:34:19Z</time>
      </trkpt>
      <trkpt lat="43.52144" lon="2.46051">
        <ele>548.9</ele>
        <time>2013-03-10T13:34:25Z</time>
      </trkpt>
      <trkpt lat="43.52138" lon="2.46042">
        <ele>546</ele>
        <time>2013-03-10T13:34:31Z</time>
      </trkpt>
      <trkpt lat="43.52133" lon="2.46033">
        <ele>545.4</ele>
        <time>2013-03-10T13:34:37Z</time>
      </trkpt>
      <trkpt lat="43.52128" lon="2.46023">
        <ele>544.9</ele>
        <time>2013-03-10T13:34:44Z</time>
      </trkpt>
      <trkpt lat="43.52127" lon="2.46012">
        <ele>540.7</ele>
        <time>2013-03-10T13:34:51Z</time>
      </trkpt>
      <trkpt lat="43.52126" lon="2.46001">
        <ele>539.2</ele>
        <time>2013-03-10T13:34:58Z</time>
      </trkpt>
      <trkpt lat="43.52126" lon="2.45999">
        <ele>539.5</ele>
        <time>2013-03-10T13:34:59Z</time>
      </trkpt>
      <trkpt lat="43.52128" lon="2.45978">
        <ele>538.5</ele>
        <time>2013-03-10T13:35:10Z</time>
      </trkpt>
      <trkpt lat="43.52128" lon="2.45967">
        <ele>537</ele>
        <time>2013-03-10T13:35:16Z</time>
      </trkpt>
      <trkpt lat="43.52128" lon="2.45955">
        <ele>536.8</ele>
        <time>2013-03-10T13:35:22Z</time>
      </trkpt>
      <trkpt lat="43.52128" lon="2.45944">
        <ele>538</ele>
        <time>2013-03-10T13:35:27Z</time>
      </trkpt>
      <trkpt lat="43.52128" lon="2.45932">
        <ele>541.9</ele>
        <time>2013-03-10T13:35:33Z</time>
      </trkpt>
      <trkpt lat="43.52128" lon="2.45921">
        <ele>538.9</ele>
        <time>2013-03-10T13:35:40Z</time>
      </trkpt>
      <trkpt lat="43.52127" lon="2.4591">
        <ele>541.5</ele>
        <time>2013-03-10T13:35:46Z</time>
      </trkpt>
      <trkpt lat="43.52124" lon="2.45899">
        <ele>537.3</ele>
        <time>2013-03-10T13:36:05Z</time>
      </trkpt>
      <trkpt lat="43.52124" lon="2.45898">
        <ele>537.4</ele>
        <time>2013-03-10T13:36:06Z</time>
      </trkpt>
      <trkpt lat="43.52123" lon="2.45876">
        <ele>538.2</ele>
        <time>2013-03-10T13:36:15Z</time>
      </trkpt>
      <trkpt lat="43.52119" lon="2.45865">
        <ele>537.2</ele>
        <time>2013-03-10T13:36:19Z</time>
      </trkpt>
      <trkpt lat="43.52115" lon="2.45855">
        <ele>535.3</ele>
        <time>2013-03-10T13:36:22Z</time>
      </trkpt>
      <trkpt lat="43.52111" lon="2.45846">
        <ele>538.1</ele>
        <time>2013-03-10T13:36:26Z</time>
      </trkpt>
      <trkpt lat="43.52108" lon="2.45836">
        <ele>538.5</ele>
        <time>2013-03-10T13:36:31Z</time>
      </trkpt>
      <trkpt lat="43.52106" lon="2.45824">
        <ele>534.9</ele>
        <time>2013-03-10T13:36:37Z</time>
      </trkpt>
      <trkpt lat="43.52104" lon="2.45813">
        <ele>534.2</ele>
        <time>2013-03-10T13:36:43Z</time>
      </trkpt>
      <trkpt lat="43.52103" lon="2.45801">
        <ele>536.7</ele>
        <time>2013-03-10T13:36:48Z</time>
      </trkpt>
      <trkpt lat="43.52101" lon="2.4579">
        <ele>532.3</ele>
        <time>2013-03-10T13:36:55Z</time>
      </trkpt>
      <trkpt lat="43.52098" lon="2.45778">
        <ele>531.8</ele>
        <time>2013-03-10T13:37:02Z</time>
      </trkpt>
      <trkpt lat="43.52095" lon="2.45768">
        <ele>532</ele>
        <time>2013-03-10T13:37:08Z</time>
      </trkpt>
      <trkpt lat="43.52094" lon="2.45766">
        <ele>532.1</ele>
        <time>2013-03-10T13:37:09Z</time>
      </trkpt>
      <trkpt lat="43.52088" lon="2.45747">
        <ele>530.3</ele>
        <time>2013-03-10T13:37:19Z</time>
      </trkpt>
      <trkpt lat="43.52086" lon="2.45735">
        <ele>524.2</ele>
        <time>2013-03-10T13:37:26Z</time>
      </trkpt>
      <trkpt lat="43.52083" lon="2.45723">
        <ele>527</ele>
        <time>2013-03-10T13:37:31Z</time>
      </trkpt>
      <trkpt lat="43.52081" lon="2.45713">
        <ele>527.2</ele>
        <time>2013-03-10T13:37:36Z</time>
      </trkpt>
      <trkpt lat="43.52077" lon="2.45704">
        <ele>523.4</ele>
        <time>2013-03-10T13:37:42Z</time>
      </trkpt>
      <trkpt lat="43.5207" lon="2.45697">
        <ele>522</ele>
        <time>2013-03-10T13:37:47Z</time>
      </trkpt>
      <trkpt lat="43.52063" lon="2.45691">
        <ele>520.2</ele>
        <time>2013-03-10T13:37:53Z</time>
      </trkpt>
      <trkpt lat="43.52056" lon="2.45682">
        <ele>517.2</ele>
        <time>2013-03-10T13:38:02Z</time>
      </trkpt>
      <trkpt lat="43.52052" lon="2.45673">
        <ele>515.8</ele>
        <time>2013-03-10T13:38:10Z</time>
      </trkpt>
      <trkpt lat="43.52052" lon="2.45672">
        <ele>514.3</ele>
        <time>2013-03-10T13:38:11Z</time>
      </trkpt>
      <trkpt lat="43.52041" lon="2.45655">
        <ele>515.6</ele>
        <time>2013-03-10T13:38:29Z</time>
      </trkpt>
      <trkpt lat="43.52039" lon="2.45643">
        <ele>512.2</ele>
        <time>2013-03-10T13:38:41Z</time>
      </trkpt>
      <trkpt lat="43.52037" lon="2.45632">
        <ele>510.9</ele>
        <time>2013-03-10T13:38:52Z</time>
      </trkpt>
      <trkpt lat="43.52034" lon="2.45622">
        <ele>508.7</ele>
        <time>2013-03-10T13:39:00Z</time>
      </trkpt>
      <trkpt lat="43.52029" lon="2.45611">
        <ele>506</ele>
        <time>2013-03-10T13:39:11Z</time>
      </trkpt>
      <trkpt lat="43.52029" lon="2.4561">
        <ele>506.5</ele>
        <time>2013-03-10T13:39:12Z</time>
      </trkpt>
      <trkpt lat="43.52021" lon="2.45592">
        <ele>503.9</ele>
        <time>2013-03-10T13:39:32Z</time>
      </trkpt>
      <trkpt lat="43.52017" lon="2.45581">
        <ele>504.2</ele>
        <time>2013-03-10T13:39:40Z</time>
      </trkpt>
      <trkpt lat="43.52011" lon="2.45572">
        <ele>501.4</ele>
        <time>2013-03-10T13:39:45Z</time>
      </trkpt>
      <trkpt lat="43.52005" lon="2.45564">
        <ele>499.9</ele>
        <time>2013-03-10T13:39:49Z</time>
      </trkpt>
      <trkpt lat="43.51999" lon="2.45555">
        <ele>500.1</ele>
        <time>2013-03-10T13:39:56Z</time>
      </trkpt>
      <trkpt lat="43.51994" lon="2.45545">
        <ele>500.5</ele>
        <time>2013-03-10T13:40:07Z</time>
      </trkpt>
      <trkpt lat="43.51989" lon="2.45537">
        <ele>496.7</ele>
        <time>2013-03-10T13:40:13Z</time>
      </trkpt>
      <trkpt lat="43.51989" lon="2.45535">
        <ele>497.3</ele>
        <time>2013-03-10T13:40:14Z</time>
      </trkpt>
      <trkpt lat="43.51981" lon="2.45516">
        <ele>495.1</ele>
        <time>2013-03-10T13:40:31Z</time>
      </trkpt>
      <trkpt lat="43.51978" lon="2.45505">
        <ele>493</ele>
        <time>2013-03-10T13:40:41Z</time>
      </trkpt>
      <trkpt lat="43.51977" lon="2.45494">
        <ele>491.6</ele>
        <time>2013-03-10T13:40:50Z</time>
      </trkpt>
      <trkpt lat="43.51973" lon="2.45483">
        <ele>489</ele>
        <time>2013-03-10T13:40:59Z</time>
      </trkpt>
      <trkpt lat="43.5197" lon="2.45473">
        <ele>488.1</ele>
        <time>2013-03-10T13:41:07Z</time>
      </trkpt>
      <trkpt lat="43.51967" lon="2.45462">
        <ele>486</ele>
        <time>2013-03-10T13:41:14Z</time>
      </trkpt>
      <trkpt lat="43.51967" lon="2.45461">
        <ele>486.3</ele>
        <time>2013-03-10T13:41:15Z</time>
      </trkpt>
      <trkpt lat="43.5196" lon="2.45441">
        <ele>484.3</ele>
        <time>2013-03-10T13:41:37Z</time>
      </trkpt>
      <trkpt lat="43.5196" lon="2.45429">
        <ele>484.4</ele>
        <time>2013-03-10T13:41:44Z</time>
      </trkpt>
      <trkpt lat="43.51959" lon="2.45418">
        <ele>484.2</ele>
        <time>2013-03-10T13:41:51Z</time>
      </trkpt>
      <trkpt lat="43.51958" lon="2.45407">
        <ele>481.7</ele>
        <time>2013-03-10T13:41:58Z</time>
      </trkpt>
      <trkpt lat="43.51959" lon="2.45395">
        <ele>481.8</ele>
        <time>2013-03-10T13:42:06Z</time>
      </trkpt>
      <trkpt lat="43.5196" lon="2.45384">
        <ele>478.9</ele>
        <time>2013-03-10T13:42:14Z</time>
      </trkpt>
      <trkpt lat="43.51953" lon="2.45377">
        <ele>478.4</ele>
        <time>2013-03-10T13:42:23Z</time>
      </trkpt>
      <trkpt lat="43.51952" lon="2.45377">
        <ele>477.8</ele>
        <time>2013-03-10T13:42:24Z</time>
      </trkpt>
      <trkpt lat="43.5194" lon="2.45392">
        <ele>477.4</ele>
        <time>2013-03-10T13:42:42Z</time>
      </trkpt>
      <trkpt lat="43.51934" lon="2.45401">
        <ele>475.3</ele>
        <time>2013-03-10T13:42:50Z</time>
      </trkpt>
      <trkpt lat="43.5193" lon="2.45412">
        <ele>473.5</ele>
        <time>2013-03-10T13:42:58Z</time>
      </trkpt>
      <trkpt lat="43.51928" lon="2.45423">
        <ele>475.3</ele>
        <time>2013-03-10T13:43:05Z</time>
      </trkpt>
      <trkpt lat="43.51925" lon="2.45433">
        <ele>474.2</ele>
        <time>2013-03-10T13:43:13Z</time>
      </trkpt>
      <trkpt lat="43.51922" lon="2.45444">
        <ele>471.4</ele>
        <time>2013-03-10T13:43:20Z</time>
      </trkpt>
      <trkpt lat="43.5192" lon="2.45456">
        <ele>468.2</ele>
        <time>2013-03-10T13:43:27Z</time>
      </trkpt>
      <trkpt lat="43.5192" lon="2.45457">
        <ele>468.8</ele>
        <time>2013-03-10T13:43:28Z</time>
      </trkpt>
      <trkpt lat="43.51911" lon="2.45463">
        <ele>465.1</ele>
        <time>2013-03-10T13:43:52Z</time>
      </trkpt>
      <trkpt lat="43.51907" lon="2.45453">
        <ele>465.2</ele>
        <time>2013-03-10T13:43:58Z</time>
      </trkpt>
      <trkpt lat="43.51902" lon="2.45443">
        <ele>464.8</ele>
        <time>2013-03-10T13:44:06Z</time>
      </trkpt>
      <trkpt lat="43.51898" lon="2.45433">
        <ele>462</ele>
        <time>2013-03-10T13:44:16Z</time>
      </trkpt>
      <trkpt lat="43.51895" lon="2.45423">
        <ele>459.6</ele>
        <time>2013-03-10T13:44:25Z</time>
      </trkpt>
      <trkpt lat="43.51891" lon="2.45412">
        <ele>461</ele>
        <time>2013-03-10T13:44:36Z</time>
      </trkpt>
      <trkpt lat="43.5189" lon="2.45411">
        <ele>459</ele>
        <time>2013-03-10T13:44:37Z</time>
      </trkpt>
      <trkpt lat="43.51884" lon="2.45391">
        <ele>456.8</ele>
        <time>2013-03-10T13:44:53Z</time>
      </trkpt>
      <trkpt lat="43.51878" lon="2.45383">
        <ele>456</ele>
        <time>2013-03-10T13:45:01Z</time>
      </trkpt>
      <trkpt lat="43.51869" lon="2.45382">
        <ele>455.9</ele>
        <time>2013-03-10T13:45:25Z</time>
      </trkpt>
      <trkpt lat="43.5187" lon="2.4537">
        <ele>455.8</ele>
        <time>2013-03-10T13:47:22Z</time>
      </trkpt>
      <trkpt lat="43.5187" lon="2.45369">
        <ele>456.6</ele>
        <time>2013-03-10T13:47:23Z</time>
      </trkpt>
      <trkpt lat="43.5187" lon="2.45347">
        <ele>451.8</ele>
        <time>2013-03-10T13:47:40Z</time>
      </trkpt>
      <trkpt lat="43.5187" lon="2.45336">
        <ele>451.5</ele>
        <time>2013-03-10T13:47:48Z</time>
      </trkpt>
      <trkpt lat="43.51867" lon="2.45326">
        <ele>451.5</ele>
        <time>2013-03-10T13:47:54Z</time>
      </trkpt>
      <trkpt lat="43.51866" lon="2.45314">
        <ele>451.5</ele>
        <time>2013-03-10T13:48:05Z</time>
      </trkpt>
      <trkpt lat="43.51867" lon="2.45302">
        <ele>448.5</ele>
        <time>2013-03-10T13:48:16Z</time>
      </trkpt>
      <trkpt lat="43.51865" lon="2.45291">
        <ele>449.5</ele>
        <time>2013-03-10T13:48:24Z</time>
      </trkpt>
      <trkpt lat="43.51865" lon="2.45289">
        <ele>447.8</ele>
        <time>2013-03-10T13:48:25Z</time>
      </trkpt>
      <trkpt lat="43.51866" lon="2.45268">
        <ele>446.1</ele>
        <time>2013-03-10T13:48:43Z</time>
      </trkpt>
      <trkpt lat="43.51865" lon="2.45256">
        <ele>447.4</ele>
        <time>2013-03-10T13:48:51Z</time>
      </trkpt>
      <trkpt lat="43.51865" lon="2.45244">
        <ele>443.7</ele>
        <time>2013-03-10T13:49:00Z</time>
      </trkpt>
      <trkpt lat="43.51867" lon="2.45233">
        <ele>442.3</ele>
        <time>2013-03-10T13:49:09Z</time>
      </trkpt>
      <trkpt lat="43.51872" lon="2.45223">
        <ele>443.7</ele>
        <time>2013-03-10T13:49:19Z</time>
      </trkpt>
      <trkpt lat="43.51874" lon="2.45211">
        <ele>442.9</ele>
        <time>2013-03-10T13:49:28Z</time>
      </trkpt>
      <trkpt lat="43.51875" lon="2.4521">
        <ele>442.6</ele>
        <time>2013-03-10T13:49:29Z</time>
      </trkpt>
      <trkpt lat="43.51885" lon="2.45194">
        <ele>441.1</ele>
        <time>2013-03-10T13:49:47Z</time>
      </trkpt>
      <trkpt lat="43.51893" lon="2.45188">
        <ele>438.8</ele>
        <time>2013-03-10T13:49:55Z</time>
      </trkpt>
      <trkpt lat="43.519" lon="2.45181">
        <ele>439</ele>
        <time>2013-03-10T13:50:02Z</time>
      </trkpt>
      <trkpt lat="43.51905" lon="2.45173">
        <ele>439.6</ele>
        <time>2013-03-10T13:50:08Z</time>
      </trkpt>
      <trkpt lat="43.5191" lon="2.45164">
        <ele>436.6</ele>
        <time>2013-03-10T13:50:15Z</time>
      </trkpt>
      <trkpt lat="43.51915" lon="2.45156">
        <ele>438.2</ele>
        <time>2013-03-10T13:50:22Z</time>
      </trkpt>
      <trkpt lat="43.5192" lon="2.45146">
        <ele>437.4</ele>
        <time>2013-03-10T13:50:30Z</time>
      </trkpt>
      <trkpt lat="43.5192" lon="2.45144">
        <ele>436.5</ele>
        <time>2013-03-10T13:50:31Z</time>
      </trkpt>
      <trkpt lat="43.5193" lon="2.45127">
        <ele>437.2</ele>
        <time>2013-03-10T13:50:45Z</time>
      </trkpt>
      <trkpt lat="43.51933" lon="2.45117">
        <ele>435.6</ele>
        <time>2013-03-10T13:50:52Z</time>
      </trkpt>
      <trkpt lat="43.51938" lon="2.45106">
        <ele>436.3</ele>
        <time>2013-03-10T13:51:00Z</time>
      </trkpt>
      <trkpt lat="43.51939" lon="2.45095">
        <ele>431</ele>
        <time>2013-03-10T13:51:10Z</time>
      </trkpt>
      <trkpt lat="43.51934" lon="2.45087">
        <ele>431.9</ele>
        <time>2013-03-10T13:51:16Z</time>
      </trkpt>
      <trkpt lat="43.51928" lon="2.45079">
        <ele>432.7</ele>
        <time>2013-03-10T13:51:22Z</time>
      </trkpt>
      <trkpt lat="43.51922" lon="2.4507">
        <ele>431.9</ele>
        <time>2013-03-10T13:51:28Z</time>
      </trkpt>
      <trkpt lat="43.51914" lon="2.45073">
        <ele>429.5</ele>
        <time>2013-03-10T13:52:12Z</time>
      </trkpt>
      <trkpt lat="43.51914" lon="2.45074">
        <ele>429.4</ele>
        <time>2013-03-10T13:52:13Z</time>
      </trkpt>
      <trkpt lat="43.51898" lon="2.45079">
        <ele>429.6</ele>
        <time>2013-03-10T13:52:35Z</time>
      </trkpt>
      <trkpt lat="43.5189" lon="2.45073">
        <ele>428.9</ele>
        <time>2013-03-10T13:52:58Z</time>
      </trkpt>
      <trkpt lat="43.51882" lon="2.45071">
        <ele>429.1</ele>
        <time>2013-03-10T13:53:08Z</time>
      </trkpt>
      <trkpt lat="43.51876" lon="2.45064">
        <ele>429.2</ele>
        <time>2013-03-10T13:53:15Z</time>
      </trkpt>
      <trkpt lat="43.51875" lon="2.45063">
        <ele>429</ele>
        <time>2013-03-10T13:53:16Z</time>
      </trkpt>
      <trkpt lat="43.51864" lon="2.45049">
        <ele>428</ele>
        <time>2013-03-10T13:53:36Z</time>
      </trkpt>
      <trkpt lat="43.51863" lon="2.45037">
        <ele>428.8</ele>
        <time>2013-03-10T13:53:45Z</time>
      </trkpt>
      <trkpt lat="43.5186" lon="2.45026">
        <ele>428.9</ele>
        <time>2013-03-10T13:53:53Z</time>
      </trkpt>
      <trkpt lat="43.51857" lon="2.45015">
        <ele>429.8</ele>
        <time>2013-03-10T13:54:01Z</time>
      </trkpt>
      <trkpt lat="43.51853" lon="2.45005">
        <ele>430.1</ele>
        <time>2013-03-10T13:54:08Z</time>
      </trkpt>
      <trkpt lat="43.5185" lon="2.44994">
        <ele>430.1</ele>
        <time>2013-03-10T13:54:16Z</time>
      </trkpt>
      <trkpt lat="43.51849" lon="2.44992">
        <ele>430.8</ele>
        <time>2013-03-10T13:54:17Z</time>
      </trkpt>
      <trkpt lat="43.51842" lon="2.44973">
        <ele>430.2</ele>
        <time>2013-03-10T13:54:32Z</time>
      </trkpt>
      <trkpt lat="43.5184" lon="2.44963">
        <ele>428.7</ele>
        <time>2013-03-10T13:54:40Z</time>
      </trkpt>
      <trkpt lat="43.51837" lon="2.44951">
        <ele>429.6</ele>
        <time>2013-03-10T13:54:49Z</time>
      </trkpt>
      <trkpt lat="43.51834" lon="2.44941">
        <ele>431.6</ele>
        <time>2013-03-10T13:54:57Z</time>
      </trkpt>
      <trkpt lat="43.51829" lon="2.44931">
        <ele>430.9</ele>
        <time>2013-03-10T13:55:05Z</time>
      </trkpt>
      <trkpt lat="43.51824" lon="2.44921">
        <ele>430.6</ele>
        <time>2013-03-10T13:55:12Z</time>
      </trkpt>
      <trkpt lat="43.51819" lon="2.44913">
        <ele>431.3</ele>
        <time>2013-03-10T13:55:18Z</time>
      </trkpt>
      <trkpt lat="43.51818" lon="2.44912">
        <ele>431.7</ele>
        <time>2013-03-10T13:55:19Z</time>
      </trkpt>
      <trkpt lat="43.51809" lon="2.44895">
        <ele>431.4</ele>
        <time>2013-03-10T13:55:32Z</time>
      </trkpt>
      <trkpt lat="43.51805" lon="2.44884">
        <ele>431.6</ele>
        <time>2013-03-10T13:55:40Z</time>
      </trkpt>
      <trkpt lat="43.51801" lon="2.44874">
        <ele>432.6</ele>
        <time>2013-03-10T13:55:48Z</time>
      </trkpt>
      <trkpt lat="43.51796" lon="2.44865">
        <ele>431.9</ele>
        <time>2013-03-10T13:55:56Z</time>
      </trkpt>
      <trkpt lat="43.51795" lon="2.44862">
        <ele>432.4</ele>
        <time>2013-03-10T13:55:58Z</time>
      </trkpt>
      <trkpt lat="43.51772" lon="2.44878">
        <ele>431.6</ele>
        <time>2013-03-10T13:56:07Z</time>
      </trkpt>
      <trkpt lat="43.51759" lon="2.4488">
        <ele>431.1</ele>
        <time>2013-03-10T13:56:08Z</time>
      </trkpt>
      <trkpt lat="43.51757" lon="2.44869">
        <ele>433.3</ele>
        <time>2013-03-10T13:56:20Z</time>
      </trkpt>
      <trkpt lat="43.51755" lon="2.44868">
        <ele>433.7</ele>
        <time>2013-03-10T13:56:21Z</time>
      </trkpt>
      <trkpt lat="43.5174" lon="2.4487">
        <ele>432.6</ele>
        <time>2013-03-10T13:56:33Z</time>
      </trkpt>
      <trkpt lat="43.51732" lon="2.44869">
        <ele>433.4</ele>
        <time>2013-03-10T13:56:40Z</time>
      </trkpt>
      <trkpt lat="43.51724" lon="2.44868">
        <ele>434.9</ele>
        <time>2013-03-10T13:56:48Z</time>
      </trkpt>
      <trkpt lat="43.51717" lon="2.44875">
        <ele>434.4</ele>
        <time>2013-03-10T13:56:55Z</time>
      </trkpt>
      <trkpt lat="43.51712" lon="2.44886">
        <ele>433.4</ele>
        <time>2013-03-10T13:57:02Z</time>
      </trkpt>
      <trkpt lat="43.51706" lon="2.44895">
        <ele>432.8</ele>
        <time>2013-03-10T13:57:09Z</time>
      </trkpt>
      <trkpt lat="43.51699" lon="2.44902">
        <ele>433</ele>
        <time>2013-03-10T13:57:16Z</time>
      </trkpt>
      <trkpt lat="43.51691" lon="2.44906">
        <ele>432.9</ele>
        <time>2013-03-10T13:57:25Z</time>
      </trkpt>
      <trkpt lat="43.5169" lon="2.44906">
        <ele>432.9</ele>
        <time>2013-03-10T13:57:26Z</time>
      </trkpt>
      <trkpt lat="43.51682" lon="2.44907">
        <ele>431.1</ele>
        <time>2013-03-10T14:00:41Z</time>
      </trkpt>
      <trkpt lat="43.51692" lon="2.4491">
        <ele>432.3</ele>
        <time>2013-03-10T14:04:27Z</time>
      </trkpt>
      <trkpt lat="43.51682" lon="2.44908">
        <ele>432.2</ele>
        <time>2013-03-10T14:05:57Z</time>
      </trkpt>
      <trkpt lat="43.51692" lon="2.44907">
        <ele>432.2</ele>
        <time>2013-03-10T14:07:55Z</time>
      </trkpt>
      <trkpt lat="43.51683" lon="2.44902">
        <ele>432.5</ele>
        <time>2013-03-10T14:09:20Z</time>
      </trkpt>
      <trkpt lat="43.51681" lon="2.449">
        <ele>431.1</ele>
        <time>2013-03-10T14:17:35Z</time>
      </trkpt>
      <trkpt lat="43.51689" lon="2.44901">
        <ele>430.7</ele>
        <time>2013-03-10T14:17:47Z</time>
      </trkpt>
      <trkpt lat="43.5169" lon="2.44901">
        <ele>429.5</ele>
        <time>2013-03-10T14:17:48Z</time>
      </trkpt>
      <trkpt lat="43.51698" lon="2.44898">
        <ele>432.5</ele>
        <time>2013-03-10T14:19:21Z</time>
      </trkpt>
      <trkpt lat="43.51699" lon="2.44897">
        <ele>432.8</ele>
        <time>2013-03-10T14:19:22Z</time>
      </trkpt>
      <trkpt lat="43.5171" lon="2.44881">
        <ele>434.8</ele>
        <time>2013-03-10T14:19:36Z</time>
      </trkpt>
      <trkpt lat="43.51714" lon="2.4487">
        <ele>434.9</ele>
        <time>2013-03-10T14:19:43Z</time>
      </trkpt>
      <trkpt lat="43.51716" lon="2.44859">
        <ele>435.4</ele>
        <time>2013-03-10T14:19:50Z</time>
      </trkpt>
      <trkpt lat="43.51716" lon="2.44848">
        <ele>436.9</ele>
        <time>2013-03-10T14:19:57Z</time>
      </trkpt>
      <trkpt lat="43.51717" lon="2.44836">
        <ele>438.5</ele>
        <time>2013-03-10T14:20:06Z</time>
      </trkpt>
      <trkpt lat="43.51717" lon="2.44823">
        <ele>438.5</ele>
        <time>2013-03-10T14:20:14Z</time>
      </trkpt>
      <trkpt lat="43.51715" lon="2.44813">
        <ele>438</ele>
        <time>2013-03-10T14:20:22Z</time>
      </trkpt>
      <trkpt lat="43.51714" lon="2.44811">
        <ele>438.1</ele>
        <time>2013-03-10T14:20:23Z</time>
      </trkpt>
      <trkpt lat="43.51704" lon="2.44794">
        <ele>438.7</ele>
        <time>2013-03-10T14:20:39Z</time>
      </trkpt>
      <trkpt lat="43.51699" lon="2.44785">
        <ele>439.8</ele>
        <time>2013-03-10T14:20:52Z</time>
      </trkpt>
      <trkpt lat="43.51693" lon="2.44776">
        <ele>441.5</ele>
        <time>2013-03-10T14:21:01Z</time>
      </trkpt>
      <trkpt lat="43.51686" lon="2.44767">
        <ele>440.2</ele>
        <time>2013-03-10T14:21:09Z</time>
      </trkpt>
      <trkpt lat="43.5168" lon="2.4476">
        <ele>441.7</ele>
        <time>2013-03-10T14:21:16Z</time>
      </trkpt>
      <trkpt lat="43.51675" lon="2.44751">
        <ele>441.7</ele>
        <time>2013-03-10T14:21:23Z</time>
      </trkpt>
      <trkpt lat="43.51674" lon="2.44749">
        <ele>441.7</ele>
        <time>2013-03-10T14:21:24Z</time>
      </trkpt>
      <trkpt lat="43.51673" lon="2.44729">
        <ele>441.7</ele>
        <time>2013-03-10T14:21:37Z</time>
      </trkpt>
      <trkpt lat="43.51674" lon="2.44718">
        <ele>442.7</ele>
        <time>2013-03-10T14:21:44Z</time>
      </trkpt>
      <trkpt lat="43.51673" lon="2.44707">
        <ele>443.5</ele>
        <time>2013-03-10T14:21:51Z</time>
      </trkpt>
      <trkpt lat="43.51668" lon="2.44698">
        <ele>444.4</ele>
        <time>2013-03-10T14:21:58Z</time>
      </trkpt>
      <trkpt lat="43.51663" lon="2.44689">
        <ele>445.8</ele>
        <time>2013-03-10T14:22:06Z</time>
      </trkpt>
      <trkpt lat="43.5166" lon="2.44678">
        <ele>445.2</ele>
        <time>2013-03-10T14:22:14Z</time>
      </trkpt>
      <trkpt lat="43.51656" lon="2.44668">
        <ele>446</ele>
        <time>2013-03-10T14:22:22Z</time>
      </trkpt>
      <trkpt lat="43.51652" lon="2.44657">
        <ele>446.9</ele>
        <time>2013-03-10T14:22:31Z</time>
      </trkpt>
      <trkpt lat="43.51651" lon="2.44656">
        <ele>446.9</ele>
        <time>2013-03-10T14:22:32Z</time>
      </trkpt>
      <trkpt lat="43.51641" lon="2.4464">
        <ele>447</ele>
        <time>2013-03-10T14:22:47Z</time>
      </trkpt>
      <trkpt lat="43.51633" lon="2.44634">
        <ele>447.4</ele>
        <time>2013-03-10T14:22:54Z</time>
      </trkpt>
      <trkpt lat="43.51625" lon="2.44631">
        <ele>448.9</ele>
        <time>2013-03-10T14:23:01Z</time>
      </trkpt>
      <trkpt lat="43.51617" lon="2.44628">
        <ele>448.4</ele>
        <time>2013-03-10T14:23:14Z</time>
      </trkpt>
      <trkpt lat="43.51609" lon="2.44627">
        <ele>449.3</ele>
        <time>2013-03-10T14:23:23Z</time>
      </trkpt>
      <trkpt lat="43.516" lon="2.44625">
        <ele>450.4</ele>
        <time>2013-03-10T14:23:39Z</time>
      </trkpt>
      <trkpt lat="43.516" lon="2.44624">
        <ele>450.4</ele>
        <time>2013-03-10T14:23:40Z</time>
      </trkpt>
      <trkpt lat="43.5159" lon="2.44608">
        <ele>451.3</ele>
        <time>2013-03-10T14:23:59Z</time>
      </trkpt>
      <trkpt lat="43.51591" lon="2.44596">
        <ele>451.5</ele>
        <time>2013-03-10T14:24:09Z</time>
      </trkpt>
      <trkpt lat="43.51596" lon="2.44586">
        <ele>452.2</ele>
        <time>2013-03-10T14:24:18Z</time>
      </trkpt>
      <trkpt lat="43.51601" lon="2.44577">
        <ele>451.8</ele>
        <time>2013-03-10T14:24:26Z</time>
      </trkpt>
      <trkpt lat="43.51606" lon="2.44567">
        <ele>453.3</ele>
        <time>2013-03-10T14:24:34Z</time>
      </trkpt>
      <trkpt lat="43.51611" lon="2.44559">
        <ele>453.3</ele>
        <time>2013-03-10T14:24:42Z</time>
      </trkpt>
      <trkpt lat="43.51611" lon="2.44557">
        <ele>453.5</ele>
        <time>2013-03-10T14:24:43Z</time>
      </trkpt>
      <trkpt lat="43.51621" lon="2.4454">
        <ele>454.8</ele>
        <time>2013-03-10T14:24:58Z</time>
      </trkpt>
      <trkpt lat="43.51626" lon="2.44531">
        <ele>456.1</ele>
        <time>2013-03-10T14:25:09Z</time>
      </trkpt>
      <trkpt lat="43.5163" lon="2.44521">
        <ele>456.8</ele>
        <time>2013-03-10T14:25:20Z</time>
      </trkpt>
      <trkpt lat="43.51635" lon="2.44511">
        <ele>457.7</ele>
        <time>2013-03-10T14:25:30Z</time>
      </trkpt>
      <trkpt lat="43.51638" lon="2.445">
        <ele>458.7</ele>
        <time>2013-03-10T14:25:39Z</time>
      </trkpt>
      <trkpt lat="43.5164" lon="2.44488">
        <ele>459.1</ele>
        <time>2013-03-10T14:25:48Z</time>
      </trkpt>
      <trkpt lat="43.51641" lon="2.44487">
        <ele>459.4</ele>
        <time>2013-03-10T14:25:49Z</time>
      </trkpt>
      <trkpt lat="43.51642" lon="2.44464">
        <ele>460.3</ele>
        <time>2013-03-10T14:26:05Z</time>
      </trkpt>
      <trkpt lat="43.51643" lon="2.44453">
        <ele>460.8</ele>
        <time>2013-03-10T14:26:13Z</time>
      </trkpt>
      <trkpt lat="43.51644" lon="2.44442">
        <ele>461.3</ele>
        <time>2013-03-10T14:26:21Z</time>
      </trkpt>
      <trkpt lat="43.51646" lon="2.44431">
        <ele>462.4</ele>
        <time>2013-03-10T14:26:28Z</time>
      </trkpt>
      <trkpt lat="43.51649" lon="2.44419">
        <ele>462.5</ele>
        <time>2013-03-10T14:26:36Z</time>
      </trkpt>
      <trkpt lat="43.51651" lon="2.44408">
        <ele>461.8</ele>
        <time>2013-03-10T14:26:45Z</time>
      </trkpt>
      <trkpt lat="43.51653" lon="2.44396">
        <ele>464.3</ele>
        <time>2013-03-10T14:26:55Z</time>
      </trkpt>
      <trkpt lat="43.51653" lon="2.44395">
        <ele>464.4</ele>
        <time>2013-03-10T14:26:56Z</time>
      </trkpt>
      <trkpt lat="43.51658" lon="2.44375">
        <ele>465.4</ele>
        <time>2013-03-10T14:27:14Z</time>
      </trkpt>
      <trkpt lat="43.51663" lon="2.44365">
        <ele>466.2</ele>
        <time>2013-03-10T14:27:23Z</time>
      </trkpt>
      <trkpt lat="43.51666" lon="2.44354">
        <ele>467.1</ele>
        <time>2013-03-10T14:27:34Z</time>
      </trkpt>
      <trkpt lat="43.51669" lon="2.44344">
        <ele>468.1</ele>
        <time>2013-03-10T14:27:42Z</time>
      </trkpt>
      <trkpt lat="43.51674" lon="2.44335">
        <ele>468.8</ele>
        <time>2013-03-10T14:27:52Z</time>
      </trkpt>
      <trkpt lat="43.51681" lon="2.44327">
        <ele>469.5</ele>
        <time>2013-03-10T14:28:01Z</time>
      </trkpt>
      <trkpt lat="43.51682" lon="2.44326">
        <ele>469.1</ele>
        <time>2013-03-10T14:28:02Z</time>
      </trkpt>
      <trkpt lat="43.51696" lon="2.44316">
        <ele>471</ele>
        <time>2013-03-10T14:28:17Z</time>
      </trkpt>
      <trkpt lat="43.51704" lon="2.44312">
        <ele>472.7</ele>
        <time>2013-03-10T14:28:26Z</time>
      </trkpt>
      <trkpt lat="43.51712" lon="2.44312">
        <ele>472.4</ele>
        <time>2013-03-10T14:28:34Z</time>
      </trkpt>
      <trkpt lat="43.51721" lon="2.44314">
        <ele>473.2</ele>
        <time>2013-03-10T14:28:42Z</time>
      </trkpt>
      <trkpt lat="43.51728" lon="2.4432">
        <ele>473.9</ele>
        <time>2013-03-10T14:28:51Z</time>
      </trkpt>
      <trkpt lat="43.51734" lon="2.44328">
        <ele>474.1</ele>
        <time>2013-03-10T14:28:58Z</time>
      </trkpt>
      <trkpt lat="43.5174" lon="2.44337">
        <ele>474.7</ele>
        <time>2013-03-10T14:29:06Z</time>
      </trkpt>
      <trkpt lat="43.5174" lon="2.44338">
        <ele>475</ele>
        <time>2013-03-10T14:29:07Z</time>
      </trkpt>
      <trkpt lat="43.5175" lon="2.44355">
        <ele>476.5</ele>
        <time>2013-03-10T14:29:20Z</time>
      </trkpt>
      <trkpt lat="43.51755" lon="2.44364">
        <ele>476.6</ele>
        <time>2013-03-10T14:29:27Z</time>
      </trkpt>
      <trkpt lat="43.51759" lon="2.44374">
        <ele>477.9</ele>
        <time>2013-03-10T14:29:35Z</time>
      </trkpt>
      <trkpt lat="43.51764" lon="2.44383">
        <ele>477.8</ele>
        <time>2013-03-10T14:29:43Z</time>
      </trkpt>
      <trkpt lat="43.51771" lon="2.44391">
        <ele>478.8</ele>
        <time>2013-03-10T14:29:50Z</time>
      </trkpt>
      <trkpt lat="43.51775" lon="2.44401">
        <ele>479.9</ele>
        <time>2013-03-10T14:30:00Z</time>
      </trkpt>
      <trkpt lat="43.5178" lon="2.44411">
        <ele>480.5</ele>
        <time>2013-03-10T14:30:10Z</time>
      </trkpt>
      <trkpt lat="43.51781" lon="2.44412">
        <ele>480.7</ele>
        <time>2013-03-10T14:30:11Z</time>
      </trkpt>
      <trkpt lat="43.51789" lon="2.44429">
        <ele>481.8</ele>
        <time>2013-03-10T14:30:27Z</time>
      </trkpt>
      <trkpt lat="43.51795" lon="2.44437">
        <ele>482.3</ele>
        <time>2013-03-10T14:30:33Z</time>
      </trkpt>
      <trkpt lat="43.51801" lon="2.44444">
        <ele>483.3</ele>
        <time>2013-03-10T14:30:41Z</time>
      </trkpt>
      <trkpt lat="43.51809" lon="2.44446">
        <ele>484</ele>
        <time>2013-03-10T14:30:50Z</time>
      </trkpt>
      <trkpt lat="43.51817" lon="2.44443">
        <ele>484.7</ele>
        <time>2013-03-10T14:30:57Z</time>
      </trkpt>
      <trkpt lat="43.51824" lon="2.44435">
        <ele>484.7</ele>
        <time>2013-03-10T14:31:06Z</time>
      </trkpt>
      <trkpt lat="43.51829" lon="2.44425">
        <ele>486.3</ele>
        <time>2013-03-10T14:31:16Z</time>
      </trkpt>
      <trkpt lat="43.5183" lon="2.44424">
        <ele>486.2</ele>
        <time>2013-03-10T14:31:17Z</time>
      </trkpt>
      <trkpt lat="43.51839" lon="2.44407">
        <ele>487.1</ele>
        <time>2013-03-10T14:31:30Z</time>
      </trkpt>
      <trkpt lat="43.51844" lon="2.44397">
        <ele>488.3</ele>
        <time>2013-03-10T14:31:37Z</time>
      </trkpt>
      <trkpt lat="43.5185" lon="2.44388">
        <ele>487.2</ele>
        <time>2013-03-10T14:31:45Z</time>
      </trkpt>
      <trkpt lat="43.51858" lon="2.44381">
        <ele>488.1</ele>
        <time>2013-03-10T14:31:53Z</time>
      </trkpt>
      <trkpt lat="43.51865" lon="2.44374">
        <ele>488.8</ele>
        <time>2013-03-10T14:32:00Z</time>
      </trkpt>
      <trkpt lat="43.51872" lon="2.44369">
        <ele>489.7</ele>
        <time>2013-03-10T14:32:09Z</time>
      </trkpt>
      <trkpt lat="43.5188" lon="2.44363">
        <ele>490.2</ele>
        <time>2013-03-10T14:32:17Z</time>
      </trkpt>
      <trkpt lat="43.5188" lon="2.44362">
        <ele>490.4</ele>
        <time>2013-03-10T14:32:18Z</time>
      </trkpt>
      <trkpt lat="43.51893" lon="2.4435">
        <ele>491</ele>
        <time>2013-03-10T14:32:34Z</time>
      </trkpt>
      <trkpt lat="43.519" lon="2.44345">
        <ele>491.2</ele>
        <time>2013-03-10T14:32:40Z</time>
      </trkpt>
      <trkpt lat="43.51908" lon="2.4434">
        <ele>491.7</ele>
        <time>2013-03-10T14:32:46Z</time>
      </trkpt>
      <trkpt lat="43.51916" lon="2.44337">
        <ele>493.3</ele>
        <time>2013-03-10T14:32:53Z</time>
      </trkpt>
      <trkpt lat="43.51925" lon="2.44334">
        <ele>493.3</ele>
        <time>2013-03-10T14:33:00Z</time>
      </trkpt>
      <trkpt lat="43.51933" lon="2.44332">
        <ele>493.6</ele>
        <time>2013-03-10T14:33:07Z</time>
      </trkpt>
      <trkpt lat="43.51941" lon="2.44329">
        <ele>494.2</ele>
        <time>2013-03-10T14:33:15Z</time>
      </trkpt>
      <trkpt lat="43.5195" lon="2.44327">
        <ele>494.9</ele>
        <time>2013-03-10T14:33:23Z</time>
      </trkpt>
      <trkpt lat="43.51951" lon="2.44326">
        <ele>495</ele>
        <time>2013-03-10T14:33:24Z</time>
      </trkpt>
      <trkpt lat="43.51967" lon="2.44322">
        <ele>497</ele>
        <time>2013-03-10T14:33:39Z</time>
      </trkpt>
      <trkpt lat="43.51975" lon="2.44319">
        <ele>497.4</ele>
        <time>2013-03-10T14:33:49Z</time>
      </trkpt>
      <trkpt lat="43.51983" lon="2.44317">
        <ele>497.5</ele>
        <time>2013-03-10T14:33:56Z</time>
      </trkpt>
      <trkpt lat="43.51992" lon="2.44315">
        <ele>498.2</ele>
        <time>2013-03-10T14:34:04Z</time>
      </trkpt>
      <trkpt lat="43.52" lon="2.44312">
        <ele>498.2</ele>
        <time>2013-03-10T14:34:12Z</time>
      </trkpt>
      <trkpt lat="43.52008" lon="2.44309">
        <ele>498.9</ele>
        <time>2013-03-10T14:34:19Z</time>
      </trkpt>
      <trkpt lat="43.52016" lon="2.44307">
        <ele>500</ele>
        <time>2013-03-10T14:34:27Z</time>
      </trkpt>
      <trkpt lat="43.52018" lon="2.44307">
        <ele>499.7</ele>
        <time>2013-03-10T14:34:28Z</time>
      </trkpt>
      <trkpt lat="43.52033" lon="2.44301">
        <ele>500.7</ele>
        <time>2013-03-10T14:34:41Z</time>
      </trkpt>
      <trkpt lat="43.52041" lon="2.44298">
        <ele>501</ele>
        <time>2013-03-10T14:34:48Z</time>
      </trkpt>
      <trkpt lat="43.5205" lon="2.44295">
        <ele>502.5</ele>
        <time>2013-03-10T14:34:56Z</time>
      </trkpt>
      <trkpt lat="43.52058" lon="2.44293">
        <ele>503.9</ele>
        <time>2013-03-10T14:35:04Z</time>
      </trkpt>
      <trkpt lat="43.52066" lon="2.4429">
        <ele>504.5</ele>
        <time>2013-03-10T14:35:12Z</time>
      </trkpt>
      <trkpt lat="43.52074" lon="2.44286">
        <ele>505</ele>
        <time>2013-03-10T14:35:20Z</time>
      </trkpt>
      <trkpt lat="43.52082" lon="2.44283">
        <ele>505</ele>
        <time>2013-03-10T14:35:29Z</time>
      </trkpt>
      <trkpt lat="43.52083" lon="2.44282">
        <ele>505.1</ele>
        <time>2013-03-10T14:35:30Z</time>
      </trkpt>
      <trkpt lat="43.52098" lon="2.44276">
        <ele>506.4</ele>
        <time>2013-03-10T14:35:45Z</time>
      </trkpt>
      <trkpt lat="43.52106" lon="2.44272">
        <ele>506.9</ele>
        <time>2013-03-10T14:35:52Z</time>
      </trkpt>
      <trkpt lat="43.52114" lon="2.44268">
        <ele>507.3</ele>
        <time>2013-03-10T14:35:59Z</time>
      </trkpt>
      <trkpt lat="43.52121" lon="2.44264">
        <ele>508</ele>
        <time>2013-03-10T14:36:06Z</time>
      </trkpt>
      <trkpt lat="43.52129" lon="2.44259">
        <ele>508.1</ele>
        <time>2013-03-10T14:36:13Z</time>
      </trkpt>
      <trkpt lat="43.52137" lon="2.44253">
        <ele>509.7</ele>
        <time>2013-03-10T14:36:21Z</time>
      </trkpt>
      <trkpt lat="43.52145" lon="2.44248">
        <ele>510.5</ele>
        <time>2013-03-10T14:37:02Z</time>
      </trkpt>
      <trkpt lat="43.52146" lon="2.44247">
        <ele>510.2</ele>
        <time>2013-03-10T14:37:03Z</time>
      </trkpt>
      <trkpt lat="43.5216" lon="2.44243">
        <ele>510.8</ele>
        <time>2013-03-10T14:37:18Z</time>
      </trkpt>
      <trkpt lat="43.52169" lon="2.44242">
        <ele>511.4</ele>
        <time>2013-03-10T14:37:26Z</time>
      </trkpt>
      <trkpt lat="43.52177" lon="2.44241">
        <ele>511.7</ele>
        <time>2013-03-10T14:37:33Z</time>
      </trkpt>
      <trkpt lat="43.52185" lon="2.4424">
        <ele>512.2</ele>
        <time>2013-03-10T14:37:40Z</time>
      </trkpt>
      <trkpt lat="43.52194" lon="2.44239">
        <ele>512</ele>
        <time>2013-03-10T14:37:47Z</time>
      </trkpt>
      <trkpt lat="43.52201" lon="2.44239">
        <ele>512.2</ele>
        <time>2013-03-10T14:37:54Z</time>
      </trkpt>
      <trkpt lat="43.5221" lon="2.44237">
        <ele>512.4</ele>
        <time>2013-03-10T14:38:01Z</time>
      </trkpt>
      <trkpt lat="43.52217" lon="2.44236">
        <ele>512.9</ele>
        <time>2013-03-10T14:38:07Z</time>
      </trkpt>
      <trkpt lat="43.52219" lon="2.44236">
        <ele>513</ele>
        <time>2013-03-10T14:38:08Z</time>
      </trkpt>
      <trkpt lat="43.52234" lon="2.44234">
        <ele>512.5</ele>
        <time>2013-03-10T14:38:21Z</time>
      </trkpt>
      <trkpt lat="43.52242" lon="2.44232">
        <ele>513.1</ele>
        <time>2013-03-10T14:38:28Z</time>
      </trkpt>
      <trkpt lat="43.5225" lon="2.44228">
        <ele>513</ele>
        <time>2013-03-10T14:38:35Z</time>
      </trkpt>
      <trkpt lat="43.52258" lon="2.44224">
        <ele>512.6</ele>
        <time>2013-03-10T14:38:42Z</time>
      </trkpt>
      <trkpt lat="43.52266" lon="2.44219">
        <ele>512.8</ele>
        <time>2013-03-10T14:38:49Z</time>
      </trkpt>
      <trkpt lat="43.52274" lon="2.44214">
        <ele>513.1</ele>
        <time>2013-03-10T14:38:56Z</time>
      </trkpt>
      <trkpt lat="43.52281" lon="2.44208">
        <ele>513.2</ele>
        <time>2013-03-10T14:39:03Z</time>
      </trkpt>
      <trkpt lat="43.52287" lon="2.44202">
        <ele>513.1</ele>
        <time>2013-03-10T14:39:10Z</time>
      </trkpt>
      <trkpt lat="43.52288" lon="2.44201">
        <ele>513.1</ele>
        <time>2013-03-10T14:39:11Z</time>
      </trkpt>
      <trkpt lat="43.52303" lon="2.44196">
        <ele>512.3</ele>
        <time>2013-03-10T14:39:25Z</time>
      </trkpt>
      <trkpt lat="43.52311" lon="2.44197">
        <ele>513.5</ele>
        <time>2013-03-10T14:39:33Z</time>
      </trkpt>
      <trkpt lat="43.52319" lon="2.44201">
        <ele>513.9</ele>
        <time>2013-03-10T14:39:40Z</time>
      </trkpt>
      <trkpt lat="43.52327" lon="2.44206">
        <ele>514.4</ele>
        <time>2013-03-10T14:39:47Z</time>
      </trkpt>
      <trkpt lat="43.52334" lon="2.44211">
        <ele>514.1</ele>
        <time>2013-03-10T14:39:54Z</time>
      </trkpt>
      <trkpt lat="43.52343" lon="2.44213">
        <ele>514.4</ele>
        <time>2013-03-10T14:40:01Z</time>
      </trkpt>
      <trkpt lat="43.52351" lon="2.44211">
        <ele>514.8</ele>
        <time>2013-03-10T14:40:08Z</time>
      </trkpt>
      <trkpt lat="43.52359" lon="2.44208">
        <ele>515.5</ele>
        <time>2013-03-10T14:40:14Z</time>
      </trkpt>
      <trkpt lat="43.5236" lon="2.44208">
        <ele>515.3</ele>
        <time>2013-03-10T14:40:15Z</time>
      </trkpt>
      <trkpt lat="43.52374" lon="2.44202">
        <ele>515.6</ele>
        <time>2013-03-10T14:40:27Z</time>
      </trkpt>
      <trkpt lat="43.52382" lon="2.44198">
        <ele>516.4</ele>
        <time>2013-03-10T14:40:34Z</time>
      </trkpt>
      <trkpt lat="43.52391" lon="2.44193">
        <ele>516.1</ele>
        <time>2013-03-10T14:40:42Z</time>
      </trkpt>
      <trkpt lat="43.52399" lon="2.44189">
        <ele>516.6</ele>
        <time>2013-03-10T14:40:49Z</time>
      </trkpt>
      <trkpt lat="43.52406" lon="2.44182">
        <ele>516.7</ele>
        <time>2013-03-10T14:40:56Z</time>
      </trkpt>
      <trkpt lat="43.52409" lon="2.44171">
        <ele>518.4</ele>
        <time>2013-03-10T14:41:04Z</time>
      </trkpt>
      <trkpt lat="43.52409" lon="2.4416">
        <ele>519.4</ele>
        <time>2013-03-10T14:41:11Z</time>
      </trkpt>
      <trkpt lat="43.52409" lon="2.44149">
        <ele>519.2</ele>
        <time>2013-03-10T14:41:19Z</time>
      </trkpt>
      <trkpt lat="43.52409" lon="2.44147">
        <ele>519.2</ele>
        <time>2013-03-10T14:41:20Z</time>
      </trkpt>
      <trkpt lat="43.52409" lon="2.44124">
        <ele>520.4</ele>
        <time>2013-03-10T14:41:34Z</time>
      </trkpt>
      <trkpt lat="43.5241" lon="2.44113">
        <ele>519.7</ele>
        <time>2013-03-10T14:41:40Z</time>
      </trkpt>
      <trkpt lat="43.52411" lon="2.44102">
        <ele>519.8</ele>
        <time>2013-03-10T14:41:46Z</time>
      </trkpt>
      <trkpt lat="43.52413" lon="2.4409">
        <ele>520.1</ele>
        <time>2013-03-10T14:41:52Z</time>
      </trkpt>
      <trkpt lat="43.52415" lon="2.4408">
        <ele>520.3</ele>
        <time>2013-03-10T14:41:58Z</time>
      </trkpt>
      <trkpt lat="43.52419" lon="2.4407">
        <ele>520.1</ele>
        <time>2013-03-10T14:42:04Z</time>
      </trkpt>
      <trkpt lat="43.52423" lon="2.4406">
        <ele>520.3</ele>
        <time>2013-03-10T14:42:10Z</time>
      </trkpt>
      <trkpt lat="43.52428" lon="2.44051">
        <ele>520.4</ele>
        <time>2013-03-10T14:42:16Z</time>
      </trkpt>
      <trkpt lat="43.52433" lon="2.44041">
        <ele>520.5</ele>
        <time>2013-03-10T14:42:23Z</time>
      </trkpt>
      <trkpt lat="43.52434" lon="2.4404">
        <ele>520.7</ele>
        <time>2013-03-10T14:42:24Z</time>
      </trkpt>
      <trkpt lat="43.52443" lon="2.44024">
        <ele>520.7</ele>
        <time>2013-03-10T14:42:35Z</time>
      </trkpt>
      <trkpt lat="43.52449" lon="2.44016">
        <ele>521.4</ele>
        <time>2013-03-10T14:42:42Z</time>
      </trkpt>
      <trkpt lat="43.52457" lon="2.4401">
        <ele>521</ele>
        <time>2013-03-10T14:42:49Z</time>
      </trkpt>
      <trkpt lat="43.52465" lon="2.44007">
        <ele>521.2</ele>
        <time>2013-03-10T14:42:56Z</time>
      </trkpt>
      <trkpt lat="43.52473" lon="2.44004">
        <ele>521.2</ele>
        <time>2013-03-10T14:43:03Z</time>
      </trkpt>
      <trkpt lat="43.52481" lon="2.44">
        <ele>521.4</ele>
        <time>2013-03-10T14:43:10Z</time>
      </trkpt>
      <trkpt lat="43.52489" lon="2.43995">
        <ele>520.9</ele>
        <time>2013-03-10T14:43:17Z</time>
      </trkpt>
      <trkpt lat="43.52496" lon="2.43989">
        <ele>521.1</ele>
        <time>2013-03-10T14:43:24Z</time>
      </trkpt>
      <trkpt lat="43.52497" lon="2.43988">
        <ele>521.5</ele>
        <time>2013-03-10T14:43:25Z</time>
      </trkpt>
      <trkpt lat="43.5251" lon="2.43976">
        <ele>522.6</ele>
        <time>2013-03-10T14:43:38Z</time>
      </trkpt>
      <trkpt lat="43.52517" lon="2.43969">
        <ele>522</ele>
        <time>2013-03-10T14:43:46Z</time>
      </trkpt>
      <trkpt lat="43.52522" lon="2.43958">
        <ele>521.9</ele>
        <time>2013-03-10T14:43:54Z</time>
      </trkpt>
      <trkpt lat="43.52523" lon="2.43947">
        <ele>522.6</ele>
        <time>2013-03-10T14:44:01Z</time>
      </trkpt>
      <trkpt lat="43.52521" lon="2.43936">
        <ele>522.3</ele>
        <time>2013-03-10T14:44:07Z</time>
      </trkpt>
      <trkpt lat="43.5252" lon="2.43926">
        <ele>521.6</ele>
        <time>2013-03-10T14:44:13Z</time>
      </trkpt>
      <trkpt lat="43.5252" lon="2.43914">
        <ele>521.5</ele>
        <time>2013-03-10T14:44:20Z</time>
      </trkpt>
      <trkpt lat="43.52519" lon="2.43902">
        <ele>521.7</ele>
        <time>2013-03-10T14:44:27Z</time>
      </trkpt>
      <trkpt lat="43.52519" lon="2.43901">
        <ele>521.3</ele>
        <time>2013-03-10T14:44:28Z</time>
      </trkpt>
      <trkpt lat="43.5252" lon="2.43879">
        <ele>521.7</ele>
        <time>2013-03-10T14:44:41Z</time>
      </trkpt>
      <trkpt lat="43.52519" lon="2.43867">
        <ele>522.2</ele>
        <time>2013-03-10T14:44:48Z</time>
      </trkpt>
      <trkpt lat="43.52515" lon="2.43857">
        <ele>522.8</ele>
        <time>2013-03-10T14:44:56Z</time>
      </trkpt>
      <trkpt lat="43.52508" lon="2.43851">
        <ele>523.4</ele>
        <time>2013-03-10T14:45:06Z</time>
      </trkpt>
      <trkpt lat="43.52499" lon="2.43848">
        <ele>524.2</ele>
        <time>2013-03-10T14:45:16Z</time>
      </trkpt>
      <trkpt lat="43.52491" lon="2.43847">
        <ele>524.6</ele>
        <time>2013-03-10T14:45:25Z</time>
      </trkpt>
      <trkpt lat="43.52483" lon="2.43844">
        <ele>524.8</ele>
        <time>2013-03-10T14:45:31Z</time>
      </trkpt>
      <trkpt lat="43.52482" lon="2.43843">
        <ele>524.7</ele>
        <time>2013-03-10T14:45:32Z</time>
      </trkpt>
      <trkpt lat="43.52471" lon="2.4383">
        <ele>525.6</ele>
        <time>2013-03-10T14:45:42Z</time>
      </trkpt>
      <trkpt lat="43.52466" lon="2.4382">
        <ele>525</ele>
        <time>2013-03-10T14:45:49Z</time>
      </trkpt>
      <trkpt lat="43.52464" lon="2.4381">
        <ele>525.3</ele>
        <time>2013-03-10T14:45:54Z</time>
      </trkpt>
      <trkpt lat="43.52461" lon="2.43799">
        <ele>523.7</ele>
        <time>2013-03-10T14:46:00Z</time>
      </trkpt>
      <trkpt lat="43.52458" lon="2.43789">
        <ele>524.7</ele>
        <time>2013-03-10T14:46:06Z</time>
      </trkpt>
      <trkpt lat="43.52454" lon="2.43779">
        <ele>524.9</ele>
        <time>2013-03-10T14:46:12Z</time>
      </trkpt>
      <trkpt lat="43.52451" lon="2.4377">
        <ele>524.7</ele>
        <time>2013-03-10T14:46:18Z</time>
      </trkpt>
      <trkpt lat="43.52447" lon="2.43759">
        <ele>525.1</ele>
        <time>2013-03-10T14:46:25Z</time>
      </trkpt>
      <trkpt lat="43.52445" lon="2.43748">
        <ele>525.5</ele>
        <time>2013-03-10T14:46:32Z</time>
      </trkpt>
      <trkpt lat="43.52444" lon="2.43746">
        <ele>525.5</ele>
        <time>2013-03-10T14:46:33Z</time>
      </trkpt>
      <trkpt lat="43.52441" lon="2.43725">
        <ele>525.5</ele>
        <time>2013-03-10T14:46:49Z</time>
      </trkpt>
      <trkpt lat="43.52437" lon="2.43715">
        <ele>525.4</ele>
        <time>2013-03-10T14:46:57Z</time>
      </trkpt>
      <trkpt lat="43.52432" lon="2.43707">
        <ele>525.6</ele>
        <time>2013-03-10T14:47:04Z</time>
      </trkpt>
      <trkpt lat="43.52427" lon="2.43697">
        <ele>524.7</ele>
        <time>2013-03-10T14:47:12Z</time>
      </trkpt>
      <trkpt lat="43.52422" lon="2.43687">
        <ele>524.3</ele>
        <time>2013-03-10T14:47:19Z</time>
      </trkpt>
      <trkpt lat="43.52418" lon="2.43677">
        <ele>524.5</ele>
        <time>2013-03-10T14:47:26Z</time>
      </trkpt>
      <trkpt lat="43.52414" lon="2.43666">
        <ele>521.8</ele>
        <time>2013-03-10T14:47:38Z</time>
      </trkpt>
      <trkpt lat="43.52414" lon="2.43666">
        <ele>521.6</ele>
        <time>2013-03-10T14:47:39Z</time>
      </trkpt>
      <trkpt lat="43.52407" lon="2.43646">
        <ele>522.7</ele>
        <time>2013-03-10T14:48:08Z</time>
      </trkpt>
      <trkpt lat="43.52403" lon="2.43635">
        <ele>521.4</ele>
        <time>2013-03-10T14:48:18Z</time>
      </trkpt>
      <trkpt lat="43.52404" lon="2.43623">
        <ele>521.7</ele>
        <time>2013-03-10T14:48:24Z</time>
      </trkpt>
      <trkpt lat="43.52406" lon="2.43612">
        <ele>521</ele>
        <time>2013-03-10T14:48:31Z</time>
      </trkpt>
      <trkpt lat="43.5241" lon="2.43602">
        <ele>521</ele>
        <time>2013-03-10T14:48:38Z</time>
      </trkpt>
      <trkpt lat="43.52414" lon="2.43592">
        <ele>521.4</ele>
        <time>2013-03-10T14:48:44Z</time>
      </trkpt>
      <trkpt lat="43.52415" lon="2.4359">
        <ele>521.4</ele>
        <time>2013-03-10T14:48:45Z</time>
      </trkpt>
      <trkpt lat="43.52424" lon="2.43574">
        <ele>521.8</ele>
        <time>2013-03-10T14:48:56Z</time>
      </trkpt>
      <trkpt lat="43.5243" lon="2.43565">
        <ele>521.6</ele>
        <time>2013-03-10T14:49:02Z</time>
      </trkpt>
      <trkpt lat="43.52435" lon="2.43556">
        <ele>521.6</ele>
        <time>2013-03-10T14:49:08Z</time>
      </trkpt>
      <trkpt lat="43.52439" lon="2.43547">
        <ele>522.1</ele>
        <time>2013-03-10T14:49:14Z</time>
      </trkpt>
      <trkpt lat="43.52444" lon="2.43537">
        <ele>522.5</ele>
        <time>2013-03-10T14:49:21Z</time>
      </trkpt>
      <trkpt lat="43.52449" lon="2.43528">
        <ele>522.5</ele>
        <time>2013-03-10T14:49:28Z</time>
      </trkpt>
      <trkpt lat="43.52454" lon="2.43518">
        <ele>522.3</ele>
        <time>2013-03-10T14:49:35Z</time>
      </trkpt>
      <trkpt lat="43.52459" lon="2.4351">
        <ele>522.5</ele>
        <time>2013-03-10T14:49:41Z</time>
      </trkpt>
      <trkpt lat="43.52464" lon="2.435">
        <ele>523.9</ele>
        <time>2013-03-10T14:49:48Z</time>
      </trkpt>
      <trkpt lat="43.52465" lon="2.43498">
        <ele>524.3</ele>
        <time>2013-03-10T14:49:49Z</time>
      </trkpt>
      <trkpt lat="43.52474" lon="2.4348">
        <ele>525.1</ele>
        <time>2013-03-10T14:50:07Z</time>
      </trkpt>
      <trkpt lat="43.5248" lon="2.4347">
        <ele>526.3</ele>
        <time>2013-03-10T14:50:20Z</time>
      </trkpt>
      <trkpt lat="43.52484" lon="2.4346">
        <ele>526.4</ele>
        <time>2013-03-10T14:50:32Z</time>
      </trkpt>
      <trkpt lat="43.52489" lon="2.43449">
        <ele>526.7</ele>
        <time>2013-03-10T14:50:40Z</time>
      </trkpt>
      <trkpt lat="43.52493" lon="2.43439">
        <ele>527.6</ele>
        <time>2013-03-10T14:50:47Z</time>
      </trkpt>
      <trkpt lat="43.52496" lon="2.43428">
        <ele>528</ele>
        <time>2013-03-10T14:50:54Z</time>
      </trkpt>
      <trkpt lat="43.52497" lon="2.43427">
        <ele>527.6</ele>
        <time>2013-03-10T14:50:55Z</time>
      </trkpt>
      <trkpt lat="43.52503" lon="2.43407">
        <ele>527.6</ele>
        <time>2013-03-10T14:51:08Z</time>
      </trkpt>
      <trkpt lat="43.52506" lon="2.43396">
        <ele>528.8</ele>
        <time>2013-03-10T14:51:15Z</time>
      </trkpt>
      <trkpt lat="43.52509" lon="2.43385">
        <ele>528.5</ele>
        <time>2013-03-10T14:51:22Z</time>
      </trkpt>
      <trkpt lat="43.52513" lon="2.43374">
        <ele>528.4</ele>
        <time>2013-03-10T14:51:29Z</time>
      </trkpt>
      <trkpt lat="43.52516" lon="2.43364">
        <ele>528.3</ele>
        <time>2013-03-10T14:51:36Z</time>
      </trkpt>
      <trkpt lat="43.52519" lon="2.43353">
        <ele>528.7</ele>
        <time>2013-03-10T14:51:43Z</time>
      </trkpt>
      <trkpt lat="43.52522" lon="2.43342">
        <ele>527.3</ele>
        <time>2013-03-10T14:51:50Z</time>
      </trkpt>
      <trkpt lat="43.52525" lon="2.43331">
        <ele>527.7</ele>
        <time>2013-03-10T14:51:59Z</time>
      </trkpt>
      <trkpt lat="43.52525" lon="2.43329">
        <ele>527.6</ele>
        <time>2013-03-10T14:52:00Z</time>
      </trkpt>
      <trkpt lat="43.52533" lon="2.43312">
        <ele>526.8</ele>
        <time>2013-03-10T14:52:10Z</time>
      </trkpt>
      <trkpt lat="43.52538" lon="2.43303">
        <ele>526.5</ele>
        <time>2013-03-10T14:52:16Z</time>
      </trkpt>
      <trkpt lat="43.52543" lon="2.43294">
        <ele>527.2</ele>
        <time>2013-03-10T14:52:23Z</time>
      </trkpt>
      <trkpt lat="43.5255" lon="2.43286">
        <ele>527.3</ele>
        <time>2013-03-10T14:52:30Z</time>
      </trkpt>
      <trkpt lat="43.52557" lon="2.43278">
        <ele>528.4</ele>
        <time>2013-03-10T14:52:38Z</time>
      </trkpt>
      <trkpt lat="43.52563" lon="2.43271">
        <ele>528.1</ele>
        <time>2013-03-10T14:52:45Z</time>
      </trkpt>
      <trkpt lat="43.5257" lon="2.43264">
        <ele>529</ele>
        <time>2013-03-10T14:52:52Z</time>
      </trkpt>
      <trkpt lat="43.52576" lon="2.43256">
        <ele>528.4</ele>
        <time>2013-03-10T14:53:00Z</time>
      </trkpt>
      <trkpt lat="43.52577" lon="2.43255">
        <ele>528.8</ele>
        <time>2013-03-10T14:53:01Z</time>
      </trkpt>
      <trkpt lat="43.52589" lon="2.43241">
        <ele>530.5</ele>
        <time>2013-03-10T14:53:15Z</time>
      </trkpt>
      <trkpt lat="43.52595" lon="2.43233">
        <ele>531.2</ele>
        <time>2013-03-10T14:53:22Z</time>
      </trkpt>
      <trkpt lat="43.52602" lon="2.43226">
        <ele>531.3</ele>
        <time>2013-03-10T14:53:29Z</time>
      </trkpt>
      <trkpt lat="43.52609" lon="2.43219">
        <ele>532</ele>
        <time>2013-03-10T14:53:37Z</time>
      </trkpt>
      <trkpt lat="43.52616" lon="2.43211">
        <ele>532.6</ele>
        <time>2013-03-10T14:54:16Z</time>
      </trkpt>
      <trkpt lat="43.52616" lon="2.4321">
        <ele>532.2</ele>
        <time>2013-03-10T14:54:17Z</time>
      </trkpt>
      <trkpt lat="43.52626" lon="2.43194">
        <ele>533.8</ele>
        <time>2013-03-10T14:54:29Z</time>
      </trkpt>
      <trkpt lat="43.5263" lon="2.43183">
        <ele>534.2</ele>
        <time>2013-03-10T14:54:36Z</time>
      </trkpt>
      <trkpt lat="43.52633" lon="2.43173">
        <ele>533.8</ele>
        <time>2013-03-10T14:54:43Z</time>
      </trkpt>
      <trkpt lat="43.52636" lon="2.43161">
        <ele>534.4</ele>
        <time>2013-03-10T14:54:50Z</time>
      </trkpt>
      <trkpt lat="43.52639" lon="2.4315">
        <ele>534.7</ele>
        <time>2013-03-10T14:54:57Z</time>
      </trkpt>
      <trkpt lat="43.52643" lon="2.43139">
        <ele>535</ele>
        <time>2013-03-10T14:55:04Z</time>
      </trkpt>
      <trkpt lat="43.52646" lon="2.43128">
        <ele>534.4</ele>
        <time>2013-03-10T14:55:11Z</time>
      </trkpt>
      <trkpt lat="43.52649" lon="2.43117">
        <ele>534.8</ele>
        <time>2013-03-10T14:55:18Z</time>
      </trkpt>
      <trkpt lat="43.52649" lon="2.43115">
        <ele>534.9</ele>
        <time>2013-03-10T14:55:19Z</time>
      </trkpt>
      <trkpt lat="43.52654" lon="2.43094">
        <ele>534.9</ele>
        <time>2013-03-10T14:55:32Z</time>
      </trkpt>
      <trkpt lat="43.52655" lon="2.43082">
        <ele>534.2</ele>
        <time>2013-03-10T14:55:39Z</time>
      </trkpt>
      <trkpt lat="43.52655" lon="2.4307">
        <ele>534.4</ele>
        <time>2013-03-10T14:55:46Z</time>
      </trkpt>
      <trkpt lat="43.52655" lon="2.43058">
        <ele>533.4</ele>
        <time>2013-03-10T14:55:53Z</time>
      </trkpt>
      <trkpt lat="43.52655" lon="2.43046">
        <ele>534.7</ele>
        <time>2013-03-10T14:56:00Z</time>
      </trkpt>
      <trkpt lat="43.52656" lon="2.43034">
        <ele>533.8</ele>
        <time>2013-03-10T14:56:07Z</time>
      </trkpt>
      <trkpt lat="43.52655" lon="2.43022">
        <ele>533.3</ele>
        <time>2013-03-10T14:56:14Z</time>
      </trkpt>
      <trkpt lat="43.52655" lon="2.43011">
        <ele>534.2</ele>
        <time>2013-03-10T14:56:21Z</time>
      </trkpt>
      <trkpt lat="43.52655" lon="2.43009">
        <ele>533.8</ele>
        <time>2013-03-10T14:56:22Z</time>
      </trkpt>
      <trkpt lat="43.52656" lon="2.42987">
        <ele>530.9</ele>
        <time>2013-03-10T14:56:35Z</time>
      </trkpt>
      <trkpt lat="43.52657" lon="2.42976">
        <ele>530.9</ele>
        <time>2013-03-10T14:56:42Z</time>
      </trkpt>
      <trkpt lat="43.52658" lon="2.42965">
        <ele>531.4</ele>
        <time>2013-03-10T14:56:49Z</time>
      </trkpt>
      <trkpt lat="43.5266" lon="2.42954">
        <ele>530.2</ele>
        <time>2013-03-10T14:56:56Z</time>
      </trkpt>
      <trkpt lat="43.52661" lon="2.42942">
        <ele>530.3</ele>
        <time>2013-03-10T14:57:14Z</time>
      </trkpt>
      <trkpt lat="43.52661" lon="2.42939">
        <ele>531.3</ele>
        <time>2013-03-10T14:57:41Z</time>
      </trkpt>
      <trkpt lat="43.52661" lon="2.42939">
        <ele>531.3</ele>
        <time>2013-03-10T14:57:41Z</time>
      </trkpt>
      <trkpt lat="43.52665" lon="2.42934">
        <ele>528.3</ele>
        <time>2013-03-10T14:58:00Z</time>
      </trkpt>
      <trkpt lat="43.52665" lon="2.42934">
        <ele>528.5</ele>
        <time>2013-03-10T14:58:01Z</time>
      </trkpt>
      <trkpt lat="43.52665" lon="2.42934">
        <ele>528.7</ele>
        <time>2013-03-10T14:58:02Z</time>
      </trkpt>
      <trkpt lat="43.52665" lon="2.42934">
        <ele>528.7</ele>
        <time>2013-03-10T14:58:02Z</time>
      </trkpt>
    </trkseg>
  </trk>
</gpx>